[[{"header":{"parameterUnit":"m.s-1","parameterCategory":1,"la1":31.0,"la2":29.5877,"lo1":-88.7671,"lo2":-86.6584,"dy":0.0162,"dx":0.0185,"nx":115,"ny":88,"refTime":"2023-08-16T12:00:00:Z","depth":0,"parameterNumber":2,"parameterNumberName":"U-component_of_WINDS"},"data":[0.0,0.0,0.0,0.0,0.0,0.0,0.0,0.0,0.0,0.0,0.0,0.0,0.0,0.0,0.0,0.0,0.0,0.0,0.0,0.0,0.0,0.0,0.0,0.0,0.0,0.0,0.0,0.0,0.0,0.0,0.0,0.0,0.0,0.0,0.0,0.0,0.0,0.0,0.0,0.0,0.0,0.0,0.0,0.0,0.0,0.0,0.0,0.0,0.0,0.0,0.0,0.0,0.0,0.0,0.0,0.0,0.0,0.0,0.0,0.0,0.0,0.0,0.0,0.0,0.0,0.0,0.0,0.0,0.0,0.0,0.0,0.0,0.0,0.0,0.0,0.0,0.0,0.0,0.0,0.0,0.0,0.0,0.0,0.0,0.0,0.0,0.0,0.0,0.0,0.0,0.0,0.0,0.0,0.0,0.0,0.0,0.0,0.0,0.0,0.0,0.0,0.0,0.0,0.0,0.0,0.0,0.0,0.0,0.0,0.0,0.0,0.0,0.0,0.0,0.0,0.0,0.0,0.0,0.0,0.0,0.0,0.0,0.0,0.0,0.0,0.0,0.0,0.0,0.0,0.0,0.0,0.0,0.0,0.0,0.0,0.0,0.0,0.0,0.0,0.0,0.0,0.0,0.0,0.0,0.0,0.0,0.0,0.0,0.0,0.0,0.0,0.0,0.0,0.0,0.0,0.0,0.0,0.0,0.0,0.0,0.0,0.0,0.0,0.0,0.0,0.0,0.0,0.0,0.0,0.0,0.0,0.0,0.0,0.0,0.0,0.0,0.0,0.0,0.0,0.0,0.0,0.0,0.0,0.0,0.0,0.0,0.0,0.0,0.0,0.0,0.0,0.0,0.0,0.0,0.0,0.0,0.0,0.0,0.0,0.0,0.0,0.0,0.0,0.0,0.0,0.0,0.0,0.0,0.0,0.0,0.0,0.0,0.0,0.0,0.0,0.0,0.0,0.0,0.0,0.0,0.0,0.0,0.0,0.0,0.0,0.0,0.0,0.0,0.0,0.0,0.0,0.0,0.0,0.0,0.0,0.0,0.0,0.0,0.0,0.0,0.0,0.0,0.0,0.0,0.0,0.0,0.0,0.0,0.0,0.0,0.0,0.0,0.0,0.0,0.0,0.0,0.0,0.0,0.0,0.0,0.0,0.0,0.0,0.0,0.0,0.0,0.0,0.0,0.0,0.0,0.0,0.0,0.0,0.0,0.0,0.0,0.0,0.0,0.0,0.0,0.0,0.0,0.0,0.0,0.0,0.0,0.0,0.0,0.0,0.0,0.0,0.0,0.0,0.0,0.0,0.0,0.0,0.0,0.0,0.0,0.0,0.0,0.0,0.0,0.0,0.0,0.0,0.0,0.0,0.0,0.0,0.0,0.0,0.0,0.0,0.0,0.0,0.0,0.0,0.0,0.0,0.0,0.0,0.0,0.0,0.0,0.0,0.0,0.0,0.0,0.0,0.0,0.0,0.0,0.0,0.0,0.0,0.0,0.0,0.0,0.0,0.0,0.0,0.0,0.0,0.0,0.0,0.0,0.0,0.0,0.0,0.0,0.0,0.0,0.0,0.0,0.0,0.0,0.0,0.0,0.0,0.0,0.0,0.0,0.0,0.0,0.0,0.0,0.0,0.0,0.0,0.0,0.0,0.0,0.0,0.0,0.0,0.0,0.0,0.0,0.0,0.0,0.0,0.0,0.0,0.0,0.0,0.0,0.0,0.0,0.0,0.0,0.0,0.0,0.0,0.0,0.0,0.0,0.0,0.0,0.0,0.0,0.0,0.0,0.0,0.0,0.0,0.0,0.0,0.0,0.0,0.0,0.0,0.0,0.0,0.0,0.0,0.0,0.0,0.0,0.0,0.0,0.0,0.0,0.0,0.0,0.0,0.0,0.0,0.0,0.0,0.0,0.0,0.0,0.0,0.0,0.0,0.0,0.0,0.0,0.0,0.0,0.0,0.0,0.0,0.0,0.0,0.0,0.0,0.0,0.0,0.0,0.0,0.0,0.0,0.0,0.0,0.0,0.0,0.0,0.0,0.0,0.0,0.0,0.0,0.0,0.0,0.0,0.0,0.0,0.0,0.0,0.0,0.0,0.0,0.0,0.0,0.0,0.0,0.0,0.0,0.0,0.0,0.0,0.0,0.0,0.0,0.0,0.0,0.0,0.0,0.0,0.0,0.0,0.0,0.0,0.0,0.0,0.0,0.0,0.0,0.0,0.0,0.0,0.0,0.0,0.0,0.0,0.0,0.0,0.0,0.0,0.0,0.0,0.0,0.0,0.0,0.0,0.0,0.0,0.0,0.0,0.0,0.0,0.0,0.0,0.0,0.0,0.0,0.0,0.0,0.0,0.0,0.0,0.0,0.0,0.0,0.0,0.0,0.0,0.0,0.0,0.0,0.0,0.0,0.0,0.0,0.0,0.0,0.0,0.0,0.0,0.0,0.0,0.0,0.0,0.0,0.0,0.0,0.0,0.0,0.0,0.0,0.0,0.0,0.0,0.0,0.0,0.0,0.0,0.0,0.0,0.0,0.0,0.0,0.0,0.0,0.0,0.0,0.0,0.0,0.0,0.0,0.0,0.0,0.0,0.0,0.0,0.0,0.0,0.0,0.0,0.0,0.0,0.0,0.0,0.0,0.0,0.0,0.0,0.0,0.0,0.0,0.0,0.0,0.0,0.0,0.0,0.0,0.0,0.0,0.0,0.0,0.0,0.0,0.0,0.0,0.0,0.0,0.0,0.0,0.0,0.0,0.0,0.0,0.0,0.0,0.0,0.0,0.0,0.0,0.0,0.0,0.0,0.0,0.0,0.0,0.0,0.0,0.0,0.0,0.0,0.0,0.0,0.0,0.0,0.0,0.0,0.0,0.0,0.0,0.0,0.0,0.0,0.0,0.0,0.0,0.0,0.0,0.0,0.0,0.0,0.0,0.0,0.0,0.0,0.0,0.0,0.0,0.0,0.0,0.0,0.0,0.0,0.0,0.0,0.0,0.0,0.0,0.0,0.0,0.0,0.0,0.0,0.0,0.0,0.0,0.0,0.0,0.0,0.0,0.0,0.0,0.0,0.0,0.0,0.0,0.0,0.0,0.0,0.0,0.0,0.0,0.0,0.0,0.0,0.0,0.0,0.0,0.0,0.0,0.0,0.0,0.0,0.0,0.0,0.0,0.0,0.0,0.0,0.0,0.0,0.0,0.0,0.0,0.0,0.0,0.0,0.0,0.0,0.0,0.0,0.0,0.0,0.0,0.0,0.0,0.0,0.0,0.0,0.0,0.0,0.0,0.0,0.0,0.0,0.0,0.0,0.0,0.0,0.0,0.0,0.0,0.0,0.0,0.0,0.0,0.0,0.0,0.0,0.0,0.0,0.0,0.0,0.0,0.0,0.0,0.0,0.0,0.0,0.0,0.0,0.0,0.0,0.0,0.0,0.0,0.0,0.0,0.0,0.0,0.0,0.0,0.0,0.0,0.0,0.0,0.0,0.0,0.0,0.0,0.0,0.0,0.0,0.0,0.0,0.0,0.0,0.0,0.0,0.0,0.0,0.0,0.0,0.0,0.0,0.0,0.0,0.0,0.0,0.0,0.0,0.0,0.0,0.0,0.0,0.0,0.0,0.0,0.0,0.0,0.0,0.0,0.0,0.0,0.0,0.0,0.0,0.0,0.0,0.0,0.0,0.0,0.0,0.0,0.0,0.0,0.0,0.0,0.0,0.0,0.0,0.0,0.0,0.0,0.0,0.0,0.0,0.0,0.0,0.0,0.0,0.0,0.0,0.0,0.0,0.0,0.0,0.0,0.0,0.0,0.0,0.0,0.0,0.0,0.0,0.0,0.0,0.0,0.0,0.0,0.0,0.0,0.0,0.0,0.0,0.0,0.0,0.0,0.0,0.0,0.0,0.0,0.0,0.0,0.0,0.0,0.0,0.0,0.0,0.0,0.0,0.0,0.0,0.0,0.0,0.0,0.0,0.0,0.0,0.0,0.0,0.0,0.0,0.0,0.0,0.0,0.0,0.0,0.0,0.0,0.0,0.0,0.0,0.0,0.0,0.0,0.0,0.0,0.0,0.0,0.0,0.0,0.0,0.0,0.0,0.0,0.0,0.0,0.0,0.0,0.0,0.0,0.0,0.0,0.0,0.0,0.0,0.0,0.0,0.0,0.0,0.0,0.0,0.0,0.0,0.0,0.0,0.0,0.0,0.0,0.0,0.0,0.0,0.0,0.0,0.0,0.0,0.0,0.0,0.0,0.0,0.0,0.0,0.0,0.0,-2.1684,0.0,0.0,0.0,0.0,0.0,0.0,0.0,0.0,0.0,0.0,0.0,0.0,0.0,0.0,0.0,0.0,0.0,0.0,0.0,0.0,0.0,0.0,0.0,0.0,0.0,0.0,0.0,0.0,0.0,0.0,0.0,0.0,0.0,0.0,0.0,0.0,0.0,0.0,0.0,0.0,0.0,0.0,0.0,0.0,0.0,0.0,0.0,0.0,0.0,0.0,0.0,0.0,0.0,0.0,0.0,0.0,0.0,0.0,0.0,0.0,0.0,0.0,0.0,0.0,0.0,0.0,0.0,0.0,0.0,0.0,0.0,0.0,0.0,0.0,0.0,0.0,0.0,0.0,0.0,0.0,0.0,0.0,0.0,0.0,0.0,0.0,0.0,0.0,0.0,0.0,0.0,0.0,0.0,0.0,0.0,0.0,0.0,0.0,0.0,0.0,0.0,0.0,0.0,0.0,0.0,0.0,0.0,0.0,0.0,0.0,-2.3061,-2.3357,-2.367,-2.3786,-2.3678,0.0,0.0,0.0,0.0,0.0,0.0,0.0,0.0,0.0,0.0,0.0,0.0,0.0,0.0,0.0,0.0,0.0,0.0,0.0,0.0,0.0,0.0,0.0,0.0,0.0,0.0,0.0,0.0,0.0,0.0,0.0,0.0,0.0,0.0,0.0,0.0,0.0,0.0,0.0,0.0,0.0,0.0,0.0,0.0,0.0,0.0,0.0,0.0,0.0,0.0,0.0,0.0,0.0,0.0,0.0,0.0,0.0,0.0,0.0,0.0,0.0,0.0,0.0,0.0,0.0,0.0,0.0,0.0,0.0,0.0,0.0,0.0,0.0,0.0,0.0,0.0,0.0,0.0,0.0,0.0,0.0,0.0,0.0,0.0,0.0,0.0,0.0,0.0,0.0,0.0,0.0,0.0,0.0,0.0,0.0,0.0,0.0,0.0,0.0,0.0,0.0,0.0,0.0,0.0,0.0,0.0,0.0,0.0,0.0,0.0,0.0,0.0,-2.5503,-2.5577,-2.5433,0.0,0.0,0.0,0.0,0.0,0.0,0.0,0.0,0.0,0.0,0.0,0.0,0.0,0.0,0.0,0.0,0.0,0.0,0.0,0.0,0.0,0.0,0.0,0.0,0.0,0.0,0.0,0.0,0.0,0.0,0.0,0.0,0.0,0.0,0.0,0.0,0.0,0.0,0.0,0.0,0.0,0.0,0.0,0.0,0.0,0.0,0.0,0.0,0.0,0.0,0.0,0.0,0.0,0.0,0.0,0.0,0.0,0.0,0.0,0.0,0.0,0.0,0.0,0.0,0.0,0.0,0.0,0.0,0.0,0.0,0.0,0.0,0.0,0.0,0.0,0.0,0.0,0.0,0.0,0.0,0.0,0.0,0.0,0.0,0.0,0.0,0.0,0.0,0.0,0.0,0.0,0.0,0.0,0.0,0.0,0.0,0.0,0.0,0.0,0.0,0.0,0.0,0.0,0.0,0.0,0.0,0.0,0.0,0.0,0.0,-2.5822,-2.6162,-2.6334,0.0,-2.6208,0.0,0.0,0.0,0.0,0.0,0.0,0.0,0.0,0.0,0.0,0.0,0.0,0.0,0.0,0.0,0.0,0.0,0.0,0.0,0.0,0.0,0.0,0.0,0.0,0.0,0.0,0.0,0.0,0.0,0.0,0.0,0.0,0.0,0.0,0.0,0.0,0.0,0.0,0.0,0.0,0.0,0.0,0.0,0.0,0.0,0.0,0.0,0.0,0.0,0.0,0.0,0.0,0.0,0.0,0.0,0.0,0.0,0.0,0.0,0.0,0.0,0.0,0.0,0.0,0.0,0.0,0.0,0.0,0.0,0.0,0.0,0.0,0.0,0.0,0.0,0.0,0.0,0.0,0.0,0.0,0.0,0.0,0.0,0.0,0.0,0.0,0.0,0.0,0.0,0.0,0.0,0.0,0.0,0.0,0.0,0.0,0.0,0.0,0.0,0.0,0.0,0.0,0.0,0.0,0.0,0.0,0.0,0.0,0.0,0.0,-2.6721,-2.7043,-2.7158,-2.7098,0.0,0.0,0.0,0.0,0.0,0.0,0.0,0.0,0.0,0.0,0.0,0.0,0.0,0.0,0.0,0.0,0.0,0.0,0.0,0.0,0.0,0.0,0.0,0.0,0.0,0.0,0.0,0.0,0.0,0.0,0.0,0.0,0.0,0.0,0.0,0.0,0.0,0.0,0.0,0.0,0.0,0.0,0.0,0.0,0.0,0.0,0.0,0.0,0.0,0.0,0.0,0.0,0.0,0.0,0.0,0.0,0.0,0.0,0.0,0.0,0.0,0.0,0.0,0.0,0.0,0.0,0.0,0.0,0.0,0.0,0.0,0.0,0.0,0.0,0.0,0.0,0.0,0.0,0.0,0.0,0.0,0.0,0.0,0.0,0.0,0.0,0.0,0.0,0.0,0.0,0.0,0.0,0.0,0.0,0.0,0.0,0.0,0.0,0.0,0.0,0.0,0.0,0.0,0.0,0.0,0.0,0.0,0.0,0.0,0.0,-2.7872,-2.824,-2.8539,-2.8603,-2.8505,-2.8189,0.0,0.0,0.0,0.0,0.0,0.0,0.0,0.0,0.0,0.0,0.0,0.0,0.0,0.0,0.0,0.0,0.0,0.0,0.0,0.0,0.0,0.0,0.0,0.0,0.0,0.0,0.0,0.0,0.0,0.0,0.0,0.0,0.0,0.0,0.0,0.0,0.0,0.0,0.0,0.0,0.0,0.0,0.0,0.0,0.0,0.0,0.0,0.0,0.0,0.0,0.0,0.0,0.0,0.0,0.0,0.0,0.0,0.0,0.0,0.0,0.0,0.0,0.0,0.0,0.0,0.0,0.0,0.0,0.0,0.0,0.0,0.0,0.0,0.0,0.0,0.0,0.0,0.0,0.0,0.0,0.0,0.0,0.0,0.0,0.0,0.0,0.0,0.0,0.0,0.0,0.0,0.0,0.0,0.0,0.0,0.0,0.0,0.0,0.0,0.0,0.0,0.0,0.0,0.0,0.0,0.0,0.0,0.0,-2.9677,-3.0261,-3.0667,-3.0883,-3.0937,-3.0749,0.0,0.0,0.0,0.0,0.0,0.0,0.0,0.0,0.0,0.0,0.0,0.0,0.0,0.0,0.0,0.0,0.0,0.0,0.0,0.0,0.0,0.0,0.0,0.0,0.0,0.0,0.0,0.0,0.0,0.0,0.0,0.0,0.0,0.0,0.0,0.0,0.0,0.0,0.0,0.0,0.0,0.0,0.0,0.0,0.0,0.0,0.0,0.0,0.0,0.0,0.0,0.0,0.0,0.0,0.0,0.0,0.0,0.0,0.0,0.0,0.0,0.0,0.0,0.0,0.0,0.0,0.0,0.0,0.0,0.0,0.0,0.0,0.0,0.0,0.0,0.0,0.0,0.0,0.0,0.0,0.0,0.0,0.0,0.0,0.0,0.0,0.0,0.0,0.0,0.0,0.0,0.0,0.0,0.0,0.0,0.0,0.0,0.0,0.0,0.0,0.0,0.0,0.0,0.0,0.0,0.0,0.0,0.0,0.0,-3.0514,-3.1162,-3.1538,-3.1603,-3.157,-3.1379,0.0,0.0,0.0,0.0,0.0,0.0,0.0,0.0,0.0,0.0,0.0,0.0,0.0,0.0,0.0,0.0,0.0,0.0,0.0,0.0,0.0,0.0,0.0,0.0,0.0,0.0,0.0,0.0,0.0,0.0,0.0,0.0,0.0,0.0,0.0,0.0,0.0,0.0,0.0,0.0,0.0,0.0,0.0,0.0,0.0,0.0,0.0,0.0,0.0,0.0,0.0,0.0,0.0,0.0,0.0,0.0,0.0,0.0,0.0,0.0,0.0,0.0,0.0,0.0,0.0,0.0,0.0,0.0,0.0,0.0,0.0,0.0,0.0,0.0,0.0,0.0,0.0,0.0,0.0,0.0,0.0,0.0,0.0,0.0,0.0,0.0,0.0,0.0,0.0,0.0,0.0,0.0,0.0,0.0,0.0,0.0,0.0,0.0,0.0,0.0,0.0,0.0,0.0,0.0,0.0,0.0,0.0,0.0,0.0,-3.209,0.0,-3.2878,-3.2857,-3.2793,-3.2598,0.0,0.0,0.0,0.0,0.0,0.0,0.0,0.0,0.0,0.0,0.0,0.0,0.0,0.0,0.0,0.0,0.0,0.0,0.0,0.0,0.0,0.0,0.0,0.0,0.0,0.0,0.0,0.0,0.0,0.0,0.0,0.0,0.0,0.0,0.0,0.0,0.0,0.0,0.0,0.0,0.0,0.0,0.0,0.0,0.0,0.0,0.0,0.0,0.0,0.0,0.0,0.0,0.0,0.0,0.0,0.0,0.0,0.0,0.0,0.0,0.0,0.0,0.0,0.0,0.0,0.0,0.0,0.0,0.0,0.0,0.0,0.0,0.0,0.0,0.0,0.0,0.0,0.0,0.0,0.0,0.0,0.0,0.0,0.0,0.0,0.0,0.0,0.0,0.0,0.0,0.0,0.0,0.0,0.0,0.0,0.0,0.0,0.0,0.0,0.0,0.0,0.0,0.0,0.0,0.0,0.0,0.0,0.0,-3.3038,-3.4598,-3.4775,-3.4793,-3.487,-3.4679,-3.4532,0.0,0.0,0.0,0.0,0.0,0.0,0.0,0.0,0.0,0.0,0.0,0.0,0.0,0.0,0.0,0.0,0.0,0.0,0.0,0.0,0.0,0.0,0.0,0.0,0.0,0.0,0.0,0.0,0.0,0.0,0.0,0.0,0.0,0.0,0.0,0.0,0.0,0.0,0.0,0.0,0.0,0.0,0.0,0.0,0.0,0.0,0.0,0.0,0.0,0.0,0.0,0.0,0.0,0.0,0.0,0.0,0.0,0.0,0.0,0.0,0.0,0.0,0.0,0.0,0.0,0.0,0.0,0.0,0.0,0.0,0.0,0.0,0.0,0.0,0.0,0.0,0.0,0.0,0.0,0.0,0.0,0.0,0.0,0.0,0.0,0.0,0.0,0.0,0.0,0.0,0.0,0.0,0.0,0.0,0.0,0.0,0.0,0.0,0.0,0.0,0.0,0.0,0.0,0.0,0.0,0.0,0.0,0.0,0.0,-3.5049,-3.5168,-3.5219,-3.5171,-3.5034,-3.4832,0.0,0.0,0.0,0.0,0.0,0.0,0.0,0.0,0.0,0.0,0.0,0.0,0.0,0.0,0.0,0.0,0.0,0.0,0.0,0.0,0.0,0.0,0.0,0.0,0.0,0.0,0.0,0.0,0.0,0.0,0.0,0.0,0.0,0.0,0.0,0.0,0.0,0.0,0.0,0.0,0.0,0.0,0.0,0.0,0.0,0.0,0.0,0.0,0.0,0.0,0.0,0.0,0.0,0.0,0.0,0.0,0.0,0.0,0.0,0.0,0.0,0.0,0.0,0.0,0.0,0.0,0.0,0.0,0.0,0.0,0.0,0.0,0.0,0.0,0.0,0.0,0.0,0.0,0.0,0.0,0.0,0.0,0.0,0.0,0.0,0.0,0.0,0.0,0.0,0.0,0.0,0.0,0.0,0.0,0.0,0.0,0.0,0.0,0.0,0.0,0.0,0.0,0.0,0.0,0.0,0.0,0.0,0.0,0.0,-3.6358,-3.6372,-3.6358,-3.631,-3.5883,-3.5528,-3.5265,0.0,0.0,0.0,0.0,0.0,0.0,0.0,0.0,0.0,0.0,0.0,0.0,0.0,0.0,0.0,0.0,0.0,0.0,0.0,0.0,0.0,0.0,0.0,0.0,0.0,0.0,0.0,0.0,0.0,0.0,0.0,0.0,0.0,0.0,0.0,0.0,0.0,0.0,0.0,0.0,0.0,0.0,0.0,0.0,0.0,0.0,0.0,0.0,0.0,0.0,0.0,0.0,0.0,0.0,0.0,0.0,0.0,0.0,0.0,0.0,0.0,0.0,0.0,0.0,0.0,0.0,0.0,0.0,0.0,0.0,0.0,0.0,0.0,0.0,0.0,0.0,0.0,0.0,0.0,0.0,0.0,0.0,0.0,0.0,0.0,0.0,0.0,0.0,0.0,0.0,0.0,0.0,0.0,0.0,0.0,0.0,0.0,0.0,0.0,0.0,0.0,0.0,0.0,0.0,0.0,0.0,0.0,0.0,-3.8346,-3.8286,-3.8157,-3.7963,-3.7132,-3.6542,0.0,0.0,0.0,0.0,0.0,0.0,0.0,0.0,0.0,0.0,0.0,0.0,0.0,0.0,0.0,0.0,0.0,0.0,0.0,0.0,0.0,0.0,0.0,0.0,0.0,0.0,0.0,0.0,0.0,0.0,0.0,0.0,0.0,0.0,0.0,0.0,0.0,0.0,0.0,0.0,0.0,0.0,0.0,0.0,0.0,0.0,0.0,0.0,0.0,0.0,0.0,0.0,0.0,0.0,0.0,0.0,0.0,0.0,0.0,0.0,0.0,0.0,0.0,0.0,0.0,0.0,0.0,0.0,0.0,0.0,0.0,0.0,0.0,0.0,0.0,0.0,0.0,0.0,0.0,0.0,0.0,0.0,0.0,0.0,0.0,0.0,0.0,0.0,0.0,0.0,0.0,0.0,0.0,0.0,0.0,0.0,0.0,0.0,0.0,0.0,0.0,0.0,0.0,0.0,0.0,0.0,0.0,0.0,0.0,-4.0148,-4.0142,-3.9463,-3.8125,-3.7752,-3.7433,0.0,0.0,0.0,0.0,0.0,0.0,0.0,0.0,0.0,0.0,0.0,0.0,0.0,0.0,0.0,0.0,0.0,0.0,0.0,0.0,0.0,0.0,0.0,0.0,0.0,0.0,0.0,0.0,0.0,0.0,0.0,0.0,0.0,0.0,0.0,0.0,0.0,0.0,0.0,0.0,0.0,0.0,0.0,0.0,0.0,0.0,0.0,0.0,0.0,0.0,0.0,0.0,0.0,0.0,0.0,0.0,0.0,0.0,0.0,0.0,0.0,0.0,0.0,0.0,0.0,0.0,0.0,0.0,0.0,0.0,0.0,0.0,0.0,0.0,0.0,0.0,0.0,0.0,0.0,0.0,0.0,0.0,0.0,0.0,0.0,0.0,0.0,0.0,0.0,0.0,0.0,0.0,0.0,0.0,0.0,0.0,0.0,0.0,0.0,0.0,0.0,0.0,0.0,0.0,0.0,0.0,0.0,0.0,-4.0266,-4.0848,-4.0834,-4.0304,-3.9213,-3.8724,-3.8328,0.0,0.0,0.0,0.0,0.0,0.0,0.0,0.0,0.0,0.0,0.0,0.0,0.0,0.0,0.0,0.0,0.0,0.0,0.0,0.0,0.0,0.0,0.0,0.0,0.0,0.0,0.0,0.0,0.0,0.0,0.0,0.0,0.0,0.0,0.0,0.0,0.0,0.0,0.0,0.0,0.0,0.0,0.0,0.0,0.0,0.0,0.0,0.0,0.0,0.0,0.0,0.0,0.0,0.0,0.0,0.0,0.0,0.0,0.0,0.0,0.0,0.0,0.0,0.0,0.0,0.0,0.0,0.0,0.0,0.0,0.0,0.0,0.0,0.0,0.0,0.0,0.0,0.0,0.0,0.0,0.0,0.0,0.0,0.0,0.0,0.0,0.0,0.0,0.0,0.0,0.0,0.0,0.0,0.0,0.0,0.0,0.0,0.0,0.0,0.0,0.0,0.0,0.0,0.0,0.0,0.0,0.0,0.0,-4.0804,-4.0807,-4.0807,-4.0781,-4.0681,-3.9798,-3.9205,0.0,0.0,0.0,0.0,0.0,0.0,0.0,0.0,0.0,0.0,0.0,0.0,0.0,0.0,0.0,0.0,0.0,0.0,0.0,0.0,0.0,0.0,0.0,0.0,0.0,0.0,0.0,0.0,0.0,0.0,0.0,0.0,0.0,0.0,0.0,0.0,0.0,0.0,0.0,0.0,0.0,0.0,0.0,0.0,0.0,0.0,0.0,0.0,0.0,0.0,0.0,0.0,0.0,0.0,0.0,0.0,0.0,0.0,0.0,0.0,0.0,0.0,0.0,0.0,0.0,0.0,0.0,0.0,0.0,0.0,0.0,0.0,0.0,0.0,0.0,0.0,0.0,0.0,0.0,0.0,0.0,0.0,0.0,0.0,0.0,0.0,0.0,0.0,0.0,0.0,0.0,0.0,0.0,0.0,0.0,0.0,0.0,0.0,0.0,0.0,0.0,0.0,0.0,0.0,0.0,0.0,0.0,0.0,-4.0826,-4.0897,-4.0834,-4.0745,-4.0621,-4.0312,-4.0017,0.0,0.0,0.0,0.0,0.0,0.0,0.0,0.0,0.0,0.0,0.0,0.0,0.0,0.0,0.0,0.0,0.0,0.0,0.0,0.0,0.0,0.0,0.0,0.0,0.0,0.0,0.0,0.0,0.0,0.0,0.0,0.0,0.0,0.0,0.0,0.0,0.0,0.0,0.0,0.0,0.0,0.0,0.0,0.0,0.0,0.0,0.0,0.0,-3.5752,0.0,0.0,0.0,0.0,0.0,0.0,0.0,0.0,0.0,0.0,0.0,0.0,0.0,0.0,0.0,0.0,0.0,0.0,0.0,0.0,0.0,0.0,0.0,0.0,0.0,0.0,0.0,0.0,0.0,0.0,0.0,0.0,0.0,0.0,0.0,0.0,0.0,0.0,0.0,0.0,0.0,0.0,0.0,0.0,0.0,0.0,0.0,0.0,0.0,0.0,0.0,0.0,0.0,0.0,0.0,0.0,0.0,0.0,0.0,-4.0815,-4.0867,-4.0792,-4.0688,-4.0598,-4.0441,-4.0251,0.0,0.0,0.0,0.0,0.0,0.0,0.0,0.0,0.0,0.0,0.0,0.0,0.0,0.0,0.0,0.0,0.0,0.0,0.0,0.0,0.0,0.0,0.0,0.0,0.0,0.0,0.0,0.0,0.0,0.0,0.0,0.0,0.0,0.0,0.0,0.0,0.0,0.0,0.0,0.0,0.0,0.0,0.0,0.0,0.0,0.0,0.0,0.0,0.0,0.0,0.0,0.0,0.0,0.0,0.0,0.0,0.0,0.0,0.0,0.0,0.0,0.0,0.0,0.0,0.0,0.0,0.0,0.0,0.0,0.0,0.0,0.0,0.0,0.0,0.0,0.0,0.0,0.0,0.0,0.0,0.0,0.0,0.0,0.0,0.0,0.0,0.0,0.0,0.0,0.0,0.0,0.0,0.0,0.0,0.0,0.0,0.0,0.0,0.0,0.0,0.0,0.0,0.0,0.0,0.0,0.0,0.0,-4.1129,-4.118,-4.1172,-4.0989,-4.0841,-4.0766,-4.0569,-4.0311,-3.9975,0.0,0.0,0.0,0.0,0.0,0.0,0.0,0.0,0.0,0.0,0.0,0.0,0.0,0.0,0.0,0.0,0.0,0.0,0.0,0.0,0.0,0.0,0.0,0.0,0.0,0.0,0.0,0.0,0.0,0.0,0.0,0.0,0.0,0.0,0.0,0.0,0.0,0.0,-3.7353,-3.7898,0.0,0.0,0.0,0.0,0.0,0.0,0.0,0.0,-3.7418,0.0,0.0,0.0,0.0,0.0,0.0,0.0,0.0,0.0,0.0,0.0,0.0,0.0,0.0,0.0,0.0,0.0,0.0,0.0,0.0,0.0,0.0,0.0,0.0,0.0,0.0,0.0,0.0,0.0,0.0,0.0,0.0,0.0,0.0,0.0,0.0,0.0,0.0,0.0,0.0,0.0,0.0,0.0,0.0,0.0,0.0,0.0,0.0,0.0,0.0,0.0,0.0,0.0,0.0,0.0,0.0,-4.1809,-4.2531,-4.2879,-4.2873,-4.211,-4.1639,-4.1514,-4.1322,-4.0783,-3.9886,0.0,0.0,0.0,0.0,0.0,0.0,0.0,0.0,0.0,0.0,0.0,0.0,0.0,0.0,0.0,0.0,0.0,0.0,0.0,0.0,0.0,0.0,0.0,0.0,0.0,0.0,0.0,0.0,0.0,0.0,0.0,0.0,0.0,0.0,0.0,0.0,0.0,0.0,0.0,-3.986,-4.035,0.0,0.0,0.0,0.0,0.0,0.0,0.0,0.0,-3.9206,0.0,0.0,0.0,0.0,0.0,0.0,0.0,0.0,0.0,0.0,0.0,0.0,0.0,0.0,0.0,0.0,0.0,0.0,0.0,0.0,0.0,0.0,0.0,0.0,0.0,0.0,0.0,0.0,0.0,0.0,0.0,0.0,0.0,0.0,0.0,0.0,0.0,0.0,0.0,0.0,0.0,0.0,0.0,0.0,0.0,0.0,0.0,0.0,0.0,0.0,0.0,0.0,0.0,0.0,0.0,-4.2048,-4.2854,-4.3299,-4.3305,-4.2797,-4.2464,-4.233,-4.2125,-4.1537,0.0,0.0,0.0,0.0,0.0,0.0,0.0,0.0,0.0,0.0,0.0,0.0,0.0,0.0,0.0,0.0,0.0,0.0,0.0,0.0,0.0,0.0,0.0,0.0,0.0,0.0,0.0,0.0,0.0,0.0,0.0,0.0,0.0,0.0,0.0,0.0,0.0,0.0,0.0,0.0,-4.0983,-4.13,-4.129,0.0,0.0,0.0,0.0,0.0,0.0,-4.0468,-4.0087,0.0,0.0,0.0,0.0,0.0,0.0,0.0,0.0,0.0,0.0,0.0,0.0,0.0,0.0,0.0,0.0,0.0,0.0,0.0,0.0,0.0,0.0,0.0,0.0,0.0,0.0,0.0,0.0,0.0,0.0,0.0,0.0,0.0,0.0,0.0,0.0,0.0,0.0,0.0,0.0,0.0,0.0,0.0,0.0,0.0,0.0,0.0,0.0,0.0,0.0,0.0,0.0,0.0,0.0,0.0,-4.2537,-4.3369,-4.3794,-4.3766,-4.347,-4.3263,-4.312,-4.2923,-4.2325,0.0,0.0,0.0,0.0,0.0,0.0,0.0,0.0,0.0,0.0,0.0,0.0,0.0,0.0,0.0,0.0,0.0,0.0,0.0,0.0,0.0,0.0,0.0,0.0,0.0,0.0,0.0,0.0,0.0,0.0,0.0,0.0,0.0,0.0,0.0,0.0,0.0,0.0,0.0,0.0,0.0,-4.1884,-4.1991,-4.2017,0.0,0.0,0.0,0.0,-4.1736,-4.1138,0.0,0.0,0.0,0.0,0.0,0.0,0.0,0.0,0.0,0.0,0.0,0.0,0.0,0.0,0.0,0.0,0.0,0.0,0.0,0.0,0.0,0.0,0.0,0.0,0.0,0.0,0.0,0.0,0.0,0.0,0.0,0.0,0.0,0.0,0.0,0.0,0.0,0.0,0.0,0.0,0.0,0.0,0.0,0.0,0.0,0.0,0.0,0.0,0.0,0.0,0.0,0.0,0.0,0.0,0.0,0.0,-4.4254,-4.5066,-4.5461,-4.5321,-4.4489,-4.4,-4.3884,-4.3697,-4.3052,0.0,0.0,0.0,0.0,0.0,0.0,0.0,0.0,0.0,0.0,0.0,0.0,0.0,0.0,0.0,0.0,0.0,0.0,0.0,0.0,0.0,0.0,0.0,0.0,0.0,0.0,0.0,0.0,0.0,0.0,0.0,0.0,0.0,0.0,0.0,0.0,0.0,0.0,0.0,0.0,0.0,-4.2495,-4.3191,-4.3298,-4.3237,0.0,0.0,-4.3041,-4.3518,-4.219,0.0,0.0,0.0,0.0,0.0,0.0,0.0,0.0,0.0,0.0,0.0,0.0,0.0,0.0,0.0,0.0,0.0,0.0,0.0,0.0,0.0,0.0,0.0,0.0,0.0,0.0,0.0,0.0,0.0,0.0,0.0,0.0,0.0,0.0,0.0,0.0,0.0,0.0,0.0,0.0,0.0,0.0,0.0,0.0,0.0,0.0,0.0,0.0,0.0,0.0,0.0,0.0,0.0,0.0,0.0,-4.4295,-4.4469,-4.5275,-4.5668,-4.5582,-4.5092,-4.4766,-4.4639,-4.4393,-4.375,0.0,0.0,0.0,0.0,0.0,0.0,0.0,0.0,0.0,0.0,0.0,0.0,0.0,0.0,0.0,0.0,0.0,0.0,0.0,0.0,0.0,0.0,0.0,0.0,0.0,0.0,0.0,0.0,0.0,0.0,0.0,0.0,0.0,0.0,0.0,0.0,0.0,0.0,0.0,0.0,0.0,0.0,-4.4471,-4.4584,0.0,0.0,0.0,-4.4128,-4.4307,0.0,0.0,0.0,0.0,0.0,0.0,0.0,0.0,0.0,0.0,0.0,0.0,0.0,0.0,0.0,0.0,0.0,0.0,0.0,0.0,0.0,0.0,0.0,0.0,0.0,0.0,0.0,0.0,0.0,0.0,0.0,0.0,0.0,0.0,0.0,0.0,0.0,0.0,0.0,0.0,0.0,0.0,0.0,0.0,0.0,0.0,0.0,0.0,0.0,0.0,0.0,0.0,0.0,0.0,0.0,0.0,0.0,-4.4677,-4.5255,-4.5565,-4.5532,-4.5361,-4.5197,-4.5014,-4.477,0.0,0.0,0.0,0.0,0.0,0.0,0.0,0.0,0.0,0.0,0.0,0.0,0.0,0.0,0.0,0.0,0.0,0.0,0.0,0.0,0.0,0.0,0.0,0.0,0.0,0.0,0.0,-3.676,0.0,0.0,0.0,0.0,0.0,0.0,0.0,0.0,0.0,0.0,0.0,0.0,0.0,0.0,-4.5619,-4.5703,-4.5818,-4.5797,0.0,0.0,-4.524,-4.5239,-4.4609,-4.405,0.0,0.0,0.0,0.0,0.0,0.0,0.0,0.0,0.0,0.0,0.0,0.0,0.0,0.0,0.0,0.0,0.0,0.0,0.0,0.0,0.0,0.0,0.0,0.0,0.0,0.0,0.0,0.0,0.0,0.0,0.0,0.0,0.0,0.0,0.0,0.0,0.0,0.0,0.0,0.0,0.0,0.0,0.0,0.0,0.0,0.0,0.0,0.0,0.0,0.0,0.0,0.0,0.0,0.0,-4.5361,-4.5436,-4.5494,-4.5438,-4.5322,-4.5258,-4.5103,-4.4821,-4.4613,-4.4327,0.0,0.0,0.0,0.0,0.0,0.0,0.0,0.0,0.0,0.0,0.0,0.0,0.0,0.0,0.0,0.0,0.0,0.0,0.0,0.0,0.0,0.0,0.0,0.0,0.0,0.0,0.0,0.0,0.0,0.0,0.0,0.0,0.0,0.0,0.0,0.0,0.0,0.0,0.0,0.0,0.0,-4.6104,-4.6779,-4.6888,-4.6791,0.0,-4.6413,-4.6483,-4.6802,-4.5606,-4.4965,-4.5862,0.0,0.0,0.0,0.0,0.0,0.0,0.0,0.0,0.0,0.0,0.0,0.0,0.0,0.0,0.0,0.0,0.0,0.0,0.0,0.0,0.0,0.0,0.0,0.0,0.0,0.0,0.0,0.0,0.0,0.0,0.0,0.0,0.0,0.0,0.0,0.0,0.0,0.0,0.0,0.0,0.0,0.0,0.0,0.0,0.0,0.0,0.0,0.0,0.0,0.0,0.0,0.0,0.0,-4.536,-4.538,-4.538,-4.53,-4.5194,-4.5038,-4.4865,-4.4613,-4.4335,-4.4017,0.0,0.0,0.0,0.0,0.0,0.0,0.0,0.0,0.0,0.0,0.0,0.0,0.0,0.0,0.0,0.0,0.0,0.0,0.0,0.0,0.0,0.0,0.0,0.0,0.0,0.0,0.0,0.0,-4.076,-4.16,-4.2106,0.0,0.0,0.0,0.0,0.0,0.0,0.0,0.0,0.0,0.0,-4.7666,-4.7942,-4.7941,0.0,0.0,-4.7438,-4.7324,-4.7432,-4.6659,-4.6239,-4.6642,-4.6152,0.0,0.0,0.0,0.0,0.0,0.0,0.0,0.0,0.0,0.0,0.0,0.0,0.0,0.0,0.0,0.0,0.0,0.0,0.0,0.0,0.0,0.0,0.0,0.0,0.0,0.0,0.0,0.0,0.0,0.0,0.0,0.0,0.0,0.0,0.0,0.0,0.0,0.0,0.0,0.0,0.0,0.0,0.0,0.0,0.0,0.0,0.0,0.0,0.0,0.0,0.0,0.0,-4.5233,-4.5233,-4.5233,-4.5167,-4.4986,-4.4815,-4.4587,-4.4383,-4.4036,-4.3682,0.0,0.0,0.0,0.0,0.0,0.0,0.0,0.0,0.0,0.0,0.0,0.0,0.0,0.0,0.0,0.0,0.0,0.0,0.0,0.0,0.0,0.0,0.0,0.0,0.0,0.0,0.0,0.0,-4.2068,-4.2954,-4.3432,0.0,0.0,0.0,0.0,0.0,0.0,0.0,0.0,0.0,0.0,-4.8714,-4.8678,-4.8569,-4.8476,-4.8306,-4.8035,-4.7811,-4.7681,-4.7338,-4.707,-4.698,0.0,0.0,0.0,0.0,0.0,0.0,0.0,0.0,0.0,0.0,0.0,0.0,0.0,0.0,0.0,0.0,0.0,0.0,0.0,0.0,0.0,0.0,0.0,0.0,0.0,0.0,0.0,0.0,0.0,0.0,-3.5975,0.0,0.0,0.0,0.0,0.0,0.0,0.0,0.0,0.0,0.0,0.0,0.0,0.0,0.0,0.0,0.0,0.0,0.0,0.0,0.0,0.0,0.0,-4.4991,-4.501,-4.4991,-4.4895,-4.4712,-4.4578,-4.4335,-4.4036,-4.3682,-4.3304,-4.292,0.0,0.0,0.0,0.0,0.0,0.0,0.0,0.0,0.0,0.0,0.0,0.0,0.0,0.0,0.0,0.0,0.0,0.0,0.0,0.0,0.0,0.0,0.0,0.0,0.0,0.0,-4.2109,-4.3457,-4.44,0.0,0.0,0.0,0.0,0.0,0.0,0.0,0.0,0.0,-4.89,-4.8993,-4.9015,-4.8822,-4.8697,-4.8532,-4.8326,-4.8151,-4.7929,-4.7759,-4.745,-4.7214,0.0,0.0,0.0,0.0,0.0,0.0,0.0,0.0,0.0,0.0,0.0,0.0,0.0,0.0,0.0,0.0,0.0,0.0,0.0,0.0,0.0,0.0,0.0,0.0,0.0,0.0,0.0,-3.5756,-3.5888,0.0,0.0,0.0,0.0,0.0,0.0,0.0,0.0,0.0,0.0,0.0,-3.6276,-3.6561,0.0,0.0,0.0,0.0,0.0,0.0,0.0,0.0,0.0,0.0,0.0,0.0,-4.4789,-4.4738,-4.477,-4.4648,-4.4383,-4.4248,-4.3986,-4.3682,-4.3286,-4.2806,-4.2169,0.0,0.0,0.0,0.0,0.0,0.0,0.0,0.0,0.0,0.0,0.0,0.0,0.0,0.0,0.0,0.0,0.0,0.0,0.0,0.0,0.0,0.0,0.0,0.0,0.0,-4.2462,0.0,0.0,0.0,0.0,0.0,0.0,0.0,0.0,0.0,0.0,0.0,-4.9146,-4.9164,-4.9116,-4.9068,-4.9033,-4.8768,-4.8587,0.0,0.0,0.0,0.0,0.0,0.0,0.0,0.0,0.0,0.0,0.0,0.0,0.0,0.0,-4.6023,-4.5821,-4.5662,-4.5588,-4.5588,0.0,0.0,0.0,0.0,0.0,0.0,0.0,0.0,0.0,0.0,0.0,0.0,0.0,0.0,-3.5993,0.0,-3.6105,0.0,0.0,0.0,0.0,0.0,0.0,0.0,0.0,-3.6284,-3.6284,-3.6284,-3.6544,-3.6963,0.0,-3.8448,-3.9544,0.0,0.0,0.0,0.0,0.0,0.0,0.0,0.0,-4.4532,-4.4477,-4.4486,-4.4355,-4.4042,-4.3905,-4.3697,-4.3321,-4.2826,-4.2167,-4.1349,-3.9765,-3.8703,0.0,0.0,0.0,0.0,0.0,0.0,0.0,0.0,0.0,0.0,0.0,0.0,0.0,0.0,0.0,0.0,0.0,0.0,0.0,0.0,0.0,0.0,0.0,-4.3284,0.0,0.0,0.0,0.0,0.0,0.0,0.0,0.0,0.0,-4.915,-4.9225,-4.9281,-4.9286,-4.9202,-4.9116,-4.9049,0.0,0.0,0.0,0.0,0.0,0.0,0.0,-4.732,-4.732,-4.6989,-4.6731,-4.6542,-4.6368,-4.6189,-4.6189,0.0,0.0,-4.5972,-4.6023,-4.609,-4.6073,-4.6122,-4.6189,-4.6189,-4.5624,-4.5115,0.0,0.0,0.0,0.0,0.0,0.0,0.0,0.0,-3.637,-3.6182,0.0,-3.6259,0.0,0.0,0.0,0.0,0.0,-3.6284,0.0,0.0,-3.6284,-3.6301,-3.6301,-3.6444,-3.7349,-3.8885,-3.9133,-4.0217,-4.1872,-4.1897,0.0,0.0,0.0,0.0,0.0,0.0,-4.4192,-4.4192,-4.4192,-4.4011,-4.3712,-4.3612,-4.3373,-4.2922,-4.2221,-4.14,-4.0463,-3.9224,-3.8215,-3.7525,-3.6403,0.0,0.0,0.0,0.0,0.0,0.0,0.0,0.0,0.0,0.0,0.0,0.0,0.0,0.0,0.0,0.0,0.0,0.0,0.0,0.0,-4.3032,0.0,0.0,0.0,0.0,0.0,0.0,0.0,0.0,0.0,0.0,-4.9233,-4.9371,-4.9427,-4.923,0.0,0.0,0.0,0.0,-4.8569,-4.8569,-4.8249,-4.7992,-4.7992,-4.7603,-4.732,-4.732,0.0,0.0,-4.6447,-4.6284,-4.6119,-4.6137,-4.6119,-4.6137,-4.6119,-4.6137,-4.6172,-4.6189,-4.6189,-4.6189,-4.6137,-4.5624,-4.5115,-4.0502,0.0,0.0,0.0,0.0,-3.8021,-3.7238,-3.6106,-3.6078,-3.6122,-3.6208,-3.6276,0.0,0.0,0.0,0.0,0.0,0.0,-3.6276,-3.6251,-3.6208,-3.6251,-3.6251,-3.6318,-3.6686,-3.728,-3.8636,-3.9581,-4.0123,-4.1502,-4.2366,-4.2759,0.0,0.0,0.0,0.0,-4.3841,-4.3841,-4.3841,-4.3712,-4.3408,-4.3249,-4.2612,-4.1453,-4.112,-4.0324,-3.9163,-3.8198,-3.7521,-3.7137,-3.627,0.0,0.0,0.0,0.0,0.0,0.0,0.0,0.0,0.0,0.0,0.0,0.0,0.0,0.0,0.0,0.0,0.0,0.0,0.0,-4.3196,-4.3356,-4.4118,0.0,0.0,0.0,0.0,0.0,0.0,0.0,0.0,0.0,-4.9421,-4.944,-4.9459,0.0,0.0,-4.9164,-4.9049,-4.8804,-4.8569,-4.8569,-4.8249,0.0,-4.7992,-4.7603,-4.732,-4.732,-4.6944,-4.659,-4.6429,-4.5862,-4.5431,-4.5431,-4.5414,-4.5431,-4.5449,-4.587,-4.6154,-4.6189,-4.6189,-4.6189,-4.6154,-4.5624,-4.5098,-4.0185,-3.9961,-3.9846,-3.9255,-3.8294,-3.7733,-3.7017,-3.6242,-3.6068,-3.6062,-3.6122,-3.6148,-3.6191,-3.6174,-3.6174,0.0,0.0,0.0,-3.6148,-3.6122,-3.6122,-3.6105,-3.6122,-3.6148,-3.6448,-3.6963,-3.8042,-3.8978,-3.9803,-4.099,-4.1966,-4.2616,0.0,0.0,-4.3477,-4.3495,-4.3511,-4.3526,-4.3511,-4.3391,-4.3178,-4.2574,-4.1611,-4.0359,-4.0074,-3.9425,-3.8286,-3.7627,-3.7117,-3.671,-3.6161,-3.5888,0.0,0.0,0.0,0.0,0.0,0.0,0.0,0.0,0.0,0.0,0.0,-3.9687,-4.0737,0.0,0.0,0.0,-4.2902,-4.3178,-4.3513,-4.3615,0.0,0.0,0.0,0.0,0.0,0.0,0.0,-4.8964,-4.9302,-4.9509,-4.9509,-4.9459,-4.939,-4.9239,-4.9211,-4.9052,-4.8587,0.0,-4.844,-4.8053,-4.7752,-4.7536,-4.7496,-4.6855,-4.636,-4.6229,-4.5899,-4.5623,-4.5494,-4.5,-4.4641,-4.4624,-4.4624,-4.4624,-4.4624,-4.501,-4.5431,-4.5712,-4.5782,-4.5694,-4.5396,-4.4711,-4.4202,-3.949,-3.9272,-3.9095,-3.8965,-3.8684,-3.7471,-3.6825,-3.6769,-3.6239,-3.5975,-3.5975,-3.5958,-3.6036,-3.6036,-3.6036,0.0,-3.6036,-3.6036,-3.5975,-3.5975,-3.5975,-3.5993,-3.5975,-3.5993,-3.6482,-3.737,-3.7456,-3.846,-4.0175,-4.034,-4.0898,-4.1866,-4.2293,-4.2734,-4.3123,-4.3178,-4.316,-4.3194,-4.3087,-4.2941,-4.2663,-4.1576,-4.0468,-3.9417,-3.914,-3.8537,-3.7629,-3.7344,-3.693,-3.6234,-3.6079,-3.6105,-3.6301,0.0,0.0,0.0,0.0,0.0,0.0,0.0,0.0,0.0,0.0,0.0,0.0,0.0,0.0,0.0,-4.3304,0.0,-4.3631,-4.38,0.0,0.0,0.0,-4.6165,-4.7847,-4.8059,-4.8101,-4.8101,0.0,0.0,-4.9302,-4.9171,-4.9051,-4.8917,-4.9011,-4.8688,-4.7636,-4.7994,-4.8053,-4.715,-4.6813,-4.6694,-4.6575,-4.5748,-4.5,-4.4698,-4.4396,-4.435,-4.4177,-4.3944,-4.3834,-4.3799,-4.3816,-4.3816,-4.3769,-4.3857,-4.4067,-4.4734,-4.4975,-4.4799,-4.4103,-4.3401,-4.291,-3.87,-3.8435,-3.7843,-3.7483,-3.728,-3.6971,-3.6463,-3.5921,-3.5841,-3.5861,-3.5861,-3.5932,-3.6036,-3.6036,-3.6036,-3.6036,-3.6036,-3.6036,-3.5932,-3.5844,-3.5861,-3.5844,-3.5861,-3.5844,-3.6034,-3.6414,-3.7111,-3.775,-3.8218,-3.9041,-3.9621,-3.994,-4.0182,-4.1092,-4.2673,-4.2842,-4.2591,-4.2013,-4.1976,-4.1556,-4.0715,-4.021,-3.9411,-3.8362,-3.8203,-3.761,-3.662,-3.6483,-3.6354,-3.6242,-3.6233,-3.6301,-3.6461,-3.6609,0.0,0.0,0.0,0.0,0.0,0.0,0.0,0.0,0.0,-4.0581,-4.2199,0.0,-4.2938,0.0,-4.3463,-4.3649,-4.3814,-4.3883,0.0,0.0,-4.5581,-4.5952,-4.7102,-4.7264,-4.7293,-4.7293,-4.7481,-4.7582,-4.7522,-4.7473,-4.7392,-4.7247,-4.7737,-4.7765,-4.6783,-4.6699,-4.6633,-4.6269,-4.5991,-4.5818,-4.5602,-4.5191,-4.4693,-4.4396,-4.4306,-4.4216,-4.3997,-4.3476,-4.3033,-4.2952,-4.2905,-4.2859,-4.2748,-4.3219,-4.3458,-4.3201,-4.364,-4.4085,-4.378,-4.315,-4.2597,-3.7961,-3.7667,-3.6915,-3.6491,-3.6265,-3.6265,-3.6011,-3.5622,-3.5667,-3.5711,-3.5711,-3.5817,-3.5844,-3.5861,-3.5844,-3.58,-3.5844,-3.5844,-3.5756,-3.5711,-3.5728,-3.5711,-3.5728,-3.5728,-3.5756,-3.5922,-3.6464,-3.7016,-3.7534,-3.8087,-3.8641,-3.9161,-3.9329,-3.9999,-4.11,-4.1354,-4.1274,-4.0881,-4.0825,-4.0295,-3.9295,-3.9084,-3.8536,-3.751,-3.7417,-3.7043,-3.6437,-3.6437,-3.6437,-3.6437,-3.6461,-3.6527,-3.6708,-3.6811,-3.697,0.0,0.0,0.0,0.0,0.0,0.0,0.0,0.0,0.0,0.0,0.0,-4.3251,-4.3569,-4.3667,-4.38,-4.391,-4.3961,-4.4371,-4.5375,-4.5163,-4.5335,-4.6307,-4.643,-4.643,-4.6371,-4.6709,-4.6922,-4.6824,-4.6782,-4.6589,-4.6121,-4.6373,-4.6387,-4.5901,-4.5946,-4.5954,-4.5334,-4.5131,-4.4796,-4.4234,-4.394,-4.365,-4.3367,-4.3297,-4.3191,-4.2914,-4.2507,-4.2118,-4.2072,-4.2009,-4.1963,-4.1888,-4.2166,-4.234,-4.2126,-4.2277,-4.2632,-4.262,-4.2242,-4.1963,-3.7205,-3.6915,-3.6249,-3.5844,-3.5639,-3.5639,-3.5639,-3.5639,-3.5639,-3.5639,-3.5639,-3.5639,-3.5639,-3.5639,-3.5639,-3.5639,-3.5639,-3.5639,-3.5639,-3.5639,-3.5639,-3.5639,-3.5639,-3.5639,-3.5684,-3.5773,-3.579,-3.6334,-3.7292,-3.7353,-3.7811,-3.8651,-3.8881,-3.8947,-3.8989,-3.9252,-3.9544,-3.9807,-3.9566,-3.9036,-3.817,-3.8113,-3.7677,-3.6864,-3.6788,-3.6748,-3.6702,-3.6719,-3.6702,-3.6702,-3.6742,-3.6846,-3.7009,-3.7066,-3.7143,0.0,-3.7521,0.0,0.0,0.0,0.0,0.0,0.0,0.0,0.0,-4.3032,-4.3369,-4.3605,-4.3795,-4.3929,-4.4005,-4.4005,-4.4346,-4.5189,-4.4715,-4.4606,-4.5425,-4.5519,-4.5519,-4.5431,-4.6124,-4.6525,-4.6321,-4.6333,-4.5991,-4.5345,-4.5106,-4.4994,-4.4894,-4.5289,-4.5295,-4.4382,-4.4217,-4.3792,-4.2976,-4.2597,-4.2412,-4.2126,-4.2068,-4.1858,-4.1692,-4.1523,-4.1398,-4.1353,-4.1324,-4.1215,-4.1163,-4.1152,-4.1152,-4.1186,-4.1221,-4.1238,-4.1302,-4.1285,-4.1117,-3.6397,-3.618,-3.6044,-3.5844,-3.5622,-3.5639,-3.5639,-3.5639,-3.5639,-3.5639,-3.5639,-3.5639,-3.5639,-3.5639,-3.5639,-3.5639,-3.5639,-3.5639,-3.5639,-3.5639,-3.5639,-3.5639,-3.5639,-3.5639,-3.5622,-3.5622,-3.5728,-3.5885,-3.6127,-3.6345,-3.6569,-3.6817,-3.6943,-3.7102,-3.7202,0.0,0.0,0.0,-3.8019,-3.7517,-3.7337,-3.7259,-3.7088,-3.6829,-3.6788,0.0,-3.6702,-3.6719,-3.6742,-3.6788,-3.6869,0.0,0.0,0.0,0.0,0.0,0.0,0.0,0.0,0.0,0.0,0.0,-3.9634,-4.0209,-4.1121,-4.2054,-4.2658,-4.2825,-4.3495,-4.3929,-4.4005,-4.4005,-4.411,-4.4401,-4.4367,-4.4371,-4.4568,-4.4645,-4.4607,-4.4557,-4.4707,-4.4771,-4.4766,-4.4661,-4.455,-4.4294,-4.4124,-4.4026,-4.3925,-4.3989,-4.3866,-4.347,-4.321,-4.2907,-4.2627,-4.2369,-4.2181,-4.2012,-4.1902,-4.1736,-4.1515,-4.1426,-4.1353,-4.1215,-4.114,-4.1076,-4.0965,-4.0888,-4.0776,-4.0793,-4.0728,-4.071,-4.1029,-4.1029,-4.0918,-3.6233,0.0,-3.6019,-3.5888,0.0,-3.5622,-3.5639,-3.5639,-3.5639,-3.5639,-3.5639,-3.5639,-3.5639,-3.5639,-3.5639,-3.5639,-3.5639,-3.5639,-3.5639,-3.5639,-3.5639,-3.5639,-3.5639,-3.5639,-3.5639,-3.5622,-3.5684,-3.5728,-3.5817,-3.5949,-3.6062,-3.6148,-3.5956,-3.589,-3.5948,-3.5705,-3.6269,-3.7646,-3.7242,-3.7048,-3.7048,-3.7009,-3.697,-3.6891,-3.6891,0.0,0.0,0.0,0.0,0.0,0.0,0.0,0.0,-3.7317,0.0,-3.7485,-3.7685,-3.781,-3.7899,-3.8038,-3.8303,-3.8753,-3.8922,-3.9564,-4.0836,-4.1507,-4.1889,-4.1957,-4.2823,-4.3398,-4.3429,-4.3745,-4.4055,-4.4184,-4.4244,-4.4274,-4.4285,-4.4344,-4.4314,-4.4255,-4.4244,-4.4214,-4.4135,-4.4073,-4.4011,-4.3897,-4.3786,-4.3667,-4.3548,-4.3497,-4.3358,-4.3087,-4.2786,-4.257,-4.2566,-4.2287,-4.2079,-4.1987,-4.1884,-4.1692,-4.1426,-4.1318,-4.1226,-4.114,-4.1,-4.0905,-4.0793,-4.0697,-4.0583,-4.0583,-4.0534,-4.0534,-4.0793,-4.0745,-4.068,-3.6276,-3.6165,-3.6062,-3.5864,-3.5586,-3.5616,-3.5554,-3.5436,0.0,0.0,0.0,-3.5639,-3.5493,-3.5436,-3.5554,-3.5425,-3.5222,-3.5324,-3.5324,-3.5144,-3.5144,-3.5127,-3.5144,-3.5144,-3.5144,-3.5144,-3.5205,-3.5233,-3.5338,-3.5382,-3.547,-3.5531,-3.5118,-3.4949,-3.4956,-3.4528,-3.4996,-3.626,-3.6449,-3.6527,-3.6527,-3.6527,-3.6527,-3.6566,-3.6566,-3.6566,-3.6622,-3.6566,-3.6584,-3.6566,-3.6682,-3.6796,-3.6889,-3.6966,-3.7057,-3.7166,-3.7362,-3.7451,-3.7467,-3.7657,-3.783,-3.799,-3.8263,-3.9031,-4.0565,-4.0922,-4.1034,-4.0923,-4.1927,-4.2575,-4.2593,-4.315,-4.3608,-4.3707,-4.3867,-4.399,-4.405,-4.421,-4.4274,-4.4184,-4.4184,-4.4135,-4.4023,-4.391,-4.3865,-4.3832,-4.3701,-4.3548,-4.3444,-4.3358,-4.3233,-4.2938,-4.2709,-4.2588,-4.2445,-4.2264,-4.2037,-4.1945,-4.1841,-4.1648,-4.1426,-4.129,-4.1152,-4.1047,-4.0858,-4.0697,-4.0648,-4.0534,-4.0485,-4.0468,-4.0436,-4.0387,-4.0387,-4.037,-4.037,-3.6276,-3.6182,-3.6079,-3.5574,-3.4882,-3.5396,-3.5233,-3.4709,-3.5334,-3.5622,-3.5639,-3.5639,-3.5267,-3.4692,-3.5334,-3.4857,-3.37,-3.429,-3.4162,-3.3453,-3.3453,-3.347,-3.3453,-3.3453,-3.3453,-3.3453,-3.3573,-3.365,-3.3676,-3.3863,-3.3913,-3.3955,-3.3977,-3.4031,-3.4077,-3.4128,-3.4298,-3.4549,-3.47,-3.4777,-3.4756,-3.4739,-3.4815,-3.4856,-3.4874,-3.4911,-3.5021,-3.5039,-3.5021,-3.5021,-3.5206,-3.5314,-3.5332,-3.5456,-3.5508,-3.5543,-3.5699,-3.58,-3.5867,-3.5966,-3.6385,-3.7203,-3.7968,-3.8606,-3.9006,-3.978,-3.9988,-3.9448,-4.0841,-4.1757,-4.1757,-4.1906,-4.2036,-4.2084,-4.2646,-4.3066,-4.3044,-4.3651,-4.4072,-4.3924,-4.4036,-4.3949,-4.3781,-4.3786,-4.3684,-4.3627,-4.3324,-4.3422,-4.3158,-4.3196,-4.3067,-4.286,-4.2688,-4.253,-4.2346,-4.2157,-4.1987,-4.1841,-4.1604,-4.1426,-4.1255,-4.1152,-4.1029,-4.0793,-4.0697,-4.0648,-4.0551,-4.0453,-4.0337,-4.0305,-4.0138,-4.0037,-4.0037,-3.9935,-3.9935,-3.5134,-3.5029,-3.4846,-3.4516,-3.4184,-3.4312,-3.4235,-3.3947,-3.4269,-3.4421,-3.4421,-3.4421,-3.4192,-3.3895,-3.4199,-3.3953,-3.3201,-3.3564,-3.347,-3.3125,-3.3125,-3.3125,-3.3125,-3.3125,-3.3125,-3.3125,-3.3168,-3.3168,-3.3227,-3.3296,-3.3381,-3.3423,-3.3233,-3.2912,-3.2637,-3.2659,-3.2698,-3.2792,-3.3838,-3.4387,-3.4387,-3.4387,-3.4425,-3.4463,-3.4446,-3.4484,-3.4539,-3.4559,-3.4596,-3.4596,-3.4763,-3.4942,-3.4995,-3.5101,-3.5153,-3.5221,-3.5325,-3.5393,-3.5444,-3.5591,-3.5915,-3.6417,-3.6856,-3.7582,-3.8646,-3.9123,-3.9275,-3.9054,-4.0145,-4.0863,-4.0958,-4.133,-4.159,-4.159,-4.1954,-4.214,-4.2166,-4.2474,-4.2783,-4.2686,-4.2686,-4.2674,-4.26,-4.2532,-4.2469,-4.2308,-4.2176,-4.2059,-4.1903,-4.1724,-4.192,-4.2528,-4.2649,-4.249,-4.2228,-4.2115,-4.1945,-4.1841,-4.156,-4.1363,-4.1209,-4.1088,-4.0918,-4.0745,-4.06,-4.0436,-4.0337,-4.0188,-4.0087,-3.9986,-3.9884,-3.9798,-3.9815,-3.9711,-3.9642,-3.4138,-3.4076,-3.3842,-3.3721,-3.3646,-3.3117,-3.3,-3.3136,-3.2983,-3.2916,-3.2908,-3.3212,-3.3254,-3.3051,-3.3203,-3.3,-3.2629,-3.2746,-3.267,-3.2519,-3.2519,-3.2519,-3.2519,-3.2519,-3.2519,-3.2519,-3.2562,-3.2579,-3.2562,-3.2605,-3.2664,-3.2698,-3.2165,-3.1664,-3.1202,-3.1168,-3.1223,-3.1346,-3.2907,-3.3769,-3.379,-3.379,-3.3827,-3.3827,-3.381,-3.3865,-3.3865,-3.3923,-3.3942,-3.3979,-3.4162,-3.4305,-3.4429,-3.4516,-3.4568,-3.4652,-3.4755,-3.484,-3.4873,-3.5199,-3.5467,-3.5574,-3.586,-3.6547,-3.7759,-3.8095,-3.8442,-3.8918,-3.956,-3.9999,-4.0131,-4.0606,-4.1033,-4.1033,-4.1219,-4.133,-4.133,-4.146,-4.159,-4.159,-4.1609,-4.1586,-4.144,-4.136,-4.1341,-4.1232,-4.0943,-4.0773,-4.0669,-4.0528,-4.0924,-4.1659,-4.2031,-4.1823,-4.1629,-4.1428,-4.1283,-4.1208,-4.0937,-4.0672,-4.0537,-4.0377,-4.038,-4.0254,-4.0114,-4.0034,-4.0003,-3.9935,-3.9833,-3.9781,-3.9677,-3.9642,-3.9554,-3.9465,-3.9395,-3.4159,-3.4076,-3.3888,-3.3778,-3.3386,-3.2026,-3.1799,-3.2273,-3.1715,-3.1297,-3.1436,-3.2664,-3.285,-3.2362,-3.2815,-3.2328,-3.1116,-3.1591,-3.1515,-3.0866,-3.0725,-3.0725,-3.08,-3.075,-3.0709,-3.0767,-3.085,-3.0891,-3.0949,-3.1031,-3.1113,-3.1029,-3.0392,-3.014,-3.0192,-3.0213,-3.0326,-3.0509,-3.1333,-3.1781,-3.186,-3.1952,-3.2063,-3.2102,-3.2119,-3.2192,-3.2282,-3.2335,-3.2353,-3.2441,-3.2564,-3.2668,-3.2736,-3.2802,-3.2902,-3.3054,-3.3072,-3.3084,-3.3283,-3.4083,-3.4609,-3.4677,-3.5393,-3.5757,-3.5745,-3.612,-3.7081,-3.835,-3.8958,-3.9108,-3.9118,-3.9323,-3.951,-3.9602,-4.0085,-4.0494,-4.0568,-4.1144,-4.159,-4.159,-4.1364,-4.144,-4.1176,-4.1046,-4.1029,-4.0771,-4.0583,-4.0448,-4.0397,-4.0257,-4.0131,-4.0344,-4.0376,-4.0238,-4.0015,-3.9846,-3.9876,-3.9596,-3.9338,-3.9286,-3.9195,-3.8963,-3.8763,-3.9344,-3.9253,-3.9292,-3.9665,-3.9833,-3.9679,-3.9625,-3.9537,-3.9448,-3.9164,-3.9073,-3.9035,-3.2864,-3.2731,-3.2599,-3.2444,-3.2128,-3.1467,-3.136,-3.1596,-3.123,-3.1055,-3.1026,-3.1566,-3.1608,-3.1266,-3.1583,-3.1241,-3.0643,-3.0883,-3.085,-3.0452,-3.0013,-2.9799,-2.9766,-2.9272,-2.9107,-2.909,-2.9147,-2.9164,-2.9171,-2.933,-2.9409,-2.9409,-2.9226,-2.9168,-2.9282,-2.9282,-2.9303,-2.9394,-2.9793,-3.0037,-3.0145,-3.0685,-3.0776,-3.0451,-3.0778,-3.0833,-3.0594,-3.0975,-3.1115,-3.0751,-3.0835,-3.1128,-3.1684,-3.1769,-3.2029,-3.2603,-3.2773,-3.2838,-3.2979,-3.3409,-3.37,-3.3779,-3.4202,-3.4582,-3.492,-3.5203,-3.5952,-3.7019,-3.7779,-3.8356,-3.881,-3.8989,-3.9017,-3.9101,-3.9407,-3.964,-3.964,-3.988,-4.0055,-4.0055,-3.9997,-3.9956,-3.9829,-3.9687,-3.9562,-3.9451,-3.9389,-3.9361,-3.9134,-3.8994,-3.887,-3.8761,-3.8615,-3.8872,-3.9315,-3.9476,-3.9335,-3.9126,-3.8947,-3.8789,-3.857,-3.8397,-3.835,-3.8438,-3.8328,-3.842,-3.8891,-3.8955,-3.8902,-3.9113,-3.9388,-3.9275,-3.8947,-3.8756,-3.8668,-3.1341,-3.1162,-3.0999,-3.0851,-3.0683,-3.062,-3.0598,-3.0543,-3.0465,-3.037,-3.0308,-3.0172,-3.0052,-3.0028,-3.0251,-3.0294,-3.0154,-2.9972,-2.9848,-2.9799,-2.9222,-2.8992,-2.8885,-2.8401,-2.8115,-2.8115,-2.8148,-2.8132,-2.8115,-2.8234,-2.8295,-2.8318,-2.8251,-2.8265,-2.8248,-2.8302,-2.834,-2.8394,-2.871,-2.8817,-2.8752,-2.9268,-2.9532,-2.9348,-2.9828,-2.9845,-2.9402,-2.997,-3.0127,-2.9678,-2.9676,-3.0052,-3.076,-3.0845,-3.1278,-3.2166,-3.2583,-3.2855,-3.2934,-3.3042,-3.3135,-3.3244,-3.3382,-3.3717,-3.4248,-3.4462,-3.4895,-3.574,-3.6431,-3.718,-3.8069,-3.8274,-3.8405,-3.859,-3.8702,-3.8785,-3.9027,-3.8989,-3.9053,-3.895,-3.9058,-3.8833,-3.8732,-3.8676,-3.8606,-3.8528,-3.8376,-3.8189,-3.8018,-3.7987,-3.7864,-3.7667,-3.7539,-3.7816,-3.8748,-3.8695,-3.8638,-3.843,-3.813,-3.7923,-3.7912,-3.7627,-3.7665,-3.7398,-3.7309,-3.7667,-3.8353,-3.833,-3.8289,-3.8739,-3.9029,-3.8985,-3.8799,-3.8509,-3.8381,-2.978,-2.961,-2.9384,-2.938,-2.9223,-2.918,-2.909,-2.9063,-2.8996,-2.8833,-2.8765,-2.871,-2.8511,-2.8477,-2.9095,-2.9426,-2.9263,-2.8702,-2.8392,-2.8369,-2.8214,-2.8165,-2.8165,-2.8115,-2.8083,-2.7879,-2.7823,-2.7912,-2.7977,-2.805,-2.8115,-2.8033,-2.7432,-2.7142,-2.7201,-2.733,-2.7387,-2.7511,-2.8156,-2.833,-2.7743,-2.7729,-2.8262,-2.9056,-2.9296,-2.9296,-2.9211,-2.9332,-2.9368,-2.9489,-2.9386,-2.9574,-2.9843,-2.9944,-3.0425,-3.1323,-3.2228,-3.277,-3.2749,-3.2827,-3.297,-3.3068,-3.3226,-3.34,-3.3626,-3.3655,-3.4069,-3.4869,-3.5044,-3.5504,-3.6362,-3.6777,-3.7082,-3.7654,-3.7747,-3.8089,-3.8773,-3.8755,-3.8892,-3.8855,-3.8815,-3.8713,-3.8523,-3.851,-3.8415,-3.8303,-3.8204,-3.8068,-3.7984,-3.781,-3.7667,-3.7577,-3.7429,-3.735,-3.74,-3.7563,-3.7294,-3.7143,-3.7126,-3.6509,-3.6139,-3.5953,-3.626,-3.6367,-3.6346,-3.6753,-3.7733,-3.819,-3.8229,-3.8428,-3.8492,-3.8518,-3.8455,-3.8149,-3.7979,-2.9659,-2.9438,-2.9281,-2.9175,-2.9085,-2.8921,-2.8848,-2.8774,-2.8661,-2.8548,-2.8472,-2.8395,-2.8246,-2.8207,-2.797,-2.8112,-2.8467,-2.8237,-2.8139,-2.801,-2.7545,-2.7261,-2.7212,-2.6759,-2.6493,-2.6509,-2.6399,-2.6361,-2.6399,-2.6454,-2.6531,-2.6559,-2.6367,-2.6327,-2.6348,-2.6401,-2.6422,-2.6491,-2.6796,-2.6816,-2.6654,-2.6659,-2.6952,-2.7397,-2.794,-2.801,-2.764,-2.8065,-2.8219,-2.7945,-2.7926,-2.8249,-2.8864,-2.9547,-3.0077,-3.0568,-3.0995,-3.1231,-3.1329,-3.1862,-3.2222,-3.2319,-3.2943,-3.3304,-3.3382,-3.3452,-3.3666,-3.3941,-3.4053,-3.4292,-3.477,-3.5708,-3.6519,-3.6805,-3.6906,-3.7045,-3.7359,-3.7755,-3.8048,-3.8122,-3.8345,-3.8572,-3.8455,-3.8415,-3.8303,-3.8186,-3.8086,-3.7966,-3.7845,-3.7721,-3.7577,-3.7466,-3.7279,-3.7105,-3.7105,-3.6943,-3.676,-3.6648,-3.6473,-3.6182,-3.5861,-3.5667,-3.5903,-3.5693,-3.5588,-3.5777,-3.6702,-3.738,-3.753,-3.7708,-3.7785,-3.7931,-3.8067,-3.7431,-3.7198,-2.8833,-2.8613,-2.8528,-2.8406,-2.8284,-2.814,-2.8051,-2.7978,-2.7831,-2.7757,-2.7682,-2.7552,-2.7438,-2.7317,-2.6831,-2.6787,-2.7261,-2.7316,-2.7333,-2.7261,-2.6639,-2.6357,-2.6254,-2.5788,-2.5502,-2.5502,-2.5394,-2.5355,-2.5394,-2.5448,-2.5524,-2.5584,-2.5659,-2.5696,-2.5712,-2.5787,-2.5787,-2.5824,-2.5917,-2.597,-2.599,-2.6063,-2.6134,-2.6236,-2.6759,-2.6935,-2.6623,-2.7112,-2.7266,-2.6977,-2.694,-2.731,-2.8023,-2.8978,-2.9589,-2.9734,-3.0088,-3.0305,-3.0396,-3.0962,-3.1387,-3.147,-3.226,-3.2835,-3.2913,-3.3219,-3.3433,-3.3491,-3.352,-3.3605,-3.3872,-3.4779,-3.5615,-3.5864,-3.6021,-3.6159,-3.6399,-3.6895,-3.7124,-3.7213,-3.7644,-3.8003,-3.8086,-3.8158,-3.8186,-3.8086,-3.7949,-3.7828,-3.7721,-3.7577,-3.7429,-3.7279,-3.7143,-3.693,-3.6811,-3.6609,-3.6637,-3.6523,-3.6174,-3.5861,-3.565,-3.5515,-3.535,-3.5088,-3.5048,-3.5136,-3.5594,-3.6312,-3.6664,-3.6853,-3.7005,-3.7102,-3.6862,-3.646,-3.6301,-2.7169,-2.699,-2.7007,-2.6825,-2.6623,-2.6572,-2.6452,-2.633,-2.6329,-2.6305,-2.6158,-2.6072,-2.6131,-2.5835,-2.588,-2.574,-2.5832,-2.5907,-2.587,-2.5794,-2.5583,-2.5512,-2.5512,-2.5404,-2.5333,-2.5333,-2.5294,-2.5294,-2.5278,-2.5294,-2.5333,-2.5317,-2.5333,-2.5371,-2.5333,-2.5524,-2.5616,-2.5616,-2.5733,-2.586,-2.5897,-2.586,-2.5881,-2.5881,-2.5983,-2.6145,-2.645,-2.6519,-2.6639,-2.6725,-2.6725,-2.6858,-2.7353,-2.8167,-2.8725,-2.8889,-2.9642,-3.0088,-3.0181,-3.0272,-3.0511,-3.0724,-3.1363,-3.19,-3.2115,-3.2751,-3.3225,-3.3288,-3.3426,-3.3538,-3.3577,-3.3797,-3.4182,-3.4816,-3.5037,-3.5312,-3.5881,-3.6229,-3.6256,-3.6278,-3.6772,-3.7148,-3.7285,-3.7591,-3.7871,-3.7895,-3.7792,-3.7613,-3.754,-3.741,-3.722,-3.7066,-3.6908,-3.6731,-3.6509,-3.6301,-3.6387,-3.6414,-3.5983,-3.5605,-3.5407,-3.5207,-3.5071,-3.4851,-3.4659,-3.4726,-3.4751,-3.5428,-3.586,-3.6071,-3.6174,-3.6166,-3.6006,-3.5685,-3.525,-2.5545,-2.5419,-2.5312,-2.5217,-2.5058,-2.4945,-2.4796,-2.4779,-2.5125,-2.5269,-2.5245,-2.5599,-2.5738,-2.5701,-2.5642,-2.5567,-2.547,-2.5492,-2.5492,-2.5416,-2.5355,-2.5317,-2.5317,-2.5294,-2.524,-2.5146,-2.5146,-2.5146,-2.5146,-2.5146,-2.5201,-2.5294,-2.5294,-2.5294,-2.5294,-2.5371,-2.5371,-2.5426,-2.5448,-2.5486,-2.547,-2.5486,-2.5508,-2.553,-2.5637,-2.577,-2.5937,-2.6151,-2.6415,-2.6623,-2.6674,-2.6858,-2.7218,-2.7612,-2.7892,-2.8002,-2.8363,-2.8611,-2.8723,-2.9266,-2.9656,-2.9886,-3.0534,-3.0998,-3.1218,-3.1923,-3.2415,-3.2611,-3.302,-3.3393,-3.3491,-3.352,-3.3694,-3.399,-3.4045,-3.4182,-3.4548,-3.4987,-3.5499,-3.5933,-3.617,-3.6399,-3.6749,-3.7091,-3.732,-3.7594,-3.7578,-3.7487,-3.7281,-3.7094,-3.7009,-3.6811,-3.6632,-3.6485,-3.6276,-3.6019,-3.5922,-3.5956,-3.5656,-3.5345,-3.5128,-3.4927,-3.4771,-3.4611,-3.4366,-3.423,-3.4246,-3.4452,-3.4879,-3.496,-3.4826,-3.4951,-3.5231,-3.4971,-3.4373,-2.4812,-2.4628,-2.4537,-2.443,-2.4273,-2.413,-2.4033,-2.4001,-2.4346,-2.4425,-2.447,-2.4743,-2.4919,-2.4899,-2.4843,-2.4733,-2.4643,-2.459,-2.4714,-2.4965,-2.5198,-2.5224,-2.5201,-2.5217,-2.5178,-2.5084,-2.5005,-2.5005,-2.4989,-2.495,-2.495,-2.5045,-2.5045,-2.5045,-2.5045,-2.5123,-2.5178,-2.5217,-2.5256,-2.5294,-2.5294,-2.5294,-2.5333,-2.5355,-2.5448,-2.5524,-2.5605,-2.586,-2.6115,-2.6399,-2.6607,-2.6842,-2.7103,-2.731,-2.7417,-2.7557,-2.7694,-2.7848,-2.7941,-2.847,-2.8816,-2.8998,-2.9672,-3.0205,-3.0378,-3.1056,-3.1588,-3.2097,-3.2487,-3.2967,-3.3273,-3.3345,-3.3357,-3.3386,-3.3567,-3.3605,-3.3678,-3.3967,-3.4422,-3.4854,-3.5095,-3.5467,-3.5854,-3.6458,-3.6629,-3.6952,-3.6933,-3.6819,-3.657,-3.6414,-3.6359,-3.6353,-3.6343,-3.6148,-3.5993,-3.5773,-3.5503,-3.5412,-3.5321,-3.5035,-3.4844,-3.4577,-3.4448,-3.4151,-3.3915,-3.3761,-3.3773,-3.3672,-3.3873,-3.3662,-3.3637,-3.3824,-3.4032,-3.3671,-3.3187,-2.4569,-2.4404,-2.434,-2.4084,-2.3881,-2.3784,-2.3686,-2.3704,-2.3753,-2.3669,-2.3585,-2.373,-2.3712,-2.3578,-2.3756,-2.3654,-2.3339,-2.3414,-2.3642,-2.4111,-2.4535,-2.4853,-2.5075,-2.5084,-2.5005,-2.4966,-2.4862,-2.4806,-2.4766,-2.4601,-2.4558,-2.467,-2.4576,-2.4599,-2.4695,-2.4846,-2.4966,-2.5005,-2.5139,-2.5217,-2.5217,-2.5217,-2.5217,-2.5201,-2.5256,-2.5278,-2.5394,-2.5546,-2.584,-2.6203,-2.6504,-2.6808,-2.6957,-2.712,-2.7324,-2.7496,-2.7587,-2.7707,-2.7813,-2.8006,-2.8081,-2.8266,-2.8809,-2.9258,-2.9479,-3.0116,-3.0825,-3.1487,-3.1864,-3.2307,-3.2798,-3.3081,-3.3099,-3.3135,-3.3357,-3.3502,-3.3549,-3.3488,-3.3581,-3.3623,-3.3898,-3.4347,-3.4733,-3.5523,-3.5847,-3.5863,-3.5768,-3.5668,-3.5471,-3.5434,-3.5583,-3.5624,-3.5566,-3.5579,-3.5368,-3.5009,-3.4801,-3.4977,-3.493,-3.4673,-3.4463,-3.4251,-3.405,-3.3745,-3.3555,-3.3398,-3.3234,-3.3146,-3.3099,-3.3135,-3.3054,-3.289,-3.2742,-3.2609,-3.2522,-2.3011,-2.2885,-2.2719,-2.2584,-2.2482,-2.2347,-2.2287,-2.2259,-2.2671,-2.2818,-2.2833,-2.332,-2.3416,-2.3497,-2.3464,-2.3428,-2.3211,-2.3173,-2.3179,-2.3279,-2.3396,-2.4141,-2.487,-2.4974,-2.4879,-2.4799,-2.4681,-2.4742,-2.4583,-2.4099,-2.4075,-2.4558,-2.4044,-2.4091,-2.4536,-2.4592,-2.4695,-2.471,-2.4735,-2.4775,-2.4791,-2.4791,-2.4791,-2.4806,-2.4886,-2.4966,-2.5123,-2.5448,-2.5803,-2.6168,-2.6504,-2.6742,-2.6909,-2.707,-2.7276,-2.7448,-2.7557,-2.7647,-2.7766,-2.7842,-2.7917,-2.7946,-2.8234,-2.8344,-2.8436,-2.9112,-2.9639,-3.016,-3.0939,-3.176,-3.2107,-3.2572,-3.2858,-3.2979,-3.3117,-3.3238,-3.3238,-3.3165,-3.3122,-3.3127,-3.318,-3.3369,-3.3679,-3.4092,-3.4518,-3.453,-3.4609,-3.4592,-3.4352,-3.4226,-3.4343,-3.4415,-3.4435,-3.4656,-3.4626,-3.4293,-3.4192,-3.4528,-3.4497,-3.4284,-3.4102,-3.3882,-3.3658,-3.345,-3.324,-3.3081,-3.2796,-3.2585,-3.2604,-3.266,-3.244,-3.2277,-3.2231,-3.2114,-3.2057,-2.2321,-2.2163,-2.1998,-2.1899,-2.1781,-2.1678,-2.1603,-2.1577,-2.1825,-2.1973,-2.2037,-2.2361,-2.2572,-2.2572,-2.2556,-2.2539,-2.2422,-2.2355,-2.2447,-2.2627,-2.2857,-2.3391,-2.3939,-2.4081,-2.4036,-2.3959,-2.3897,-2.3772,-2.3616,-2.3251,-2.3328,-2.3429,-2.3251,-2.3243,-2.3482,-2.363,-2.3801,-2.3931,-2.4048,-2.4157,-2.442,-2.4467,-2.4523,-2.4564,-2.4645,-2.4782,-2.5021,-2.5294,-2.5691,-2.6132,-2.6417,-2.6607,-2.6825,-2.7006,-2.7198,-2.7355,-2.7496,-2.7569,-2.7659,-2.7766,-2.7842,-2.7888,-2.7929,-2.7957,-2.8085,-2.8428,-2.8723,-2.9319,-3.0082,-3.0645,-3.1173,-3.1827,-3.2382,-3.2684,-3.282,-3.2898,-3.2993,-3.2948,-3.2902,-3.282,-3.274,-3.2732,-3.2896,-3.3213,-3.3192,-3.3107,-3.3343,-3.3282,-3.3138,-3.309,-3.3136,-3.3302,-3.3284,-3.3416,-3.3416,-3.3165,-3.324,-3.3534,-3.3738,-3.3617,-3.3642,-3.3487,-3.3277,-3.3065,-3.292,-3.2757,-3.2468,-3.2176,-3.2068,-3.1974,-3.1811,-3.1697,-3.1697,-3.1754,-3.1682,-2.2108,-2.1998,-2.1957,-2.1811,-2.1708,-2.1634,-2.1542,-2.1402,-2.1389,-2.1374,-2.1374,-2.1326,-2.1535,-2.1294,-2.1584,-2.1343,-2.1295,-2.1408,-2.1567,-2.1929,-2.2271,-2.2631,-2.2659,-2.298,-2.3022,-2.2948,-2.2627,-2.2614,-2.2623,-2.2393,-2.227,-2.2394,-2.2317,-2.2194,-2.244,-2.2401,-2.2593,-2.2998,-2.3154,-2.3369,-2.3769,-2.3938,-2.4071,-2.4184,-2.441,-2.4589,-2.4886,-2.5178,-2.5524,-2.6076,-2.6206,-2.6452,-2.6674,-2.6859,-2.7055,-2.723,-2.7404,-2.7526,-2.7587,-2.7659,-2.7736,-2.783,-2.783,-2.7871,-2.7917,-2.8006,-2.8217,-2.8711,-2.8988,-2.9607,-3.026,-3.0932,-3.1535,-3.1998,-3.2228,-3.2415,-3.2705,-3.2773,-3.2707,-3.2573,-3.2472,-3.2477,-3.2577,-3.2674,-3.2579,-3.1871,-3.2049,-3.2076,-3.195,-3.1859,-3.2024,-3.2365,-3.2258,-3.2122,-3.2052,-3.1994,-3.2192,-3.2508,-3.2744,-3.2804,-3.3071,-3.2958,-3.2834,-3.2672,-3.2468,-3.2302,-3.212,-3.1894,-3.1667,-3.1509,-3.1467,-3.1292,-3.119,-3.1307,-3.1351,-2.1653,-2.1998,-2.1957,-2.1811,-2.1694,-2.162,-2.1511,-2.1386,-2.134,-2.1294,-2.1294,-2.1294,-2.1294,-2.1294,-2.1294,-2.1294,-2.1262,-2.1199,-2.1231,-2.11,-2.1243,-2.1288,-2.1521,-2.2193,-2.2671,-2.2561,-2.2496,-2.2421,-2.2185,-2.1695,-2.1651,-2.2034,-2.1583,-2.15,-2.1896,-2.185,-2.2102,-2.2245,-2.2285,-2.2376,-2.261,-2.3077,-2.3305,-2.3422,-2.4015,-2.4426,-2.4605,-2.4886,-2.5201,-2.5584,-2.5954,-2.6329,-2.6572,-2.6809,-2.699,-2.7166,-2.7327,-2.7469,-2.7496,-2.7557,-2.7539,-2.7604,-2.7617,-2.7587,-2.7587,-2.7617,-2.7687,-2.7984,-2.8421,-2.9015,-2.9747,-3.0012,-3.0485,-3.0976,-3.1185,-3.1411,-3.1881,-3.2197,-3.2284,-3.2214,-3.2091,-3.1963,-3.186,-3.1857,-3.1543,-3.0858,-3.0838,-3.094,-3.0833,-3.0705,-3.091,-3.1299,-3.0972,-3.0806,-3.1004,-3.0959,-3.1114,-3.1483,-3.1753,-3.1952,-3.2214,-3.2468,-3.2342,-3.2176,-3.2079,-3.191,-3.1724,-3.1495,-3.1278,-3.1234,-3.1117,-3.1014,-3.0895,-3.0969,-3.0969,-2.1233,-2.1473,-2.172,-2.1797,-2.1664,-2.162,-2.1511,-2.1355,-2.1309,-2.1294,-2.1294,-2.1294,-2.1294,-2.1294,-2.1294,-2.1294,-2.1294,-2.123,-2.1119,-2.1022,-2.0974,-2.086,-2.0791,-2.1321,-2.167,-2.1666,-2.1512,-2.1383,-2.1172,-2.0931,-2.0767,-2.1133,-2.0755,-2.0622,-2.088,-2.0986,-2.1016,-2.121,-2.127,-2.1374,-2.1734,-2.2034,-2.2535,-2.2934,-2.3629,-2.4135,-2.44,-2.4645,-2.4966,-2.5278,-2.5675,-2.6079,-2.6417,-2.6708,-2.6875,-2.7087,-2.723,-2.7359,-2.7404,-2.7465,-2.7496,-2.7496,-2.7496,-2.7496,-2.7496,-2.7465,-2.7465,-2.7521,-2.7834,-2.8305,-2.9017,-2.9171,-2.9453,-2.9903,-3.0075,-3.0384,-3.0964,-3.1595,-3.1965,-3.1839,-3.1783,-3.1559,-3.1385,-3.1252,-3.0874,-3.0344,-3.0418,-3.0483,-3.0125,-3.0032,-2.9948,-2.9993,-2.9619,-2.953,-2.9896,-3.0019,-3.0055,-3.0443,-3.0883,-3.1058,-3.1283,-3.1576,-3.1853,-3.1739,-3.1682,-3.1509,-3.1336,-3.1161,-3.0984,-3.0881,-3.0762,-3.0717,-3.0597,-3.0536,-3.0536,-2.0655,-2.0838,-2.1412,-2.1609,-2.1603,-2.1603,-2.1528,-2.1388,-2.1325,-2.1309,-2.1309,-2.1309,-2.1294,-2.1294,-2.1294,-2.1294,-2.1294,-2.123,-2.1151,-2.1054,-2.0958,-2.0827,-2.0758,-2.0736,-2.0712,-2.0556,-2.0493,-2.0338,-2.0288,-2.008,-2.0142,-2.0031,-1.998,-1.9978,-1.9765,-1.9698,-1.9938,-2.0271,-2.0315,-2.0454,-2.0912,-2.1148,-2.1658,-2.2611,-2.3197,-2.3773,-2.4074,-2.4426,-2.471,-2.5029,-2.5371,-2.577,-2.6154,-2.6504,-2.6725,-2.6942,-2.707,-2.7215,-2.7296,-2.7359,-2.7404,-2.7417,-2.7404,-2.7404,-2.7373,-2.7327,-2.7296,-2.7247,-2.7353,-2.7444,-2.8027,-2.8097,-2.839,-2.8852,-2.9022,-2.9272,-2.9861,-3.0762,-3.0933,-3.1411,-3.1312,-3.1173,-3.0935,-3.0757,-3.0311,-2.9966,-3.0038,-2.9973,-2.9605,-2.935,-2.9339,-2.917,-2.892,-2.8748,-2.9009,-2.9082,-2.9077,-2.9428,-2.9955,-3.0208,-3.0376,-3.0651,-3.0994,-3.1349,-3.1336,-3.1161,-3.0984,-3.0747,-3.0582,-3.0522,-3.0416,-3.0355,-3.0233,-3.0111,-3.0111,-1.9744,-2.0805,-2.0849,-2.116,-2.1645,-2.1694,-2.1617,-2.1559,-2.1433,-2.1386,-2.1371,-2.134,-2.1325,-2.1325,-2.1294,-2.1294,-2.1277,-2.123,-2.1151,-2.107,-2.0958,-2.0811,-2.0677,-2.0543,-2.0426,-2.0339,-2.02,-2.008,-2.003,-1.994,-1.9833,-1.9762,-1.9705,-1.9596,-1.9487,-1.945,-1.942,-1.9537,-1.9566,-1.9645,-1.9768,-2.0235,-2.0999,-2.2064,-2.2617,-2.3143,-2.3688,-2.4105,-2.4467,-2.471,-2.5123,-2.5454,-2.5811,-2.6208,-2.6521,-2.6742,-2.6908,-2.7023,-2.7122,-2.7105,-2.7072,-2.7072,-2.7105,-2.7105,-2.7072,-2.704,-2.7007,-2.6925,-2.6875,-2.6876,-2.6961,-2.7063,-2.7249,-2.7649,-2.7811,-2.7988,-2.8531,-2.8915,-2.9527,-3.0285,-3.053,-3.0716,-3.0468,-3.0241,-2.9951,-2.9641,-2.9556,-2.9364,-2.8997,-2.8826,-2.8779,-2.8636,-2.8396,-2.8299,-2.8244,-2.8221,-2.8203,-2.8553,-2.8996,-2.9401,-2.9596,-2.9796,-3.0104,-3.0705,-3.0866,-3.0762,-3.0582,-3.0401,-3.028,-3.0219,-3.0172,-3.005,-2.9988,-2.9988,-2.9988,-1.9034,-1.9638,-1.9959,-2.0499,-2.1065,-2.1147,-2.1335,-2.1556,-2.1542,-2.1511,-2.1511,-2.1481,-2.145,-2.145,-2.1371,-2.134,-2.1277,-2.1247,-2.1151,-2.1103,-2.0941,-2.0745,-2.061,-2.046,-2.0323,-2.0185,-2.001,-1.9874,-1.9823,-1.9782,-1.9654,-1.9545,-1.9487,-1.9376,-1.9265,-1.9191,-1.9116,-1.9064,-1.9026,-1.9026,-1.9008,-1.9609,-2.0411,-2.1009,-2.1909,-2.2535,-2.3041,-2.3704,-2.4162,-2.4467,-2.4831,-2.513,-2.5422,-2.5795,-2.6191,-2.6487,-2.6708,-2.6859,-2.6959,-2.6959,-2.6959,-2.6942,-2.6892,-2.6842,-2.6825,-2.6809,-2.6708,-2.6589,-2.6504,-2.6435,-2.6468,-2.6365,-2.646,-2.662,-2.6627,-2.6879,-2.7279,-2.7287,-2.8012,-2.9042,-2.9371,-2.9632,-2.9957,-2.9738,-2.956,-2.9335,-2.9152,-2.8811,-2.8494,-2.8365,-2.8332,-2.8137,-2.7989,-2.784,-2.7755,-2.7619,-2.7533,-2.7817,-2.806,-2.8458,-2.8893,-2.9131,-2.9724,-3.0346,-3.0387,-3.0341,-3.028,-3.0158,-3.0036,-2.9913,-2.9851,-2.9803,-2.9865,-2.9865,-2.9865,-1.8502,-1.8559,-1.9121,-1.9772,-2.0355,-2.057,-2.092,-2.1371,-2.1568,-2.1603,-2.162,-2.162,-2.1589,-2.1559,-2.1464,-2.1355,-2.1246,-2.1215,-2.1119,-2.099,-2.0876,-2.0677,-2.046,-2.0323,-2.0185,-1.9975,-1.9854,-1.9645,-1.9645,-1.9603,-1.9508,-1.9362,-1.9265,-1.9176,-1.9064,-1.8979,-1.8851,-1.876,-1.8707,-1.8707,-1.8849,-1.923,-1.9655,-1.9904,-2.1093,-2.1927,-2.2224,-2.3178,-2.3685,-2.4009,-2.4384,-2.4775,-2.5013,-2.54,-2.5775,-2.6137,-2.6453,-2.6657,-2.6742,-2.6792,-2.6759,-2.6742,-2.6674,-2.6624,-2.6556,-2.6486,-2.6364,-2.6206,-2.6118,-2.6046,-2.601,-2.5901,-2.586,-2.5766,-2.574,-2.5707,-2.6083,-2.627,-2.6422,-2.7249,-2.8001,-2.8528,-2.8822,-2.9273,-2.909,-2.8873,-2.8637,-2.8431,-2.8107,-2.8024,-2.789,-2.774,-2.7539,-2.7437,-2.735,-2.7233,-2.7144,-2.7143,-2.7307,-2.7567,-2.8107,-2.8627,-2.917,-2.9697,-2.9946,-2.9898,-2.9913,-2.9851,-2.9727,-2.9602,-2.954,-2.954,-2.9554,-2.9477,-2.9477,-1.8019,-1.8518,-1.8592,-1.9055,-1.9766,-2.0329,-2.0688,-2.0858,-2.1394,-2.1678,-2.1612,-2.165,-2.162,-2.1589,-2.1464,-2.134,-2.1247,-2.1167,-2.1022,-2.0876,-2.0744,-2.0577,-2.0373,-2.0304,-2.0061,-1.9833,-1.9726,-1.969,-1.9603,-1.9472,-1.9339,-1.9191,-1.9101,-1.9026,-1.8836,-1.875,-1.8659,-1.8542,-1.8436,-1.8383,-1.8425,-1.8616,-1.9018,-1.9648,-2.0466,-2.1064,-2.1418,-2.245,-2.3225,-2.3145,-2.3902,-2.4395,-2.467,-2.5084,-2.5317,-2.5567,-2.5937,-2.6382,-2.6382,-2.6468,-2.6468,-2.6417,-2.633,-2.6295,-2.6189,-2.6063,-2.5917,-2.5717,-2.568,-2.5605,-2.553,-2.5416,-2.5317,-2.524,-2.5162,-2.5123,-2.5251,-2.5361,-2.5507,-2.5817,-2.6635,-2.7224,-2.7701,-2.8249,-2.8669,-2.8414,-2.8137,-2.7925,-2.7775,-2.764,-2.7488,-2.7269,-2.713,-2.7026,-2.6974,-2.687,-2.6803,-2.6683,-2.6712,-2.6837,-2.7411,-2.7968,-2.8363,-2.8796,-2.9125,-2.9484,-2.954,-2.9477,-2.9352,-2.9352,-2.9366,-2.924,-2.9176,-2.9176,-2.9226,-1.7719,-1.7938,-1.7922,-1.8352,-1.8972,-1.9346,-1.971,-2.0191,-2.0825,-2.1156,-2.1226,-2.1576,-2.1664,-2.1573,-2.1464,-2.1356,-2.1215,-2.1103,-2.099,-2.0761,-2.061,-2.0457,-2.027,-2.008,-1.9833,-1.969,-1.9493,-1.931,-1.931,-1.9288,-1.9139,-1.895,-1.8836,-1.8736,-1.862,-1.8478,-1.84,-1.8321,-1.8268,-1.8268,-1.8268,-1.8335,-1.8486,-1.8859,-1.9707,-2.0126,-2.0565,-2.1727,-2.2539,-2.2673,-2.3519,-2.4078,-2.4302,-2.463,-2.4926,-2.495,-2.5323,-2.5754,-2.6026,-2.6099,-2.6099,-2.6063,-2.5974,-2.5864,-2.5754,-2.5621,-2.5508,-2.5339,-2.5262,-2.5185,-2.5068,-2.495,-2.4871,-2.4751,-2.467,-2.463,-2.4589,-2.4467,-2.4616,-2.4933,-2.5262,-2.5908,-2.6688,-2.75,-2.7987,-2.7974,-2.774,-2.7575,-2.7372,-2.7233,-2.7026,-2.6841,-2.6698,-2.6606,-2.6606,-2.65,-2.65,-2.6433,-2.6326,-2.6491,-2.6834,-2.7285,-2.7661,-2.8075,-2.8544,-2.8858,-2.9087,-2.9226,-2.9162,-2.9176,-2.9113,-2.9049,-2.9049,-2.9099,-2.9162,-1.7582,-1.7522,-1.7498,-1.7789,-1.8286,-1.8435,-1.8823,-1.9369,-2.0125,-2.0522,-2.087,-2.142,-2.1694,-2.1589,-2.145,-2.1294,-2.1151,-2.107,-2.0892,-2.0677,-2.0475,-2.032,-2.008,-1.9833,-1.9639,-1.9545,-1.9288,-1.9087,-1.8988,-1.895,-1.8851,-1.8707,-1.862,-1.8478,-1.84,-1.8242,-1.8123,-1.7989,-1.7975,-1.7975,-1.8016,-1.8083,-1.8123,-1.8396,-1.8876,-1.9387,-1.9537,-2.0769,-2.1657,-2.2071,-2.2825,-2.3426,-2.3779,-2.4219,-2.4426,-2.4549,-2.4815,-2.5146,-2.5416,-2.5584,-2.5696,-2.5659,-2.5546,-2.5355,-2.5342,-2.521,-2.5045,-2.491,-2.4831,-2.4751,-2.4614,-2.4508,-2.4369,-2.4245,-2.4177,-2.412,-2.412,-2.4036,-2.404,-2.4243,-2.4564,-2.4867,-2.5646,-2.6666,-2.72,-2.7399,-2.7335,-2.7181,-2.7026,-2.6817,-2.6712,-2.6525,-2.6486,-2.6394,-2.6286,-2.6233,-2.6233,-2.6125,-2.6071,-2.606,-2.6288,-2.6623,-2.694,-2.7391,-2.7837,-2.8202,-2.8441,-2.8752,-2.9035,-2.8908,-2.8858,-2.8908,-2.8972,-2.8972,-2.8972,-1.7704,-1.7589,-1.7545,-1.7548,-1.764,-1.8253,-1.8534,-1.865,-1.9336,-2.0042,-2.0638,-2.1262,-2.1483,-2.1524,-2.1274,-2.115,-2.1103,-2.0909,-2.0711,-2.0509,-2.032,-2.0096,-1.9869,-1.9675,-1.9493,-1.925,-1.9064,-1.8912,-1.8736,-1.8659,-1.8595,-1.8517,-1.8425,-1.8361,-1.8202,-1.8043,-1.7828,-1.7693,-1.7639,-1.7639,-1.7693,-1.7788,-1.7909,-1.8072,-1.8604,-1.8975,-1.8714,-1.995,-2.0898,-2.1225,-2.2147,-2.2775,-2.3333,-2.3739,-2.3952,-2.4094,-2.4302,-2.4508,-2.4695,-2.5013,-2.5153,-2.513,-2.4989,-2.4918,-2.4907,-2.4708,-2.4498,-2.4385,-2.4343,-2.4261,-2.4135,-2.4024,-2.3967,-2.3824,-2.3782,-2.3782,-2.3739,-2.3681,-2.3655,-2.3672,-2.3881,-2.4146,-2.4629,-2.5648,-2.643,-2.6652,-2.6907,-2.6817,-2.6592,-2.6433,-2.6394,-2.6272,-2.6272,-2.6233,-2.6125,-2.6016,-2.5907,-2.5853,-2.5743,-2.5647,-2.5661,-2.5978,-2.6252,-2.6648,-2.7064,-2.7448,-2.7876,-2.8211,-2.8457,-2.8583,-2.8651,-2.8716,-2.878,-2.878,-2.8716,-1.7856,-1.7772,-1.7675,-1.7606,-1.7576,-1.7835,-1.7952,-1.8052,-1.8668,-1.9389,-2.0014,-2.0228,-2.0521,-2.076,-2.0708,-2.0718,-2.0926,-2.086,-2.061,-2.0373,-2.0166,-1.9955,-1.9726,-1.9457,-1.925,-1.9064,-1.8965,-1.8774,-1.8581,-1.8464,-1.8293,-1.8254,-1.8214,-1.8149,-1.7989,-1.7788,-1.7611,-1.7557,-1.7475,-1.7475,-1.7516,-1.7557,-1.7652,-1.7747,-1.8058,-1.8508,-1.8797,-1.9726,-2.0413,-2.1124,-2.1915,-2.2437,-2.2846,-2.3246,-2.3436,-2.3581,-2.3739,-2.3867,-2.4036,-2.4395,-2.4655,-2.4517,-2.441,-2.4374,-2.443,-2.4212,-2.4024,-2.3925,-2.3867,-2.3782,-2.3711,-2.3683,-2.364,-2.3494,-2.3392,-2.3392,-2.3392,-2.3348,-2.3304,-2.3304,-2.3302,-2.3414,-2.3945,-2.4577,-2.5336,-2.5959,-2.6222,-2.6394,-2.6233,-2.6056,-2.6071,-2.6016,-2.5962,-2.5921,-2.5812,-2.5757,-2.5633,-2.5592,-2.5481,-2.5425,-2.5313,-2.5341,-2.5627,-2.5993,-2.6326,-2.6782,-2.7223,-2.7683,-2.8048,-2.8387,-2.8509,-2.8587,-2.8587,-2.8587,-2.8522,-1.8031,-1.7966,-1.7878,-1.7749,-1.7635,-1.7612,-1.7612,-1.7673,-1.8069,-1.8635,-1.9227,-1.9334,-1.9792,-2.0212,-2.0213,-2.0399,-2.0734,-2.0728,-2.0494,-2.0254,-2.001,-1.9797,-1.9545,-1.9288,-1.9064,-1.895,-1.8774,-1.8556,-1.845,-1.8279,-1.8135,-1.8016,-1.7922,-1.7909,-1.7842,-1.7638,-1.7447,-1.7447,-1.7406,-1.7393,-1.7393,-1.7633,-1.7595,-1.7635,-1.7907,-1.8301,-1.8738,-1.9359,-2.0067,-2.0809,-2.158,-2.2115,-2.2409,-2.2678,-2.2904,-2.3024,-2.3098,-2.3187,-2.3377,-2.3767,-2.4036,-2.3909,-2.3809,-2.3812,-2.3771,-2.3611,-2.3377,-2.3333,-2.3304,-2.3334,-2.326,-2.3216,-2.3187,-2.3038,-2.3053,-2.3053,-2.2994,-2.2994,-2.2949,-2.2978,-2.2913,-2.2876,-2.3222,-2.3808,-2.4881,-2.5521,-2.583,-2.5976,-2.5921,-2.5812,-2.5757,-2.5702,-2.5661,-2.5605,-2.5508,-2.5481,-2.5397,-2.5355,-2.5313,-2.5188,-2.5131,-2.5118,-2.5032,-2.5283,-2.567,-2.6055,-2.6539,-2.7064,-2.7655,-2.8298,-2.8365,-2.8406,-2.8406,-2.8341,-2.8341,-1.8225,-1.8113,-1.8091,-1.7944,-1.771,-1.7635,-1.7612,-1.7612,-1.7626,-1.7946,-1.8491,-1.8962,-1.954,-1.9965,-1.9833,-2.013,-2.0493,-2.0481,-2.0304,-2.0065,-1.9833,-1.9581,-1.9376,-1.9153,-1.8912,-1.8697,-1.8556,-1.8425,-1.8319,-1.8121,-1.7989,-1.7868,-1.7747,-1.7666,-1.7679,-1.7487,-1.735,-1.7253,-1.7212,-1.729,-1.7408,-1.786,-1.7916,-1.7879,-1.8179,-1.8588,-1.897,-1.9138,-1.9867,-2.0721,-2.1084,-2.1527,-2.1941,-2.2217,-2.237,-2.2417,-2.248,-2.2512,-2.2558,-2.3098,-2.329,-2.3304,-2.3201,-2.3142,-2.3112,-2.2949,-2.2711,-2.2712,-2.2756,-2.274,-2.2754,-2.2754,-2.2723,-2.2692,-2.2692,-2.2692,-2.2632,-2.2586,-2.2586,-2.254,-2.2463,-2.247,-2.2676,-2.3146,-2.4333,-2.5101,-2.548,-2.5605,-2.5605,-2.5536,-2.5522,-2.5425,-2.5369,-2.5257,-2.5201,-2.5174,-2.5174,-2.5131,-2.5075,-2.4962,-2.4848,-2.4835,-2.4788,-2.4753,-2.5079,-2.5507,-2.5955,-2.6401,-2.708,-2.7811,-2.813,-2.821,-2.8145,-2.8145,-2.8197,-1.8428,-1.8284,-1.8222,-1.8117,-1.8027,-1.7839,-1.7811,-1.7772,-1.7652,-1.7622,-1.7749,-1.7962,-1.83,-1.8739,-1.9231,-1.9545,-1.9937,-2.0333,-2.0185,-1.9818,-1.9705,-1.9435,-1.9213,-1.8988,-1.8774,-1.8581,-1.8425,-1.8293,-1.8108,-1.7975,-1.7868,-1.7747,-1.7502,-1.7365,-1.7337,-1.7212,-1.7086,-1.708,-1.7312,-1.754,-1.7635,-1.815,-1.8429,-1.8208,-1.8608,-1.902,-1.9343,-1.9421,-1.9967,-2.0684,-2.0934,-2.1179,-2.1492,-2.1698,-2.1793,-2.1855,-2.1888,-2.1935,-2.1921,-2.2142,-2.2388,-2.2495,-2.2586,-2.2449,-2.2342,-2.2203,-2.2114,-2.2072,-2.2161,-2.2249,-2.2356,-2.2356,-2.237,-2.237,-2.237,-2.2356,-2.231,-2.2231,-2.2184,-2.2137,-2.2091,-2.2393,-2.2609,-2.2908,-2.3925,-2.475,-2.5121,-2.5411,-2.5494,-2.5355,-2.5286,-2.5118,-2.5018,-2.4962,-2.4892,-2.4948,-2.4892,-2.4848,-2.4791,-2.4734,-2.462,-2.4563,-2.4576,-2.4629,-2.4776,-2.4975,-2.5455,-2.5942,-2.6591,-2.713,-2.759,-2.7973,-2.8013,-2.7987,-2.8026,-1.8603,-1.8448,-1.8348,-1.8284,-1.8197,-1.8009,-1.7861,-1.7772,-1.7658,-1.7512,-1.7411,-1.733,-1.7759,-1.8317,-1.8665,-1.9248,-1.9776,-2.0023,-2.0045,-1.969,-1.9487,-1.9302,-1.9078,-1.8836,-1.8606,-1.8411,-1.824,-1.8121,-1.7962,-1.7868,-1.772,-1.7556,-1.7282,-1.7157,-1.7073,-1.7002,-1.7102,-1.7226,-1.7529,-1.7785,-1.808,-1.8498,-1.8802,-1.8758,-1.8967,-1.9381,-1.9656,-1.9974,-2.0193,-2.0664,-2.0885,-2.0934,-2.1019,-2.1068,-2.1153,-2.1215,-2.1264,-2.1264,-2.1251,-2.1251,-2.1479,-2.1636,-2.1793,-2.1793,-2.167,-2.1589,-2.1575,-2.1561,-2.1684,-2.1793,-2.1902,-2.1949,-2.1996,-2.1996,-2.2044,-2.203,-2.203,-2.1949,-2.1949,-2.1902,-2.1904,-2.2207,-2.2615,-2.2994,-2.3554,-2.4218,-2.4844,-2.5078,-2.5257,-2.5131,-2.4991,-2.4892,-2.4778,-2.4734,-2.4734,-2.4677,-2.4677,-2.462,-2.4563,-2.4447,-2.4434,-2.4376,-2.4447,-2.4447,-2.4509,-2.4603,-2.4983,-2.5511,-2.597,-2.6621,-2.7341,-2.7617,-2.7842,-2.7855,-2.7829,-1.8788,-1.8604,-1.8526,-1.8408,-1.8249,-1.8014,-1.7794,-1.7612,-1.7612,-1.7489,-1.7306,-1.7248,-1.7688,-1.8578,-1.872,-1.9202,-1.9968,-1.9989,-1.9869,-1.9617,-1.9325,-1.9116,-1.8903,-1.8673,-1.845,-1.8279,-1.8108,-1.7975,-1.7868,-1.772,-1.7569,-1.7363,-1.7128,-1.7067,-1.7021,-1.7081,-1.7217,-1.7428,-1.7862,-1.8168,-1.8537,-1.907,-1.9121,-1.9131,-1.9269,-1.951,-1.9652,-1.969,-1.9959,-2.0267,-2.0435,-2.0523,-2.0573,-2.056,-2.056,-2.061,-2.0623,-2.0623,-2.061,-2.061,-2.061,-2.0795,-2.0957,-2.1068,-2.1118,-2.1068,-2.1055,-2.1104,-2.1153,-2.1264,-2.1361,-2.1471,-2.1568,-2.1664,-2.1712,-2.1712,-2.1759,-2.1759,-2.1759,-2.1753,-2.1739,-2.1975,-2.2542,-2.2964,-2.346,-2.393,-2.4496,-2.4684,-2.4835,-2.4848,-2.4721,-2.4664,-2.4549,-2.4563,-2.4505,-2.439,-2.4332,-2.4216,-2.4203,-2.4203,-2.4203,-2.4144,-2.4086,-2.4099,-2.4099,-2.4262,-2.4481,-2.4809,-2.5138,-2.5871,-2.6844,-2.7301,-2.755,-2.7523,-2.7443,-1.8948,-1.8788,-1.8641,-1.8487,-1.8328,-1.8074,-1.7833,-1.7595,-1.7549,-1.7425,-1.7306,-1.7199,-1.7561,-1.8079,-1.8354,-1.8905,-1.9354,-1.9632,-1.9609,-1.9398,-1.9176,-1.8927,-1.8697,-1.8517,-1.8333,-1.8135,-1.7975,-1.7868,-1.772,-1.7569,-1.735,-1.7086,-1.708,-1.7106,-1.7237,-1.727,-1.7447,-1.7713,-1.8244,-1.8576,-1.8965,-1.9458,-1.9483,-1.9609,-1.9659,-1.985,-1.985,-1.9875,-2.0105,-2.0169,-2.0233,-2.0283,-2.0271,-2.0321,-2.0271,-2.0182,-2.0182,-2.0182,-2.0055,-2.0055,-2.0055,-2.0055,-2.0105,-2.0308,-2.0422,-2.0536,-2.0485,-2.0623,-2.0723,-2.0822,-2.097,-2.1118,-2.1229,-2.1291,-2.1388,-2.1423,-2.1471,-2.1471,-2.1471,-2.1491,-2.1488,-2.1807,-2.2377,-2.3084,-2.3564,-2.3923,-2.4146,-2.4302,-2.4434,-2.4447,-2.4447,-2.439,-2.4274,-2.4216,-2.4099,-2.3982,-2.3923,-2.3865,-2.391,-2.391,-2.3852,-2.3852,-2.3734,-2.3747,-2.3806,-2.3844,-2.3842,-2.4179,-2.4478,-2.5383,-2.6272,-2.6777,-2.7098,-2.7124,-2.7175,-1.9084,-1.8949,-1.8734,-1.8526,-1.8284,-1.807,-1.7811,-1.7595,-1.7509,-1.7417,-1.7248,-1.705,-1.7417,-1.8137,-1.8359,-1.8761,-1.9528,-1.9581,-1.9523,-1.925,-1.9078,-1.8812,-1.8595,-1.84,-1.8189,-1.8029,-1.7868,-1.772,-1.7569,-1.735,-1.7141,-1.7028,-1.7072,-1.7275,-1.753,-1.7844,-1.8066,-1.8292,-1.8631,-1.907,-1.9397,-1.9686,-1.9863,-1.9926,-2.0029,-2.0016,-2.0016,-2.0016,-2.0016,-1.9978,-1.9978,-1.9926,-1.9926,-1.9875,-1.9875,-1.9772,-1.9784,-1.972,-1.9656,-1.9656,-1.9656,-1.9604,-1.9552,-1.972,-1.9862,-1.9965,-2.0067,-2.0169,-2.0321,-2.0435,-2.0623,-2.0785,-2.0848,-2.0961,-2.1046,-2.1144,-2.118,-2.118,-2.122,-2.1238,-2.1429,-2.1674,-2.226,-2.3014,-2.3556,-2.3602,-2.3809,-2.4066,-2.4157,-2.4171,-2.4171,-2.4112,-2.3995,-2.3865,-2.376,-2.37,-2.37,-2.37,-2.3688,-2.3675,-2.3616,-2.3556,-2.3628,-2.3628,-2.3569,-2.3535,-2.3513,-2.3558,-2.3889,-2.4798,-2.5498,-2.5838,-2.6257,-2.6578,-2.6722,-1.9182,-1.907,-1.8789,-1.8485,-1.8194,-1.7988,-1.7755,-1.7526,-1.7462,-1.7353,-1.7158,-1.6908,-1.7459,-1.8289,-1.8331,-1.8845,-1.9401,-1.9588,-1.9339,-1.9078,-1.8874,-1.8659,-1.8425,-1.8268,-1.8083,-1.7882,-1.7733,-1.7569,-1.735,-1.7141,-1.7015,-1.6999,-1.7288,-1.7517,-1.7751,-1.8355,-1.8695,-1.8933,-1.9008,-1.9258,-1.9635,-1.9786,-1.9798,-1.9798,-1.9811,-1.9811,-1.9759,-1.9759,-1.9708,-1.9617,-1.9565,-1.9565,-1.9512,-1.946,-1.946,-1.9356,-1.942,-1.9368,-1.9303,-1.9251,-1.9303,-1.9303,-1.9303,-1.9316,-1.9356,-1.9617,-1.9772,-1.9811,-1.9965,-2.0118,-2.0321,-2.0472,-2.0586,-2.0749,-2.0848,-2.0947,-2.1059,-2.1046,-2.1073,-2.1209,-2.1599,-2.1877,-2.2168,-2.2971,-2.369,-2.355,-2.361,-2.3872,-2.3878,-2.3878,-2.3891,-2.3891,-2.376,-2.3641,-2.3569,-2.3522,-2.3535,-2.3595,-2.3522,-2.345,-2.3271,-2.339,-2.3509,-2.339,-2.321,-2.321,-2.314,-2.3205,-2.3355,-2.3879,-2.4464,-2.4896,-2.5373,-2.592,-2.6276,-1.9259,-1.9066,-1.8697,-1.8403,-1.8194,-1.7988,-1.7772,-1.7486,-1.732,-1.7224,-1.7083,-1.6943,-1.7365,-1.8298,-1.8237,-1.8709,-1.9486,-1.9435,-1.9191,-1.8927,-1.8736,-1.8503,-1.8268,-1.8083,-1.7922,-1.7733,-1.7569,-1.7363,-1.7141,-1.7002,-1.6901,-1.6893,-1.7257,-1.7642,-1.8003,-1.8709,-1.9058,-1.9345,-1.9304,-1.938,-1.9697,-1.9759,-1.9759,-1.9708,-1.9668,-1.9617,-1.9565,-1.9512,-1.9512,-1.9473,-1.942,-1.942,-1.942,-1.942,-1.9263,-1.9158,-1.9105,-1.8999,-1.8946,-1.8881,-1.8881,-1.8827,-1.8827,-1.8827,-1.8934,-1.9251,-1.946,-1.9565,-1.9656,-1.9811,-2.0016,-2.0182,-2.0385,-2.0536,-2.0699,-2.0812,-2.0924,-2.0924,-2.0924,-2.1297,-2.1773,-2.2049,-2.2271,-2.2844,-2.3571,-2.3826,-2.3807,-2.3891,-2.37,-2.3628,-2.3641,-2.3582,-2.3582,-2.3463,-2.339,-2.3271,-2.3283,-2.3175,-2.3115,-2.3055,-2.2982,-2.3042,-2.315,-2.2982,-2.286,-2.286,-2.2848,-2.2824,-2.3034,-2.3266,-2.3579,-2.4091,-2.4756,-2.5345,-2.579,-1.8959,-1.9082,-1.8678,-1.8383,-1.8172,-1.7922,-1.7664,-1.7415,-1.7175,-1.6968,-1.6885,-1.7013,-1.7527,-1.83,-1.8245,-1.8616,-1.9411,-1.9236,-1.8988,-1.8736,-1.8581,-1.8347,-1.8109,-1.7922,-1.7774,-1.761,-1.735,-1.7141,-1.6973,-1.6871,-1.6824,-1.7011,-1.7471,-1.7931,-1.8398,-1.8821,-1.9179,-1.9488,-1.942,-1.946,-1.9604,-1.9617,-1.9617,-1.9512,-1.9525,-1.942,-1.942,-1.942,-1.938,-1.9275,-1.9223,-1.9052,-1.9052,-1.8999,-1.8934,-1.8881,-1.8827,-1.8774,-1.8614,-1.856,-1.856,-1.856,-1.856,-1.8667,-1.8667,-1.8987,-1.9093,-1.9198,-1.9368,-1.9525,-1.9811,-2.0016,-2.0169,-2.0334,-2.0498,-2.0662,-2.0762,-2.0812,-2.0812,-2.0906,-2.1327,-2.1537,-2.1957,-2.2648,-2.3245,-2.3293,-2.3404,-2.3688,-2.3582,-2.339,-2.339,-2.339,-2.333,-2.3223,-2.3163,-2.303,-2.2969,-2.286,-2.2763,-2.2751,-2.2812,-2.2739,-2.2739,-2.2629,-2.2629,-2.2678,-2.2616,-2.2555,-2.2395,-2.2537,-2.2879,-2.3317,-2.4037,-2.474,-2.5078,-1.8592,-1.9048,-1.8659,-1.838,-1.8151,-1.7816,-1.7532,-1.7272,-1.6986,-1.6732,-1.6611,-1.7083,-1.7651,-1.8097,-1.8383,-1.8862,-1.9134,-1.8997,-1.8774,-1.8528,-1.8425,-1.8149,-1.7963,-1.7801,-1.7556,-1.7308,-1.7044,-1.6918,-1.6833,-1.6815,-1.6999,-1.7335,-1.7765,-1.824,-1.8634,-1.9025,-1.9368,-1.9368,-1.9328,-1.9328,-1.9316,-1.9368,-1.942,-1.9433,-1.938,-1.9368,-1.9316,-1.9316,-1.9223,-1.9117,-1.8905,-1.8839,-1.8721,-1.8721,-1.8679,-1.8625,-1.8614,-1.856,-1.8506,-1.8452,-1.8452,-1.8452,-1.8506,-1.8506,-1.8506,-1.856,-1.8679,-1.8893,-1.9064,-1.9263,-1.9552,-1.9811,-1.9965,-2.0131,-2.0283,-2.0498,-2.0549,-2.0662,-2.0662,-2.0675,-2.0923,-2.1185,-2.1734,-2.2479,-2.2884,-2.2893,-2.3036,-2.3295,-2.3463,-2.3318,-2.3258,-2.3198,-2.3198,-2.309,-2.2969,-2.286,-2.2787,-2.2665,-2.2567,-2.2629,-2.2567,-2.2432,-2.2371,-2.2432,-2.2432,-2.2371,-2.2309,-2.2185,-2.2097,-2.1996,-2.2496,-2.2941,-2.3261,-2.3875,-2.4259,-1.8483,-1.8914,-1.8581,-1.8322,-1.8074,-1.7749,-1.7472,-1.7199,-1.6926,-1.6659,-1.6538,-1.6872,-1.7364,-1.7859,-1.7673,-1.815,-1.9014,-1.8812,-1.8553,-1.8344,-1.8149,-1.7922,-1.772,-1.7461,-1.7212,-1.6989,-1.6735,-1.6607,-1.6609,-1.6828,-1.6992,-1.7143,-1.8105,-1.8499,-1.8608,-1.8985,-1.917,-1.917,-1.9064,-1.8946,-1.9064,-1.9117,-1.934,-1.9287,-1.9223,-1.9117,-1.9011,-1.8905,-1.8839,-1.8732,-1.8679,-1.8625,-1.856,-1.8506,-1.8518,-1.841,-1.841,-1.8356,-1.8302,-1.8182,-1.8127,-1.8073,-1.8073,-1.803,-1.8084,-1.8193,-1.8356,-1.853,-1.8744,-1.9052,-1.9303,-1.9512,-1.972,-1.9914,-2.0118,-2.0233,-2.0334,-2.0448,-2.0511,-2.0705,-2.0977,-2.1225,-2.1577,-2.2415,-2.327,-2.3315,-2.3399,-2.359,-2.3403,-2.3271,-2.3125,-2.3125,-2.3125,-2.3017,-2.2909,-2.28,-2.2678,-2.2555,-2.2371,-2.2309,-2.2185,-2.1949,-2.1949,-2.2073,-2.2011,-2.1949,-2.1886,-2.1937,-2.1824,-2.1832,-2.2244,-2.2657,-2.285,-2.3159,-2.3664]},{"header":{"parameterUnit":"m.s-1","parameterCategory":1,"la1":31.0,"la2":29.5877,"lo1":-88.7671,"lo2":-86.6584,"dy":0.0162,"dx":0.0185,"nx":115,"ny":88,"refTime":"2023-08-16T12:00:00:Z","depth":0,"parameterNumber":3,"parameterNumberName":"V-component_of_WINDS"},"data":[0.0,0.0,0.0,0.0,0.0,0.0,0.0,0.0,0.0,0.0,0.0,0.0,0.0,0.0,0.0,0.0,0.0,0.0,0.0,0.0,0.0,0.0,0.0,0.0,0.0,0.0,0.0,0.0,0.0,0.0,0.0,0.0,0.0,0.0,0.0,0.0,0.0,0.0,0.0,0.0,0.0,0.0,0.0,0.0,0.0,0.0,0.0,0.0,0.0,0.0,0.0,0.0,0.0,0.0,0.0,0.0,0.0,0.0,0.0,0.0,0.0,0.0,0.0,0.0,0.0,0.0,0.0,0.0,0.0,0.0,0.0,0.0,0.0,0.0,0.0,0.0,0.0,0.0,0.0,0.0,0.0,0.0,0.0,0.0,0.0,0.0,0.0,0.0,0.0,0.0,0.0,0.0,0.0,0.0,0.0,0.0,0.0,0.0,0.0,0.0,0.0,0.0,0.0,0.0,0.0,0.0,0.0,0.0,0.0,0.0,0.0,0.0,0.0,0.0,0.0,0.0,0.0,0.0,0.0,0.0,0.0,0.0,0.0,0.0,0.0,0.0,0.0,0.0,0.0,0.0,0.0,0.0,0.0,0.0,0.0,0.0,0.0,0.0,0.0,0.0,0.0,0.0,0.0,0.0,0.0,0.0,0.0,0.0,0.0,0.0,0.0,0.0,0.0,0.0,0.0,0.0,0.0,0.0,0.0,0.0,0.0,0.0,0.0,0.0,0.0,0.0,0.0,0.0,0.0,0.0,0.0,0.0,0.0,0.0,0.0,0.0,0.0,0.0,0.0,0.0,0.0,0.0,0.0,0.0,0.0,0.0,0.0,0.0,0.0,0.0,0.0,0.0,0.0,0.0,0.0,0.0,0.0,0.0,0.0,0.0,0.0,0.0,0.0,0.0,0.0,0.0,0.0,0.0,0.0,0.0,0.0,0.0,0.0,0.0,0.0,0.0,0.0,0.0,0.0,0.0,0.0,0.0,0.0,0.0,0.0,0.0,0.0,0.0,0.0,0.0,0.0,0.0,0.0,0.0,0.0,0.0,0.0,0.0,0.0,0.0,0.0,0.0,0.0,0.0,0.0,0.0,0.0,0.0,0.0,0.0,0.0,0.0,0.0,0.0,0.0,0.0,0.0,0.0,0.0,0.0,0.0,0.0,0.0,0.0,0.0,0.0,0.0,0.0,0.0,0.0,0.0,0.0,0.0,0.0,0.0,0.0,0.0,0.0,0.0,0.0,0.0,0.0,0.0,0.0,0.0,0.0,0.0,0.0,0.0,0.0,0.0,0.0,0.0,0.0,0.0,0.0,0.0,0.0,0.0,0.0,0.0,0.0,0.0,0.0,0.0,0.0,0.0,0.0,0.0,0.0,0.0,0.0,0.0,0.0,0.0,0.0,0.0,0.0,0.0,0.0,0.0,0.0,0.0,0.0,0.0,0.0,0.0,0.0,0.0,0.0,0.0,0.0,0.0,0.0,0.0,0.0,0.0,0.0,0.0,0.0,0.0,0.0,0.0,0.0,0.0,0.0,0.0,0.0,0.0,0.0,0.0,0.0,0.0,0.0,0.0,0.0,0.0,0.0,0.0,0.0,0.0,0.0,0.0,0.0,0.0,0.0,0.0,0.0,0.0,0.0,0.0,0.0,0.0,0.0,0.0,0.0,0.0,0.0,0.0,0.0,0.0,0.0,0.0,0.0,0.0,0.0,0.0,0.0,0.0,0.0,0.0,0.0,0.0,0.0,0.0,0.0,0.0,0.0,0.0,0.0,0.0,0.0,0.0,0.0,0.0,0.0,0.0,0.0,0.0,0.0,0.0,0.0,0.0,0.0,0.0,0.0,0.0,0.0,0.0,0.0,0.0,0.0,0.0,0.0,0.0,0.0,0.0,0.0,0.0,0.0,0.0,0.0,0.0,0.0,0.0,0.0,0.0,0.0,0.0,0.0,0.0,0.0,0.0,0.0,0.0,0.0,0.0,0.0,0.0,0.0,0.0,0.0,0.0,0.0,0.0,0.0,0.0,0.0,0.0,0.0,0.0,0.0,0.0,0.0,0.0,0.0,0.0,0.0,0.0,0.0,0.0,0.0,0.0,0.0,0.0,0.0,0.0,0.0,0.0,0.0,0.0,0.0,0.0,0.0,0.0,0.0,0.0,0.0,0.0,0.0,0.0,0.0,0.0,0.0,0.0,0.0,0.0,0.0,0.0,0.0,0.0,0.0,0.0,0.0,0.0,0.0,0.0,0.0,0.0,0.0,0.0,0.0,0.0,0.0,0.0,0.0,0.0,0.0,0.0,0.0,0.0,0.0,0.0,0.0,0.0,0.0,0.0,0.0,0.0,0.0,0.0,0.0,0.0,0.0,0.0,0.0,0.0,0.0,0.0,0.0,0.0,0.0,0.0,0.0,0.0,0.0,0.0,0.0,0.0,0.0,0.0,0.0,0.0,0.0,0.0,0.0,0.0,0.0,0.0,0.0,0.0,0.0,0.0,0.0,0.0,0.0,0.0,0.0,0.0,0.0,0.0,0.0,0.0,0.0,0.0,0.0,0.0,0.0,0.0,0.0,0.0,0.0,0.0,0.0,0.0,0.0,0.0,0.0,0.0,0.0,0.0,0.0,0.0,0.0,0.0,0.0,0.0,0.0,0.0,0.0,0.0,0.0,0.0,0.0,0.0,0.0,0.0,0.0,0.0,0.0,0.0,0.0,0.0,0.0,0.0,0.0,0.0,0.0,0.0,0.0,0.0,0.0,0.0,0.0,0.0,0.0,0.0,0.0,0.0,0.0,0.0,0.0,0.0,0.0,0.0,0.0,0.0,0.0,0.0,0.0,0.0,0.0,0.0,0.0,0.0,0.0,0.0,0.0,0.0,0.0,0.0,0.0,0.0,0.0,0.0,0.0,0.0,0.0,0.0,0.0,0.0,0.0,0.0,0.0,0.0,0.0,0.0,0.0,0.0,0.0,0.0,0.0,0.0,0.0,0.0,0.0,0.0,0.0,0.0,0.0,0.0,0.0,0.0,0.0,0.0,0.0,0.0,0.0,0.0,0.0,0.0,0.0,0.0,0.0,0.0,0.0,0.0,0.0,0.0,0.0,0.0,0.0,0.0,0.0,0.0,0.0,0.0,0.0,0.0,0.0,0.0,0.0,0.0,0.0,0.0,0.0,0.0,0.0,0.0,0.0,0.0,0.0,0.0,0.0,0.0,0.0,0.0,0.0,0.0,0.0,0.0,0.0,0.0,0.0,0.0,0.0,0.0,0.0,0.0,0.0,0.0,0.0,0.0,0.0,0.0,0.0,0.0,0.0,0.0,0.0,0.0,0.0,0.0,0.0,0.0,0.0,0.0,0.0,0.0,0.0,0.0,0.0,0.0,0.0,0.0,0.0,0.0,0.0,0.0,0.0,0.0,0.0,0.0,0.0,0.0,0.0,0.0,0.0,0.0,0.0,0.0,0.0,0.0,0.0,0.0,0.0,0.0,0.0,0.0,0.0,0.0,0.0,0.0,0.0,0.0,0.0,0.0,0.0,0.0,0.0,0.0,0.0,0.0,0.0,0.0,0.0,0.0,0.0,0.0,0.0,0.0,0.0,0.0,0.0,0.0,0.0,0.0,0.0,0.0,0.0,0.0,0.0,0.0,0.0,0.0,0.0,0.0,0.0,0.0,0.0,0.0,0.0,0.0,0.0,0.0,0.0,0.0,0.0,0.0,0.0,0.0,0.0,0.0,0.0,0.0,0.0,0.0,0.0,0.0,0.0,0.0,0.0,0.0,0.0,0.0,0.0,0.0,0.0,0.0,0.0,0.0,0.0,0.0,0.0,0.0,0.0,0.0,0.0,0.0,0.0,0.0,0.0,0.0,0.0,0.0,0.0,0.0,0.0,0.0,0.0,0.0,0.0,0.0,0.0,0.0,0.0,0.0,0.0,0.0,0.0,0.0,0.0,0.0,0.0,0.0,0.0,0.0,0.0,0.0,0.0,0.0,0.0,0.0,0.0,0.0,0.0,0.0,0.0,0.0,0.0,0.0,0.0,0.0,0.0,0.0,0.0,0.0,0.0,0.0,0.0,0.0,0.0,0.0,0.0,0.0,0.0,0.0,0.0,0.0,0.0,0.0,0.0,0.0,0.0,0.0,0.0,0.0,0.0,0.0,0.0,0.0,0.0,0.0,0.0,0.0,0.0,0.0,0.0,0.0,0.0,0.0,0.0,0.0,0.0,0.0,0.0,0.0,0.0,0.0,0.0,0.0,0.0,0.0,0.0,0.0,0.0,-1.8034,0.0,0.0,0.0,0.0,0.0,0.0,0.0,0.0,0.0,0.0,0.0,0.0,0.0,0.0,0.0,0.0,0.0,0.0,0.0,0.0,0.0,0.0,0.0,0.0,0.0,0.0,0.0,0.0,0.0,0.0,0.0,0.0,0.0,0.0,0.0,0.0,0.0,0.0,0.0,0.0,0.0,0.0,0.0,0.0,0.0,0.0,0.0,0.0,0.0,0.0,0.0,0.0,0.0,0.0,0.0,0.0,0.0,0.0,0.0,0.0,0.0,0.0,0.0,0.0,0.0,0.0,0.0,0.0,0.0,0.0,0.0,0.0,0.0,0.0,0.0,0.0,0.0,0.0,0.0,0.0,0.0,0.0,0.0,0.0,0.0,0.0,0.0,0.0,0.0,0.0,0.0,0.0,0.0,0.0,0.0,0.0,0.0,0.0,0.0,0.0,0.0,0.0,0.0,0.0,0.0,0.0,0.0,0.0,0.0,0.0,-1.8509,-1.8166,-1.7756,-1.7601,-1.7681,0.0,0.0,0.0,0.0,0.0,0.0,0.0,0.0,0.0,0.0,0.0,0.0,0.0,0.0,0.0,0.0,0.0,0.0,0.0,0.0,0.0,0.0,0.0,0.0,0.0,0.0,0.0,0.0,0.0,0.0,0.0,0.0,0.0,0.0,0.0,0.0,0.0,0.0,0.0,0.0,0.0,0.0,0.0,0.0,0.0,0.0,0.0,0.0,0.0,0.0,0.0,0.0,0.0,0.0,0.0,0.0,0.0,0.0,0.0,0.0,0.0,0.0,0.0,0.0,0.0,0.0,0.0,0.0,0.0,0.0,0.0,0.0,0.0,0.0,0.0,0.0,0.0,0.0,0.0,0.0,0.0,0.0,0.0,0.0,0.0,0.0,0.0,0.0,0.0,0.0,0.0,0.0,0.0,0.0,0.0,0.0,0.0,0.0,0.0,0.0,0.0,0.0,0.0,0.0,0.0,0.0,0.0,0.0,0.0,0.0,0.0,0.0,-1.7202,-1.709,-1.7235,0.0,0.0,0.0,0.0,0.0,0.0,0.0,0.0,0.0,0.0,0.0,0.0,0.0,0.0,0.0,0.0,0.0,0.0,0.0,0.0,0.0,0.0,0.0,0.0,0.0,0.0,0.0,0.0,0.0,0.0,0.0,0.0,0.0,0.0,0.0,0.0,0.0,0.0,0.0,0.0,0.0,0.0,0.0,0.0,0.0,0.0,0.0,0.0,0.0,0.0,0.0,0.0,0.0,0.0,0.0,0.0,0.0,0.0,0.0,0.0,0.0,0.0,0.0,0.0,0.0,0.0,0.0,0.0,0.0,0.0,0.0,0.0,0.0,0.0,0.0,0.0,0.0,0.0,0.0,0.0,0.0,0.0,0.0,0.0,0.0,0.0,0.0,0.0,0.0,0.0,0.0,0.0,0.0,0.0,0.0,0.0,0.0,0.0,0.0,0.0,0.0,0.0,0.0,0.0,0.0,0.0,0.0,0.0,0.0,0.0,-1.661,-1.6032,-1.5823,0.0,-1.6218,0.0,0.0,0.0,0.0,0.0,0.0,0.0,0.0,0.0,0.0,0.0,0.0,0.0,0.0,0.0,0.0,0.0,0.0,0.0,0.0,0.0,0.0,0.0,0.0,0.0,0.0,0.0,0.0,0.0,0.0,0.0,0.0,0.0,0.0,0.0,0.0,0.0,0.0,0.0,0.0,0.0,0.0,0.0,0.0,0.0,0.0,0.0,0.0,0.0,0.0,0.0,0.0,0.0,0.0,0.0,0.0,0.0,0.0,0.0,0.0,0.0,0.0,0.0,0.0,0.0,0.0,0.0,0.0,0.0,0.0,0.0,0.0,0.0,0.0,0.0,0.0,0.0,0.0,0.0,0.0,0.0,0.0,0.0,0.0,0.0,0.0,0.0,0.0,0.0,0.0,0.0,0.0,0.0,0.0,0.0,0.0,0.0,0.0,0.0,0.0,0.0,0.0,0.0,0.0,0.0,0.0,0.0,0.0,0.0,0.0,-1.5041,-1.4455,-1.4364,-1.456,0.0,0.0,0.0,0.0,0.0,0.0,0.0,0.0,0.0,0.0,0.0,0.0,0.0,0.0,0.0,0.0,0.0,0.0,0.0,0.0,0.0,0.0,0.0,0.0,0.0,0.0,0.0,0.0,0.0,0.0,0.0,0.0,0.0,0.0,0.0,0.0,0.0,0.0,0.0,0.0,0.0,0.0,0.0,0.0,0.0,0.0,0.0,0.0,0.0,0.0,0.0,0.0,0.0,0.0,0.0,0.0,0.0,0.0,0.0,0.0,0.0,0.0,0.0,0.0,0.0,0.0,0.0,0.0,0.0,0.0,0.0,0.0,0.0,0.0,0.0,0.0,0.0,0.0,0.0,0.0,0.0,0.0,0.0,0.0,0.0,0.0,0.0,0.0,0.0,0.0,0.0,0.0,0.0,0.0,0.0,0.0,0.0,0.0,0.0,0.0,0.0,0.0,0.0,0.0,0.0,0.0,0.0,0.0,0.0,0.0,-1.4432,-1.3697,-1.3157,-1.3111,-1.3368,-1.3978,0.0,0.0,0.0,0.0,0.0,0.0,0.0,0.0,0.0,0.0,0.0,0.0,0.0,0.0,0.0,0.0,0.0,0.0,0.0,0.0,0.0,0.0,0.0,0.0,0.0,0.0,0.0,0.0,0.0,0.0,0.0,0.0,0.0,0.0,0.0,0.0,0.0,0.0,0.0,0.0,0.0,0.0,0.0,0.0,0.0,0.0,0.0,0.0,0.0,0.0,0.0,0.0,0.0,0.0,0.0,0.0,0.0,0.0,0.0,0.0,0.0,0.0,0.0,0.0,0.0,0.0,0.0,0.0,0.0,0.0,0.0,0.0,0.0,0.0,0.0,0.0,0.0,0.0,0.0,0.0,0.0,0.0,0.0,0.0,0.0,0.0,0.0,0.0,0.0,0.0,0.0,0.0,0.0,0.0,0.0,0.0,0.0,0.0,0.0,0.0,0.0,0.0,0.0,0.0,0.0,0.0,0.0,0.0,-1.4716,-1.3473,-1.2624,-1.2087,-1.2109,-1.258,0.0,0.0,0.0,0.0,0.0,0.0,0.0,0.0,0.0,0.0,0.0,0.0,0.0,0.0,0.0,0.0,0.0,0.0,0.0,0.0,0.0,0.0,0.0,0.0,0.0,0.0,0.0,0.0,0.0,0.0,0.0,0.0,0.0,0.0,0.0,0.0,0.0,0.0,0.0,0.0,0.0,0.0,0.0,0.0,0.0,0.0,0.0,0.0,0.0,0.0,0.0,0.0,0.0,0.0,0.0,0.0,0.0,0.0,0.0,0.0,0.0,0.0,0.0,0.0,0.0,0.0,0.0,0.0,0.0,0.0,0.0,0.0,0.0,0.0,0.0,0.0,0.0,0.0,0.0,0.0,0.0,0.0,0.0,0.0,0.0,0.0,0.0,0.0,0.0,0.0,0.0,0.0,0.0,0.0,0.0,0.0,0.0,0.0,0.0,0.0,0.0,0.0,0.0,0.0,0.0,0.0,0.0,0.0,0.0,-1.3189,-1.1574,-1.0629,-1.0498,-1.0717,-1.1266,0.0,0.0,0.0,0.0,0.0,0.0,0.0,0.0,0.0,0.0,0.0,0.0,0.0,0.0,0.0,0.0,0.0,0.0,0.0,0.0,0.0,0.0,0.0,0.0,0.0,0.0,0.0,0.0,0.0,0.0,0.0,0.0,0.0,0.0,0.0,0.0,0.0,0.0,0.0,0.0,0.0,0.0,0.0,0.0,0.0,0.0,0.0,0.0,0.0,0.0,0.0,0.0,0.0,0.0,0.0,0.0,0.0,0.0,0.0,0.0,0.0,0.0,0.0,0.0,0.0,0.0,0.0,0.0,0.0,0.0,0.0,0.0,0.0,0.0,0.0,0.0,0.0,0.0,0.0,0.0,0.0,0.0,0.0,0.0,0.0,0.0,0.0,0.0,0.0,0.0,0.0,0.0,0.0,0.0,0.0,0.0,0.0,0.0,0.0,0.0,0.0,0.0,0.0,0.0,0.0,0.0,0.0,0.0,0.0,-1.1364,0.0,-0.9272,-0.9344,-0.9636,-1.0278,0.0,0.0,0.0,0.0,0.0,0.0,0.0,0.0,0.0,0.0,0.0,0.0,0.0,0.0,0.0,0.0,0.0,0.0,0.0,0.0,0.0,0.0,0.0,0.0,0.0,0.0,0.0,0.0,0.0,0.0,0.0,0.0,0.0,0.0,0.0,0.0,0.0,0.0,0.0,0.0,0.0,0.0,0.0,0.0,0.0,0.0,0.0,0.0,0.0,0.0,0.0,0.0,0.0,0.0,0.0,0.0,0.0,0.0,0.0,0.0,0.0,0.0,0.0,0.0,0.0,0.0,0.0,0.0,0.0,0.0,0.0,0.0,0.0,0.0,0.0,0.0,0.0,0.0,0.0,0.0,0.0,0.0,0.0,0.0,0.0,0.0,0.0,0.0,0.0,0.0,0.0,0.0,0.0,0.0,0.0,0.0,0.0,0.0,0.0,0.0,0.0,0.0,0.0,0.0,0.0,0.0,0.0,0.0,-1.1376,-0.9352,-0.867,-0.8433,-0.8694,-0.9049,-0.9739,0.0,0.0,0.0,0.0,0.0,0.0,0.0,0.0,0.0,0.0,0.0,0.0,0.0,0.0,0.0,0.0,0.0,0.0,0.0,0.0,0.0,0.0,0.0,0.0,0.0,0.0,0.0,0.0,0.0,0.0,0.0,0.0,0.0,0.0,0.0,0.0,0.0,0.0,0.0,0.0,0.0,0.0,0.0,0.0,0.0,0.0,0.0,0.0,0.0,0.0,0.0,0.0,0.0,0.0,0.0,0.0,0.0,0.0,0.0,0.0,0.0,0.0,0.0,0.0,0.0,0.0,0.0,0.0,0.0,0.0,0.0,0.0,0.0,0.0,0.0,0.0,0.0,0.0,0.0,0.0,0.0,0.0,0.0,0.0,0.0,0.0,0.0,0.0,0.0,0.0,0.0,0.0,0.0,0.0,0.0,0.0,0.0,0.0,0.0,0.0,0.0,0.0,0.0,0.0,0.0,0.0,0.0,0.0,0.0,-0.7851,-0.7395,-0.7246,-0.7476,-0.8008,-0.8765,0.0,0.0,0.0,0.0,0.0,0.0,0.0,0.0,0.0,0.0,0.0,0.0,0.0,0.0,0.0,0.0,0.0,0.0,0.0,0.0,0.0,0.0,0.0,0.0,0.0,0.0,0.0,0.0,0.0,0.0,0.0,0.0,0.0,0.0,0.0,0.0,0.0,0.0,0.0,0.0,0.0,0.0,0.0,0.0,0.0,0.0,0.0,0.0,0.0,0.0,0.0,0.0,0.0,0.0,0.0,0.0,0.0,0.0,0.0,0.0,0.0,0.0,0.0,0.0,0.0,0.0,0.0,0.0,0.0,0.0,0.0,0.0,0.0,0.0,0.0,0.0,0.0,0.0,0.0,0.0,0.0,0.0,0.0,0.0,0.0,0.0,0.0,0.0,0.0,0.0,0.0,0.0,0.0,0.0,0.0,0.0,0.0,0.0,0.0,0.0,0.0,0.0,0.0,0.0,0.0,0.0,0.0,0.0,0.0,-0.6493,-0.6413,-0.6493,-0.6648,-0.7219,-0.8039,-0.912,0.0,0.0,0.0,0.0,0.0,0.0,0.0,0.0,0.0,0.0,0.0,0.0,0.0,0.0,0.0,0.0,0.0,0.0,0.0,0.0,0.0,0.0,0.0,0.0,0.0,0.0,0.0,0.0,0.0,0.0,0.0,0.0,0.0,0.0,0.0,0.0,0.0,0.0,0.0,0.0,0.0,0.0,0.0,0.0,0.0,0.0,0.0,0.0,0.0,0.0,0.0,0.0,0.0,0.0,0.0,0.0,0.0,0.0,0.0,0.0,0.0,0.0,0.0,0.0,0.0,0.0,0.0,0.0,0.0,0.0,0.0,0.0,0.0,0.0,0.0,0.0,0.0,0.0,0.0,0.0,0.0,0.0,0.0,0.0,0.0,0.0,0.0,0.0,0.0,0.0,0.0,0.0,0.0,0.0,0.0,0.0,0.0,0.0,0.0,0.0,0.0,0.0,0.0,0.0,0.0,0.0,0.0,0.0,-0.5304,-0.5722,-0.6043,-0.6268,-0.6715,-0.7601,0.0,0.0,0.0,0.0,0.0,0.0,0.0,0.0,0.0,0.0,0.0,0.0,0.0,0.0,0.0,0.0,0.0,0.0,0.0,0.0,0.0,0.0,0.0,0.0,0.0,0.0,0.0,0.0,0.0,0.0,0.0,0.0,0.0,0.0,0.0,0.0,0.0,0.0,0.0,0.0,0.0,0.0,0.0,0.0,0.0,0.0,0.0,0.0,0.0,0.0,0.0,0.0,0.0,0.0,0.0,0.0,0.0,0.0,0.0,0.0,0.0,0.0,0.0,0.0,0.0,0.0,0.0,0.0,0.0,0.0,0.0,0.0,0.0,0.0,0.0,0.0,0.0,0.0,0.0,0.0,0.0,0.0,0.0,0.0,0.0,0.0,0.0,0.0,0.0,0.0,0.0,0.0,0.0,0.0,0.0,0.0,0.0,0.0,0.0,0.0,0.0,0.0,0.0,0.0,0.0,0.0,0.0,0.0,0.0,-0.493,-0.5285,-0.5634,-0.5868,-0.6572,-0.7531,0.0,0.0,0.0,0.0,0.0,0.0,0.0,0.0,0.0,0.0,0.0,0.0,0.0,0.0,0.0,0.0,0.0,0.0,0.0,0.0,0.0,0.0,0.0,0.0,0.0,0.0,0.0,0.0,0.0,0.0,0.0,0.0,0.0,0.0,0.0,0.0,0.0,0.0,0.0,0.0,0.0,0.0,0.0,0.0,0.0,0.0,0.0,0.0,0.0,0.0,0.0,0.0,0.0,0.0,0.0,0.0,0.0,0.0,0.0,0.0,0.0,0.0,0.0,0.0,0.0,0.0,0.0,0.0,0.0,0.0,0.0,0.0,0.0,0.0,0.0,0.0,0.0,0.0,0.0,0.0,0.0,0.0,0.0,0.0,0.0,0.0,0.0,0.0,0.0,0.0,0.0,0.0,0.0,0.0,0.0,0.0,0.0,0.0,0.0,0.0,0.0,0.0,0.0,0.0,0.0,0.0,0.0,0.0,-0.539,-0.4835,-0.5104,-0.5396,-0.586,-0.6567,-0.7537,0.0,0.0,0.0,0.0,0.0,0.0,0.0,0.0,0.0,0.0,0.0,0.0,0.0,0.0,0.0,0.0,0.0,0.0,0.0,0.0,0.0,0.0,0.0,0.0,0.0,0.0,0.0,0.0,0.0,0.0,0.0,0.0,0.0,0.0,0.0,0.0,0.0,0.0,0.0,0.0,0.0,0.0,0.0,0.0,0.0,0.0,0.0,0.0,0.0,0.0,0.0,0.0,0.0,0.0,0.0,0.0,0.0,0.0,0.0,0.0,0.0,0.0,0.0,0.0,0.0,0.0,0.0,0.0,0.0,0.0,0.0,0.0,0.0,0.0,0.0,0.0,0.0,0.0,0.0,0.0,0.0,0.0,0.0,0.0,0.0,0.0,0.0,0.0,0.0,0.0,0.0,0.0,0.0,0.0,0.0,0.0,0.0,0.0,0.0,0.0,0.0,0.0,0.0,0.0,0.0,0.0,0.0,0.0,-0.5191,-0.501,-0.501,-0.5369,-0.608,-0.666,-0.7532,0.0,0.0,0.0,0.0,0.0,0.0,0.0,0.0,0.0,0.0,0.0,0.0,0.0,0.0,0.0,0.0,0.0,0.0,0.0,0.0,0.0,0.0,0.0,0.0,0.0,0.0,0.0,0.0,0.0,0.0,0.0,0.0,0.0,0.0,0.0,0.0,0.0,0.0,0.0,0.0,0.0,0.0,0.0,0.0,0.0,0.0,0.0,0.0,0.0,0.0,0.0,0.0,0.0,0.0,0.0,0.0,0.0,0.0,0.0,0.0,0.0,0.0,0.0,0.0,0.0,0.0,0.0,0.0,0.0,0.0,0.0,0.0,0.0,0.0,0.0,0.0,0.0,0.0,0.0,0.0,0.0,0.0,0.0,0.0,0.0,0.0,0.0,0.0,0.0,0.0,0.0,0.0,0.0,0.0,0.0,0.0,0.0,0.0,0.0,0.0,0.0,0.0,0.0,0.0,0.0,0.0,0.0,0.0,-0.5013,-0.475,-0.5104,-0.5636,-0.6343,-0.7017,-0.796,0.0,0.0,0.0,0.0,0.0,0.0,0.0,0.0,0.0,0.0,0.0,0.0,0.0,0.0,0.0,0.0,0.0,0.0,0.0,0.0,0.0,0.0,0.0,0.0,0.0,0.0,0.0,0.0,0.0,0.0,0.0,0.0,0.0,0.0,0.0,0.0,0.0,0.0,0.0,0.0,0.0,0.0,0.0,0.0,0.0,0.0,0.0,0.0,-2.4115,0.0,0.0,0.0,0.0,0.0,0.0,0.0,0.0,0.0,0.0,0.0,0.0,0.0,0.0,0.0,0.0,0.0,0.0,0.0,0.0,0.0,0.0,0.0,0.0,0.0,0.0,0.0,0.0,0.0,0.0,0.0,0.0,0.0,0.0,0.0,0.0,0.0,0.0,0.0,0.0,0.0,0.0,0.0,0.0,0.0,0.0,0.0,0.0,0.0,0.0,0.0,0.0,0.0,0.0,0.0,0.0,0.0,0.0,0.0,-0.5102,-0.4837,-0.528,-0.5899,-0.6612,-0.7404,-0.8281,0.0,0.0,0.0,0.0,0.0,0.0,0.0,0.0,0.0,0.0,0.0,0.0,0.0,0.0,0.0,0.0,0.0,0.0,0.0,0.0,0.0,0.0,0.0,0.0,0.0,0.0,0.0,0.0,0.0,0.0,0.0,0.0,0.0,0.0,0.0,0.0,0.0,0.0,0.0,0.0,0.0,0.0,0.0,0.0,0.0,0.0,0.0,0.0,0.0,0.0,0.0,0.0,0.0,0.0,0.0,0.0,0.0,0.0,0.0,0.0,0.0,0.0,0.0,0.0,0.0,0.0,0.0,0.0,0.0,0.0,0.0,0.0,0.0,0.0,0.0,0.0,0.0,0.0,0.0,0.0,0.0,0.0,0.0,0.0,0.0,0.0,0.0,0.0,0.0,0.0,0.0,0.0,0.0,0.0,0.0,0.0,0.0,0.0,0.0,0.0,0.0,0.0,0.0,0.0,0.0,0.0,0.0,-0.5415,-0.533,-0.5238,-0.5578,-0.6195,-0.6913,-0.7886,-0.8752,-0.9689,0.0,0.0,0.0,0.0,0.0,0.0,0.0,0.0,0.0,0.0,0.0,0.0,0.0,0.0,0.0,0.0,0.0,0.0,0.0,0.0,0.0,0.0,0.0,0.0,0.0,0.0,0.0,0.0,0.0,0.0,0.0,0.0,0.0,0.0,0.0,0.0,0.0,0.0,-2.2778,-2.2324,0.0,0.0,0.0,0.0,0.0,0.0,0.0,0.0,-2.3268,0.0,0.0,0.0,0.0,0.0,0.0,0.0,0.0,0.0,0.0,0.0,0.0,0.0,0.0,0.0,0.0,0.0,0.0,0.0,0.0,0.0,0.0,0.0,0.0,0.0,0.0,0.0,0.0,0.0,0.0,0.0,0.0,0.0,0.0,0.0,0.0,0.0,0.0,0.0,0.0,0.0,0.0,0.0,0.0,0.0,0.0,0.0,0.0,0.0,0.0,0.0,0.0,0.0,0.0,0.0,0.0,-0.5783,-0.5694,-0.574,-0.593,-0.6293,-0.6781,-0.7507,-0.8501,-0.9415,-1.013,0.0,0.0,0.0,0.0,0.0,0.0,0.0,0.0,0.0,0.0,0.0,0.0,0.0,0.0,0.0,0.0,0.0,0.0,0.0,0.0,0.0,0.0,0.0,0.0,0.0,0.0,0.0,0.0,0.0,0.0,0.0,0.0,0.0,0.0,0.0,0.0,0.0,0.0,0.0,-2.1755,-2.1794,0.0,0.0,0.0,0.0,0.0,0.0,0.0,0.0,-2.3791,0.0,0.0,0.0,0.0,0.0,0.0,0.0,0.0,0.0,0.0,0.0,0.0,0.0,0.0,0.0,0.0,0.0,0.0,0.0,0.0,0.0,0.0,0.0,0.0,0.0,0.0,0.0,0.0,0.0,0.0,0.0,0.0,0.0,0.0,0.0,0.0,0.0,0.0,0.0,0.0,0.0,0.0,0.0,0.0,0.0,0.0,0.0,0.0,0.0,0.0,0.0,0.0,0.0,0.0,0.0,-0.5909,-0.5927,-0.5989,-0.6086,-0.6587,-0.7297,-0.8037,-0.905,-0.9876,0.0,0.0,0.0,0.0,0.0,0.0,0.0,0.0,0.0,0.0,0.0,0.0,0.0,0.0,0.0,0.0,0.0,0.0,0.0,0.0,0.0,0.0,0.0,0.0,0.0,0.0,0.0,0.0,0.0,0.0,0.0,0.0,0.0,0.0,0.0,0.0,0.0,0.0,0.0,0.0,-2.0882,-2.0817,-2.0925,0.0,0.0,0.0,0.0,0.0,0.0,-2.2432,-2.3144,0.0,0.0,0.0,0.0,0.0,0.0,0.0,0.0,0.0,0.0,0.0,0.0,0.0,0.0,0.0,0.0,0.0,0.0,0.0,0.0,0.0,0.0,0.0,0.0,0.0,0.0,0.0,0.0,0.0,0.0,0.0,0.0,0.0,0.0,0.0,0.0,0.0,0.0,0.0,0.0,0.0,0.0,0.0,0.0,0.0,0.0,0.0,0.0,0.0,0.0,0.0,0.0,0.0,0.0,0.0,-0.6073,-0.6192,-0.6252,-0.6443,-0.708,-0.7823,-0.8577,-0.9516,-1.0357,0.0,0.0,0.0,0.0,0.0,0.0,0.0,0.0,0.0,0.0,0.0,0.0,0.0,0.0,0.0,0.0,0.0,0.0,0.0,0.0,0.0,0.0,0.0,0.0,0.0,0.0,0.0,0.0,0.0,0.0,0.0,0.0,0.0,0.0,0.0,0.0,0.0,0.0,0.0,0.0,0.0,-1.9754,-2.0029,-1.9929,0.0,0.0,0.0,0.0,-2.1037,-2.1644,0.0,0.0,0.0,0.0,0.0,0.0,0.0,0.0,0.0,0.0,0.0,0.0,0.0,0.0,0.0,0.0,0.0,0.0,0.0,0.0,0.0,0.0,0.0,0.0,0.0,0.0,0.0,0.0,0.0,0.0,0.0,0.0,0.0,0.0,0.0,0.0,0.0,0.0,0.0,0.0,0.0,0.0,0.0,0.0,0.0,0.0,0.0,0.0,0.0,0.0,0.0,0.0,0.0,0.0,0.0,0.0,-0.6614,-0.6735,-0.6997,-0.7381,-0.7845,-0.8453,-0.9228,-0.9988,-1.0834,0.0,0.0,0.0,0.0,0.0,0.0,0.0,0.0,0.0,0.0,0.0,0.0,0.0,0.0,0.0,0.0,0.0,0.0,0.0,0.0,0.0,0.0,0.0,0.0,0.0,0.0,0.0,0.0,0.0,0.0,0.0,0.0,0.0,0.0,0.0,0.0,0.0,0.0,0.0,0.0,0.0,-1.9031,-1.9343,-1.9391,-1.9477,0.0,0.0,-2.0414,-2.1225,-2.1265,0.0,0.0,0.0,0.0,0.0,0.0,0.0,0.0,0.0,0.0,0.0,0.0,0.0,0.0,0.0,0.0,0.0,0.0,0.0,0.0,0.0,0.0,0.0,0.0,0.0,0.0,0.0,0.0,0.0,0.0,0.0,0.0,0.0,0.0,0.0,0.0,0.0,0.0,0.0,0.0,0.0,0.0,0.0,0.0,0.0,0.0,0.0,0.0,0.0,0.0,0.0,0.0,0.0,0.0,0.0,-0.7711,-0.7143,-0.7171,-0.7437,-0.7832,-0.8459,-0.9108,-0.9896,-1.0863,-1.1723,0.0,0.0,0.0,0.0,0.0,0.0,0.0,0.0,0.0,0.0,0.0,0.0,0.0,0.0,0.0,0.0,0.0,0.0,0.0,0.0,0.0,0.0,0.0,0.0,0.0,0.0,0.0,0.0,0.0,0.0,0.0,0.0,0.0,0.0,0.0,0.0,0.0,0.0,0.0,0.0,0.0,0.0,-1.8648,-1.8581,0.0,0.0,0.0,-1.9878,-2.0426,0.0,0.0,0.0,0.0,0.0,0.0,0.0,0.0,0.0,0.0,0.0,0.0,0.0,0.0,0.0,0.0,0.0,0.0,0.0,0.0,0.0,0.0,0.0,0.0,0.0,0.0,0.0,0.0,0.0,0.0,0.0,0.0,0.0,0.0,0.0,0.0,0.0,0.0,0.0,0.0,0.0,0.0,0.0,0.0,0.0,0.0,0.0,0.0,0.0,0.0,0.0,0.0,0.0,0.0,0.0,0.0,0.0,-0.7677,-0.7776,-0.7932,-0.8336,-0.9023,-0.9813,-1.0703,-1.1683,0.0,0.0,0.0,0.0,0.0,0.0,0.0,0.0,0.0,0.0,0.0,0.0,0.0,0.0,0.0,0.0,0.0,0.0,0.0,0.0,0.0,0.0,0.0,0.0,0.0,0.0,0.0,-2.133,0.0,0.0,0.0,0.0,0.0,0.0,0.0,0.0,0.0,0.0,0.0,0.0,0.0,0.0,-1.7626,-1.8003,-1.7817,-1.7925,0.0,0.0,-1.9436,-2.0024,-2.0565,-2.1247,0.0,0.0,0.0,0.0,0.0,0.0,0.0,0.0,0.0,0.0,0.0,0.0,0.0,0.0,0.0,0.0,0.0,0.0,0.0,0.0,0.0,0.0,0.0,0.0,0.0,0.0,0.0,0.0,0.0,0.0,0.0,0.0,0.0,0.0,0.0,0.0,0.0,0.0,0.0,0.0,0.0,0.0,0.0,0.0,0.0,0.0,0.0,0.0,0.0,0.0,0.0,0.0,0.0,0.0,-0.8612,-0.8319,-0.8329,-0.8627,-0.9118,-0.962,-1.0413,-1.1487,-1.2268,-1.313,0.0,0.0,0.0,0.0,0.0,0.0,0.0,0.0,0.0,0.0,0.0,0.0,0.0,0.0,0.0,0.0,0.0,0.0,0.0,0.0,0.0,0.0,0.0,0.0,0.0,0.0,0.0,0.0,0.0,0.0,0.0,0.0,0.0,0.0,0.0,0.0,0.0,0.0,0.0,0.0,0.0,-1.6894,-1.749,-1.7531,-1.7844,0.0,-1.8752,-1.9254,-2.0594,-2.0305,-2.0492,-2.2121,0.0,0.0,0.0,0.0,0.0,0.0,0.0,0.0,0.0,0.0,0.0,0.0,0.0,0.0,0.0,0.0,0.0,0.0,0.0,0.0,0.0,0.0,0.0,0.0,0.0,0.0,0.0,0.0,0.0,0.0,0.0,0.0,0.0,0.0,0.0,0.0,0.0,0.0,0.0,0.0,0.0,0.0,0.0,0.0,0.0,0.0,0.0,0.0,0.0,0.0,0.0,0.0,0.0,-0.9229,-0.913,-0.913,-0.9422,-0.9916,-1.0605,-1.1394,-1.2268,-1.3238,-1.4196,0.0,0.0,0.0,0.0,0.0,0.0,0.0,0.0,0.0,0.0,0.0,0.0,0.0,0.0,0.0,0.0,0.0,0.0,0.0,0.0,0.0,0.0,0.0,0.0,0.0,0.0,0.0,0.0,-1.966,-1.9068,-1.7873,0.0,0.0,0.0,0.0,0.0,0.0,0.0,0.0,0.0,0.0,-1.6762,-1.6977,-1.7213,0.0,0.0,-1.8447,-1.9,-1.9768,-2.0288,-2.0708,-2.1379,-2.2013,0.0,0.0,0.0,0.0,0.0,0.0,0.0,0.0,0.0,0.0,0.0,0.0,0.0,0.0,0.0,0.0,0.0,0.0,0.0,0.0,0.0,0.0,0.0,0.0,0.0,0.0,0.0,0.0,0.0,0.0,0.0,0.0,0.0,0.0,0.0,0.0,0.0,0.0,0.0,0.0,0.0,0.0,0.0,0.0,0.0,0.0,0.0,0.0,0.0,0.0,0.0,0.0,-0.9924,-0.9924,-0.9924,-1.022,-1.0904,-1.159,-1.2365,-1.3147,-1.4202,-1.5255,0.0,0.0,0.0,0.0,0.0,0.0,0.0,0.0,0.0,0.0,0.0,0.0,0.0,0.0,0.0,0.0,0.0,0.0,0.0,0.0,0.0,0.0,0.0,0.0,0.0,0.0,0.0,0.0,-1.884,-1.8123,-1.6999,0.0,0.0,0.0,0.0,0.0,0.0,0.0,0.0,0.0,0.0,-1.6418,-1.6524,-1.6842,-1.7166,-1.7582,-1.8199,-1.8833,-1.9264,-2.0094,-2.0712,-2.0917,0.0,0.0,0.0,0.0,0.0,0.0,0.0,0.0,0.0,0.0,0.0,0.0,0.0,0.0,0.0,0.0,0.0,0.0,0.0,0.0,0.0,0.0,0.0,0.0,0.0,0.0,0.0,0.0,0.0,0.0,-1.9942,0.0,0.0,0.0,0.0,0.0,0.0,0.0,0.0,0.0,0.0,0.0,0.0,0.0,0.0,0.0,0.0,0.0,0.0,0.0,0.0,0.0,0.0,-1.0801,-1.0806,-1.0801,-1.1194,-1.198,-1.2467,-1.3238,-1.4202,-1.5255,-1.6298,-1.7232,0.0,0.0,0.0,0.0,0.0,0.0,0.0,0.0,0.0,0.0,0.0,0.0,0.0,0.0,0.0,0.0,0.0,0.0,0.0,0.0,0.0,0.0,0.0,0.0,0.0,0.0,-1.8748,-1.7779,-1.6933,0.0,0.0,0.0,0.0,0.0,0.0,0.0,0.0,0.0,-1.5535,-1.5565,-1.569,-1.6217,-1.653,-1.6948,-1.747,-1.8003,-1.8639,-1.9175,-1.9776,-2.0285,0.0,0.0,0.0,0.0,0.0,0.0,0.0,0.0,0.0,0.0,0.0,0.0,0.0,0.0,0.0,0.0,0.0,0.0,0.0,0.0,0.0,0.0,0.0,0.0,0.0,0.0,0.0,-2.0333,-2.0098,0.0,0.0,0.0,0.0,0.0,0.0,0.0,0.0,0.0,0.0,0.0,-1.939,-1.8931,0.0,0.0,0.0,0.0,0.0,0.0,0.0,0.0,0.0,0.0,0.0,0.0,-1.1688,-1.1883,-1.1683,-1.2068,-1.2937,-1.3528,-1.4292,-1.5255,-1.6292,-1.7512,-1.8996,0.0,0.0,0.0,0.0,0.0,0.0,0.0,0.0,0.0,0.0,0.0,0.0,0.0,0.0,0.0,0.0,0.0,0.0,0.0,0.0,0.0,0.0,0.0,0.0,0.0,-1.8133,0.0,0.0,0.0,0.0,0.0,0.0,0.0,0.0,0.0,0.0,0.0,-1.5143,-1.5148,-1.5369,-1.5589,-1.5696,-1.6318,-1.673,0.0,0.0,0.0,0.0,0.0,0.0,0.0,0.0,0.0,0.0,0.0,0.0,0.0,0.0,-2.2946,-2.3347,-2.3141,-2.2854,-2.2854,0.0,0.0,0.0,0.0,0.0,0.0,0.0,0.0,0.0,0.0,0.0,0.0,0.0,0.0,-1.9951,0.0,-1.9706,0.0,0.0,0.0,0.0,0.0,0.0,0.0,0.0,-1.9292,-1.9292,-1.9292,-1.8922,-1.8833,0.0,-1.8339,-1.8021,0.0,0.0,0.0,0.0,0.0,0.0,0.0,0.0,-1.2559,-1.2754,-1.2651,-1.3033,-1.3992,-1.4478,-1.5153,-1.6197,-1.7412,-1.8664,-1.9833,-1.9826,-1.9934,0.0,0.0,0.0,0.0,0.0,0.0,0.0,0.0,0.0,0.0,0.0,0.0,0.0,0.0,0.0,0.0,0.0,0.0,0.0,0.0,0.0,0.0,0.0,-1.7269,0.0,0.0,0.0,0.0,0.0,0.0,0.0,0.0,0.0,-1.4793,-1.4815,-1.4832,-1.4951,-1.516,-1.5369,-1.5583,0.0,0.0,0.0,0.0,0.0,0.0,0.0,-2.0086,-2.0086,-2.0798,-2.142,-2.1827,-2.2241,-2.2653,-2.2653,0.0,0.0,-2.3046,-2.2946,-2.2854,-2.2846,-2.2745,-2.2653,-2.2653,-2.2252,-2.2004,0.0,0.0,0.0,0.0,0.0,0.0,0.0,0.0,-1.9953,-1.9645,0.0,-1.9381,0.0,0.0,0.0,0.0,0.0,-1.9292,0.0,0.0,-1.9292,-1.9301,-1.9301,-1.9073,-1.9236,-1.9706,-1.9298,-1.9075,-1.9082,-1.7462,0.0,0.0,0.0,0.0,0.0,0.0,-1.3511,-1.3511,-1.3511,-1.4088,-1.5051,-1.5337,-1.6001,-1.7016,-1.8688,-1.9636,-1.9735,-2.0202,-2.0319,-1.9952,-2.0178,0.0,0.0,0.0,0.0,0.0,0.0,0.0,0.0,0.0,0.0,0.0,0.0,0.0,0.0,0.0,0.0,0.0,0.0,0.0,0.0,-1.6951,0.0,0.0,0.0,0.0,0.0,0.0,0.0,0.0,0.0,0.0,-1.4583,-1.439,-1.4407,-1.4934,0.0,0.0,0.0,0.0,-1.6723,-1.6723,-1.7681,-1.8422,-1.8422,-1.9354,-2.0086,-2.0086,0.0,0.0,-2.203,-2.2325,-2.2619,-2.2627,-2.2619,-2.2627,-2.2619,-2.2627,-2.2644,-2.2653,-2.2653,-2.2653,-2.2627,-2.2252,-2.2004,-2.2451,0.0,0.0,0.0,0.0,-2.1841,-2.1283,-2.0428,-1.9998,-1.9715,-1.9557,-1.939,0.0,0.0,0.0,0.0,0.0,0.0,-1.939,-1.9478,-1.9557,-1.9478,-1.9478,-1.9311,-1.9199,-1.92,-1.9158,-1.9092,-1.9138,-1.8478,-1.7657,-1.6628,0.0,0.0,0.0,0.0,-1.4669,-1.4669,-1.4669,-1.5051,-1.5906,-1.6278,-1.7108,-1.8348,-1.9175,-1.9886,-2.0278,-2.031,-2.0372,-2.0585,-2.0416,0.0,0.0,0.0,0.0,0.0,0.0,0.0,0.0,0.0,0.0,0.0,0.0,0.0,0.0,0.0,0.0,0.0,0.0,0.0,-1.6581,-1.6103,-1.584,0.0,0.0,0.0,0.0,0.0,0.0,0.0,0.0,0.0,-1.4288,-1.4293,-1.4299,0.0,0.0,-1.5148,-1.5583,-1.6211,-1.6723,-1.6723,-1.7681,0.0,-1.8422,-1.9354,-2.0086,-2.0086,-2.0901,-2.1725,-2.2021,-2.2121,-2.2158,-2.2158,-2.215,-2.2158,-2.2167,-2.2372,-2.2636,-2.2653,-2.2653,-2.2653,-2.2636,-2.2252,-2.1996,-2.1933,-2.2379,-2.2544,-2.2436,-2.2109,-2.1675,-2.1157,-2.0505,-2.0096,-1.9784,-1.9715,-1.9627,-1.9548,-1.9539,-1.9539,0.0,0.0,0.0,-1.9627,-1.9715,-1.9715,-1.9706,-1.9715,-1.9627,-1.9482,-1.9344,-1.9383,-1.9434,-1.9306,-1.9223,-1.8684,-1.787,0.0,0.0,-1.5717,-1.5724,-1.5622,-1.552,-1.5622,-1.6008,-1.6574,-1.7201,-1.7985,-1.882,-1.9329,-1.9764,-2.0143,-2.0218,-2.0258,-2.0349,-2.0251,-2.0098,0.0,0.0,0.0,0.0,0.0,0.0,0.0,0.0,0.0,0.0,0.0,-1.9143,-1.8888,0.0,0.0,0.0,-1.7225,-1.6574,-1.573,-1.5445,0.0,0.0,0.0,0.0,0.0,0.0,0.0,-1.404,-1.4137,-1.4196,-1.4196,-1.4299,-1.4396,-1.4702,-1.4928,-1.5114,-1.5553,0.0,-1.6797,-1.6898,-1.7617,-1.8247,-1.8351,-1.9169,-1.9798,-2.0101,-2.0797,-2.1396,-2.1578,-2.1705,-2.1773,-2.1764,-2.1764,-2.1764,-2.1764,-2.1953,-2.2158,-2.2295,-2.2329,-2.2287,-2.2141,-2.1807,-2.1559,-2.133,-2.1769,-2.2006,-2.2158,-2.2334,-2.1308,-2.0941,-2.0803,-2.0191,-1.9942,-1.9942,-1.9932,-1.9872,-1.9872,-1.9872,0.0,-1.9872,-1.9872,-1.9942,-1.9942,-1.9942,-1.9951,-1.9942,-1.9951,-1.9912,-1.987,-1.9916,-1.9808,-1.9703,-1.9675,-1.9507,-1.919,-1.828,-1.7483,-1.677,-1.6683,-1.6567,-1.6257,-1.6539,-1.6915,-1.7345,-1.797,-1.8442,-1.8801,-1.9196,-1.953,-1.9588,-1.9961,-1.9947,-1.9673,-1.9794,-1.9706,-1.9301,0.0,0.0,0.0,0.0,0.0,0.0,0.0,0.0,0.0,0.0,0.0,0.0,0.0,0.0,0.0,-1.6298,0.0,-1.5343,-1.4975,0.0,0.0,0.0,-1.4004,-1.4173,-1.4008,-1.3793,-1.3793,0.0,0.0,-1.4137,-1.4449,-1.4646,-1.4955,-1.4984,-1.5234,-1.5823,-1.6292,-1.6781,-1.7045,-1.7619,-1.8041,-1.8346,-1.8833,-1.945,-2.0135,-2.0467,-2.0798,-2.1071,-2.1196,-2.1379,-2.1362,-2.1371,-2.1371,-2.1466,-2.1509,-2.1612,-2.1939,-2.1936,-2.185,-2.1629,-2.1285,-2.1045,-2.0903,-2.1305,-2.1085,-2.1207,-2.1523,-2.1238,-2.0946,-2.0635,-2.0381,-2.0186,-2.0186,-2.002,-1.9872,-1.9872,-1.9872,-1.9872,-1.9872,-1.9872,-2.002,-2.0177,-2.0186,-2.0177,-2.0186,-2.0177,-2.0077,-1.9874,-1.994,-1.9861,-1.9895,-1.9571,-1.9324,-1.9157,-1.8737,-1.8295,-1.7785,-1.7527,-1.7316,-1.6974,-1.7066,-1.7213,-1.7598,-1.8113,-1.8587,-1.8918,-1.9151,-1.937,-1.9574,-1.9706,-1.9739,-1.9576,-1.9469,-1.9301,-1.9082,-1.8754,0.0,0.0,0.0,0.0,0.0,0.0,0.0,0.0,0.0,-1.7856,-1.7804,0.0,-1.7239,0.0,-1.5927,-1.535,-1.4873,-1.479,0.0,0.0,-1.4044,-1.383,-1.3729,-1.3664,-1.3561,-1.3561,-1.3615,-1.3756,-1.3964,-1.4062,-1.4263,-1.4671,-1.4937,-1.5175,-1.554,-1.5852,-1.6285,-1.6726,-1.731,-1.7817,-1.8309,-1.895,-1.9665,-2.0467,-2.066,-2.0853,-2.1222,-2.1087,-2.1105,-2.1181,-2.1275,-2.1369,-2.1547,-2.1784,-2.1786,-2.1775,-2.164,-2.1621,-2.1709,-2.1397,-2.1238,-2.0504,-2.0879,-2.0462,-2.0541,-2.0937,-2.0937,-2.0791,-2.0566,-2.0489,-2.0411,-2.0411,-2.0264,-2.0177,-2.0186,-2.0177,-2.0255,-2.0177,-2.0177,-2.0333,-2.0411,-2.042,-2.0411,-2.042,-2.042,-2.0333,-2.0117,-2.0108,-1.9993,-1.9852,-1.9722,-1.9583,-1.9418,-1.9076,-1.8758,-1.8514,-1.8088,-1.7733,-1.7458,-1.754,-1.773,-1.7908,-1.8225,-1.8381,-1.8702,-1.8757,-1.8976,-1.917,-1.917,-1.917,-1.917,-1.9082,-1.8913,-1.8603,-1.8353,-1.8031,0.0,0.0,0.0,0.0,0.0,0.0,0.0,0.0,0.0,0.0,0.0,-1.6494,-1.575,-1.5356,-1.4975,-1.4586,-1.4496,-1.431,-1.3981,-1.3808,-1.3644,-1.3388,-1.3313,-1.3313,-1.3516,-1.3614,-1.3788,-1.3981,-1.4191,-1.4355,-1.4542,-1.4844,-1.5184,-1.547,-1.5821,-1.6273,-1.6837,-1.7099,-1.7533,-1.8097,-1.8651,-1.932,-1.9993,-2.019,-2.037,-2.0815,-2.0847,-2.0885,-2.0976,-2.1059,-2.1151,-2.1343,-2.1485,-2.1573,-2.1349,-2.1309,-2.1255,-2.1366,-2.1292,-2.1151,-2.0096,-2.0462,-2.0093,-2.0177,-2.0576,-2.0576,-2.0576,-2.0576,-2.0576,-2.0576,-2.0576,-2.0576,-2.0576,-2.0576,-2.0576,-2.0576,-2.0576,-2.0576,-2.0576,-2.0576,-2.0576,-2.0576,-2.0576,-2.0576,-2.0498,-2.0342,-2.0352,-2.014,-1.9933,-1.9861,-1.9788,-1.9694,-1.9279,-1.9101,-1.9016,-1.8512,-1.8021,-1.7723,-1.7927,-1.8099,-1.8104,-1.8179,-1.8275,-1.8379,-1.8442,-1.8523,-1.87,-1.8709,-1.87,-1.87,-1.862,-1.8371,-1.7951,-1.7878,-1.7716,0.0,-1.6902,0.0,0.0,0.0,0.0,0.0,0.0,0.0,0.0,-1.6411,-1.5785,-1.5121,-1.4867,-1.4592,-1.4298,-1.4298,-1.4195,-1.3923,-1.3671,-1.3425,-1.3133,-1.316,-1.316,-1.3457,-1.3663,-1.3892,-1.4162,-1.4387,-1.4501,-1.4406,-1.4765,-1.5164,-1.5458,-1.5927,-1.6374,-1.6926,-1.7084,-1.7471,-1.8021,-1.8412,-1.8883,-1.942,-1.9729,-1.9853,-2.0335,-2.059,-2.0753,-2.0843,-2.0942,-2.1114,-2.1087,-2.1195,-2.1195,-2.1212,-2.123,-2.1239,-2.1158,-2.1149,-2.1177,-1.9659,-2.0055,-1.9979,-2.0177,-2.0566,-2.0576,-2.0576,-2.0576,-2.0576,-2.0576,-2.0576,-2.0576,-2.0576,-2.0576,-2.0576,-2.0576,-2.0576,-2.0576,-2.0576,-2.0576,-2.0576,-2.0576,-2.0576,-2.0576,-2.0566,-2.0566,-2.042,-2.0303,-2.0232,-1.9837,-1.9546,-1.937,-1.9129,-1.8904,-1.8751,0.0,0.0,0.0,-1.783,-1.7794,-1.7809,-1.7972,-1.8189,-1.8362,-1.8442,0.0,-1.87,-1.8709,-1.862,-1.8442,-1.8282,0.0,0.0,0.0,0.0,0.0,0.0,0.0,0.0,0.0,0.0,0.0,-1.5612,-1.5535,-1.5991,-1.5514,-1.5106,-1.4746,-1.4659,-1.4592,-1.4298,-1.4298,-1.4226,-1.3893,-1.367,-1.346,-1.3413,-1.3224,-1.3213,-1.3516,-1.3562,-1.3688,-1.39,-1.3975,-1.4261,-1.4606,-1.4871,-1.5159,-1.5447,-1.5794,-1.6074,-1.6578,-1.7348,-1.7882,-1.8094,-1.8643,-1.9112,-1.9479,-1.9762,-2.0019,-2.0473,-2.0654,-2.0843,-2.1114,-2.1302,-2.1383,-2.1553,-2.1741,-2.1909,-2.1919,-2.1998,-2.1989,-2.1472,-2.1472,-2.1642,-1.9469,0.0,-1.9863,-2.0098,0.0,-2.0566,-2.0576,-2.0576,-2.0576,-2.0576,-2.0576,-2.0576,-2.0576,-2.0576,-2.0576,-2.0576,-2.0576,-2.0576,-2.0576,-2.0576,-2.0576,-2.0576,-2.0576,-2.0576,-2.0576,-2.0566,-2.0498,-2.042,-2.0264,-2.0029,-1.9784,-1.9627,-1.9118,-1.8783,-1.8713,-1.8291,-1.8083,-1.8158,-1.7963,-1.787,-1.787,-1.7951,-1.8031,-1.8193,-1.8193,0.0,0.0,0.0,0.0,0.0,0.0,0.0,0.0,-1.7302,0.0,-1.6886,-1.6484,-1.6245,-1.6087,-1.5756,-1.5573,-1.5657,-1.5234,-1.5088,-1.537,-1.4903,-1.4526,-1.4447,-1.4328,-1.4206,-1.4111,-1.4214,-1.4208,-1.3931,-1.3738,-1.3642,-1.3539,-1.3346,-1.3443,-1.3636,-1.3738,-1.3835,-1.4022,-1.4214,-1.4406,-1.4688,-1.5077,-1.5356,-1.5635,-1.5832,-1.6211,-1.6864,-1.7613,-1.8179,-1.8288,-1.8827,-1.9288,-1.9579,-1.9754,-2.011,-2.0654,-2.0826,-2.1006,-2.1302,-2.1571,-2.175,-2.1919,-2.2097,-2.2264,-2.2264,-2.2353,-2.2353,-2.1919,-2.2008,-2.2087,-1.939,-1.9636,-1.9784,-1.9982,-2.0236,-2.0459,-2.0527,-2.0459,0.0,0.0,0.0,-2.0576,-2.0595,-2.0459,-2.0527,-2.0556,-2.0438,-2.0497,-2.0497,-2.0495,-2.0495,-2.0485,-2.0495,-2.0495,-2.0495,-2.0495,-2.0428,-2.0342,-2.0198,-2.012,-1.9966,-1.9695,-1.9068,-1.8681,-1.8586,-1.7974,-1.7831,-1.8276,-1.8073,-1.7914,-1.7914,-1.7914,-1.7914,-1.7834,-1.7834,-1.7834,-1.7763,-1.7834,-1.7843,-1.7834,-1.7595,-1.7354,-1.7202,-1.6944,-1.679,-1.6547,-1.6149,-1.5993,-1.5904,-1.5502,-1.5284,-1.5253,-1.488,-1.4787,-1.4865,-1.4391,-1.4129,-1.4091,-1.3927,-1.3833,-1.3839,-1.402,-1.4064,-1.3886,-1.3831,-1.3765,-1.3573,-1.3516,-1.3642,-1.3931,-1.3931,-1.4022,-1.4304,-1.4586,-1.4783,-1.4879,-1.5261,-1.5635,-1.592,-1.6211,-1.6595,-1.7239,-1.78,-1.8187,-1.8566,-1.8928,-1.9379,-1.9671,-1.9845,-2.0201,-2.0654,-2.0925,-2.1195,-2.1482,-2.1839,-2.2097,-2.2185,-2.2353,-2.2441,-2.2432,-2.253,-2.2618,-2.2618,-2.2608,-2.2608,-1.939,-1.9645,-1.9794,-1.982,-1.9735,-2.0333,-2.0342,-2.0039,-2.04,-2.0566,-2.0576,-2.0576,-2.0361,-2.0029,-2.04,-2.0328,-1.9752,-2.0098,-2.0123,-1.9902,-1.9902,-1.9912,-1.9902,-1.9902,-1.9902,-1.9902,-1.9776,-1.9723,-1.9639,-1.9354,-1.9187,-1.9113,-1.8834,-1.8573,-1.8406,-1.8146,-1.795,-1.789,-1.7681,-1.7529,-1.7614,-1.7605,-1.7453,-1.7284,-1.7293,-1.7216,-1.7081,-1.709,-1.7081,-1.7081,-1.6698,-1.6467,-1.6475,-1.6158,-1.5902,-1.5825,-1.5615,-1.5381,-1.5225,-1.499,-1.4793,-1.4748,-1.467,-1.453,-1.4294,-1.3989,-1.3867,-1.3873,-1.3665,-1.3568,-1.3568,-1.3616,-1.3658,-1.3573,-1.3548,-1.3579,-1.3778,-1.3868,-1.3896,-1.4166,-1.4202,-1.428,-1.4543,-1.4651,-1.4829,-1.5235,-1.5448,-1.5697,-1.6243,-1.669,-1.7073,-1.7535,-1.79,-1.8272,-1.8743,-1.9212,-1.9579,-1.9845,-2.0292,-2.0654,-2.0907,-2.1195,-2.1472,-2.1919,-2.2097,-2.2185,-2.2362,-2.2539,-2.2706,-2.2803,-2.3057,-2.3232,-2.3232,-2.3406,-2.3406,-1.8583,-1.8822,-1.9117,-1.9231,-1.9144,-1.971,-1.9766,-1.96,-1.9785,-1.9873,-1.9873,-1.9873,-1.984,-1.9767,-1.9944,-1.99,-1.9753,-1.9869,-1.9912,-1.9805,-1.9805,-1.9805,-1.9805,-1.9805,-1.9805,-1.9805,-1.9733,-1.9733,-1.967,-1.9515,-1.937,-1.9297,-1.8802,-1.8337,-1.7906,-1.7825,-1.7754,-1.762,-1.7521,-1.7521,-1.7521,-1.7521,-1.7446,-1.7371,-1.7362,-1.7287,-1.722,-1.7136,-1.7061,-1.7061,-1.6674,-1.6387,-1.6319,-1.5996,-1.5835,-1.5682,-1.5543,-1.5389,-1.532,-1.4925,-1.4602,-1.4345,-1.424,-1.4145,-1.3971,-1.3854,-1.3716,-1.3638,-1.353,-1.3475,-1.3308,-1.3429,-1.3513,-1.3513,-1.3531,-1.3591,-1.3701,-1.3698,-1.3695,-1.387,-1.387,-1.3969,-1.4254,-1.4334,-1.452,-1.4982,-1.5351,-1.5725,-1.619,-1.6646,-1.715,-1.7725,-1.7994,-1.8365,-1.8912,-1.9304,-1.9671,-1.9845,-2.0382,-2.0736,-2.0997,-2.1275,-2.1642,-2.2008,-2.2274,-2.253,-2.2706,-2.2969,-2.3144,-2.3319,-2.3493,-2.3677,-2.3687,-2.3861,-2.3937,-1.7961,-1.8119,-1.8471,-1.8692,-1.8746,-1.8928,-1.9053,-1.9131,-1.9043,-1.9004,-1.9095,-1.9272,-1.9393,-1.9469,-1.9558,-1.9633,-1.9606,-1.9676,-1.9727,-1.9636,-1.9636,-1.9636,-1.9636,-1.9636,-1.9636,-1.9636,-1.9565,-1.9575,-1.9565,-1.9494,-1.9433,-1.9261,-1.8664,-1.8006,-1.7474,-1.7455,-1.7396,-1.7375,-1.7405,-1.7485,-1.7403,-1.7403,-1.7329,-1.7329,-1.732,-1.7255,-1.7255,-1.7098,-1.7016,-1.6942,-1.657,-1.6363,-1.6146,-1.5912,-1.5753,-1.5519,-1.5383,-1.5239,-1.5163,-1.485,-1.451,-1.4193,-1.3945,-1.3846,-1.3837,-1.3771,-1.3613,-1.3496,-1.3429,-1.3287,-1.3136,-1.3194,-1.3332,-1.3332,-1.3393,-1.3429,-1.3429,-1.3471,-1.3513,-1.3513,-1.3519,-1.3713,-1.3966,-1.4141,-1.4437,-1.4804,-1.5308,-1.5754,-1.602,-1.6374,-1.7056,-1.7576,-1.7949,-1.8185,-1.8862,-1.9208,-1.947,-1.9766,-2.0188,-2.0501,-2.0766,-2.1244,-2.1697,-2.197,-2.2465,-2.2766,-2.3096,-2.3406,-2.358,-2.3667,-2.3841,-2.3937,-2.412,-2.4303,-2.4378,-1.7877,-1.8119,-1.8304,-1.8627,-1.8889,-1.8397,-1.8359,-1.8633,-1.8311,-1.8252,-1.8517,-1.9241,-1.935,-1.9062,-1.9523,-1.9425,-1.8975,-1.9359,-1.9407,-1.9194,-1.9199,-1.9199,-1.9153,-1.9122,-1.9189,-1.9132,-1.8998,-1.893,-1.8873,-1.8738,-1.8602,-1.8552,-1.8171,-1.7754,-1.7432,-1.7356,-1.7158,-1.6911,-1.7279,-1.7436,-1.7209,-1.7079,-1.6869,-1.6711,-1.672,-1.658,-1.6448,-1.6387,-1.6307,-1.6175,-1.5971,-1.5757,-1.5614,-1.5383,-1.5168,-1.4977,-1.4985,-1.4816,-1.4558,-1.438,-1.4336,-1.4275,-1.412,-1.3995,-1.3811,-1.3595,-1.3588,-1.358,-1.3319,-1.318,-1.3089,-1.2967,-1.2837,-1.2868,-1.3025,-1.3157,-1.3181,-1.3369,-1.3513,-1.3513,-1.364,-1.3966,-1.4077,-1.4334,-1.4731,-1.5041,-1.5376,-1.5729,-1.5913,-1.6367,-1.6725,-1.7125,-1.7347,-1.781,-1.8447,-1.858,-1.902,-1.9419,-1.972,-2.0125,-2.0512,-2.0826,-2.1156,-2.1921,-2.2322,-2.2685,-2.3248,-2.358,-2.3724,-2.3927,-2.411,-2.4292,-2.4711,-2.4892,-2.4988,-1.7108,-1.7403,-1.7608,-1.7892,-1.8177,-1.8076,-1.8105,-1.8242,-1.8213,-1.8202,-1.8367,-1.8873,-1.8992,-1.8879,-1.9071,-1.9145,-1.8962,-1.9204,-1.9184,-1.9121,-1.8937,-1.8802,-1.8781,-1.8648,-1.8543,-1.8533,-1.848,-1.849,-1.8405,-1.815,-1.8022,-1.8022,-1.7647,-1.744,-1.7248,-1.7248,-1.7175,-1.7056,-1.7028,-1.6994,-1.6882,-1.6835,-1.671,-1.6448,-1.6624,-1.648,-1.6181,-1.6211,-1.6111,-1.5753,-1.5458,-1.535,-1.5368,-1.5238,-1.5191,-1.5117,-1.4935,-1.4792,-1.4425,-1.4267,-1.4132,-1.3992,-1.3732,-1.3622,-1.3668,-1.3425,-1.3263,-1.3474,-1.3378,-1.3207,-1.3269,-1.3045,-1.296,-1.2894,-1.2899,-1.288,-1.288,-1.315,-1.3305,-1.3305,-1.348,-1.366,-1.3909,-1.4249,-1.4595,-1.4947,-1.5219,-1.5505,-1.5811,-1.6152,-1.6399,-1.6653,-1.6991,-1.7613,-1.8333,-1.8724,-1.8973,-1.9401,-1.9844,-2.0192,-2.04,-2.0848,-2.1258,-2.1858,-2.2129,-2.2631,-2.3368,-2.3639,-2.3839,-2.4204,-2.4612,-2.4901,-2.5052,-2.5168,-2.5231,-1.6228,-1.6569,-1.6831,-1.7101,-1.736,-1.7589,-1.7666,-1.7723,-1.7856,-1.7979,-1.8121,-1.8309,-1.8506,-1.8582,-1.8629,-1.8746,-1.8934,-1.882,-1.8833,-1.8802,-1.8617,-1.847,-1.8491,-1.8268,-1.8171,-1.8171,-1.8193,-1.8182,-1.8171,-1.7987,-1.7853,-1.7781,-1.7482,-1.7236,-1.7226,-1.7174,-1.7112,-1.7061,-1.6911,-1.6806,-1.6684,-1.6728,-1.6539,-1.6268,-1.6449,-1.6458,-1.6047,-1.6188,-1.6019,-1.5532,-1.5366,-1.523,-1.5169,-1.5128,-1.5087,-1.5085,-1.5021,-1.48,-1.4577,-1.4281,-1.4065,-1.3855,-1.3572,-1.3366,-1.3404,-1.3229,-1.3134,-1.3274,-1.326,-1.3257,-1.3201,-1.3085,-1.2943,-1.3006,-1.2856,-1.279,-1.2869,-1.3045,-1.3162,-1.3222,-1.3449,-1.3561,-1.3906,-1.4173,-1.453,-1.479,-1.502,-1.5333,-1.565,-1.5929,-1.6268,-1.6476,-1.691,-1.7433,-1.8069,-1.8456,-1.8845,-1.9265,-1.9638,-1.9952,-2.0264,-2.075,-2.1202,-2.1592,-2.1977,-2.2521,-2.3388,-2.3835,-2.4159,-2.4798,-2.5105,-2.5317,-2.5317,-2.5368,-2.5525,-1.542,-1.5827,-1.6121,-1.637,-1.645,-1.6763,-1.688,-1.7119,-1.708,-1.7239,-1.7541,-1.7593,-1.7729,-1.7968,-1.8269,-1.8477,-1.8553,-1.8197,-1.8175,-1.8247,-1.8235,-1.8203,-1.8203,-1.8171,-1.815,-1.8105,-1.8155,-1.8126,-1.8169,-1.8129,-1.8171,-1.8118,-1.7645,-1.7375,-1.7245,-1.7077,-1.6948,-1.6859,-1.7001,-1.6938,-1.6588,-1.6497,-1.64,-1.6189,-1.6239,-1.6239,-1.6192,-1.6175,-1.6028,-1.568,-1.5625,-1.5477,-1.5124,-1.5011,-1.4921,-1.4857,-1.4857,-1.4848,-1.4752,-1.453,-1.425,-1.4122,-1.3848,-1.3579,-1.333,-1.3257,-1.3163,-1.3037,-1.3015,-1.301,-1.2876,-1.2753,-1.2768,-1.2965,-1.2997,-1.3022,-1.3256,-1.325,-1.3392,-1.3379,-1.3555,-1.3899,-1.4307,-1.4398,-1.465,-1.4992,-1.5242,-1.5477,-1.5733,-1.6147,-1.6476,-1.673,-1.7057,-1.7416,-1.7539,-1.8017,-1.8391,-1.8823,-1.9327,-1.9617,-1.9929,-2.0341,-2.0829,-2.1422,-2.1839,-2.2522,-2.3464,-2.4096,-2.4472,-2.4955,-2.5357,-2.5495,-2.5695,-2.5975,-2.5981,-1.544,-1.5817,-1.6064,-1.6256,-1.6456,-1.6782,-1.6908,-1.7034,-1.7222,-1.7409,-1.7533,-1.7657,-1.7822,-1.7883,-1.7819,-1.7996,-1.8311,-1.8163,-1.8099,-1.819,-1.7974,-1.7873,-1.7841,-1.7712,-1.7618,-1.7629,-1.7723,-1.7781,-1.7723,-1.7676,-1.7561,-1.7413,-1.7205,-1.7016,-1.6948,-1.6901,-1.6833,-1.6796,-1.6825,-1.6757,-1.6574,-1.6417,-1.6274,-1.6138,-1.6294,-1.6172,-1.5718,-1.5959,-1.5884,-1.5252,-1.5163,-1.5099,-1.5106,-1.4974,-1.4832,-1.458,-1.4453,-1.4315,-1.4195,-1.4103,-1.4011,-1.3885,-1.3814,-1.371,-1.3572,-1.3346,-1.3176,-1.3114,-1.2987,-1.2907,-1.2741,-1.2733,-1.2842,-1.2853,-1.2798,-1.2756,-1.2864,-1.3092,-1.338,-1.3406,-1.3767,-1.423,-1.4378,-1.465,-1.4992,-1.5235,-1.5484,-1.5726,-1.6064,-1.6402,-1.673,-1.6976,-1.7383,-1.7797,-1.7797,-1.8218,-1.8629,-1.8976,-1.9393,-1.985,-2.0186,-2.0489,-2.0938,-2.1446,-2.1808,-2.2356,-2.3269,-2.4275,-2.4723,-2.5196,-2.5607,-2.5705,-2.6163,-2.6088,-2.6046,-1.525,-1.5617,-1.5732,-1.599,-1.6166,-1.6493,-1.6606,-1.6728,-1.6972,-1.7093,-1.7214,-1.7384,-1.7564,-1.7571,-1.7424,-1.7562,-1.7873,-1.7824,-1.7835,-1.7873,-1.7716,-1.7611,-1.7625,-1.7476,-1.7445,-1.7445,-1.7534,-1.759,-1.7534,-1.749,-1.7379,-1.7256,-1.7145,-1.7088,-1.7099,-1.6987,-1.6987,-1.6931,-1.6751,-1.6705,-1.6637,-1.6524,-1.641,-1.6394,-1.6478,-1.6264,-1.5604,-1.5891,-1.5742,-1.5185,-1.501,-1.4906,-1.49,-1.4845,-1.4672,-1.4422,-1.4271,-1.4131,-1.3933,-1.3866,-1.3729,-1.3684,-1.3776,-1.3769,-1.3633,-1.3506,-1.3339,-1.3193,-1.3119,-1.29,-1.2748,-1.2831,-1.2875,-1.2876,-1.2667,-1.2627,-1.2711,-1.3065,-1.3238,-1.3453,-1.3981,-1.4303,-1.4525,-1.4935,-1.5235,-1.5484,-1.5816,-1.6154,-1.6402,-1.673,-1.7057,-1.7383,-1.7716,-1.8112,-1.8353,-1.8754,-1.8869,-1.9216,-1.9743,-2.0186,-2.0479,-2.0712,-2.1031,-2.1502,-2.1901,-2.2384,-2.3115,-2.4263,-2.4963,-2.5447,-2.5433,-2.5499,-2.5811,-2.6007,-2.5893,-1.4675,-1.4961,-1.497,-1.5254,-1.5604,-1.573,-1.5894,-1.6056,-1.6134,-1.6358,-1.6665,-1.669,-1.6889,-1.7019,-1.7129,-1.7199,-1.7342,-1.7229,-1.7286,-1.7398,-1.7501,-1.7534,-1.7534,-1.7623,-1.7656,-1.7656,-1.7711,-1.7711,-1.77,-1.7711,-1.7656,-1.7645,-1.7656,-1.7601,-1.7656,-1.7379,-1.7278,-1.7278,-1.7032,-1.6874,-1.6818,-1.6874,-1.6807,-1.6807,-1.6793,-1.6576,-1.5972,-1.5934,-1.577,-1.543,-1.5352,-1.5118,-1.4621,-1.4585,-1.4479,-1.4325,-1.4298,-1.4271,-1.4073,-1.3876,-1.3584,-1.3439,-1.3637,-1.3623,-1.3467,-1.3566,-1.3593,-1.3281,-1.3251,-1.3127,-1.2973,-1.2889,-1.2865,-1.2844,-1.2752,-1.2852,-1.306,-1.3186,-1.3286,-1.3564,-1.4024,-1.4353,-1.4593,-1.5092,-1.5493,-1.5794,-1.6237,-1.6648,-1.6812,-1.7147,-1.7554,-1.7878,-1.8201,-1.8514,-1.8904,-1.9301,-1.9347,-1.9463,-2.0048,-2.0557,-2.0857,-2.1155,-2.1492,-2.1883,-2.2187,-2.2659,-2.3329,-2.4349,-2.4993,-2.5374,-2.5329,-2.5442,-2.5802,-2.6046,-2.5847,-1.3942,-1.409,-1.4321,-1.4486,-1.476,-1.4988,-1.5195,-1.5409,-1.5776,-1.6098,-1.6316,-1.6704,-1.6955,-1.7011,-1.7134,-1.7245,-1.7423,-1.7357,-1.7357,-1.7468,-1.759,-1.7645,-1.7645,-1.7711,-1.7755,-1.7854,-1.7854,-1.7854,-1.7854,-1.7854,-1.781,-1.7711,-1.7711,-1.7711,-1.7711,-1.7601,-1.7601,-1.7557,-1.749,-1.7434,-1.7423,-1.7434,-1.7368,-1.7301,-1.7211,-1.6976,-1.6684,-1.642,-1.6029,-1.5604,-1.5478,-1.5118,-1.4625,-1.4297,-1.4135,-1.3961,-1.3757,-1.3647,-1.3547,-1.3492,-1.3437,-1.3306,-1.3435,-1.3398,-1.3332,-1.3469,-1.3509,-1.3341,-1.3425,-1.3492,-1.3193,-1.3119,-1.3103,-1.2878,-1.2898,-1.2865,-1.3003,-1.3168,-1.3361,-1.3703,-1.4066,-1.4338,-1.4568,-1.508,-1.565,-1.6055,-1.6437,-1.6788,-1.7286,-1.7594,-1.7951,-1.8353,-1.8665,-1.8993,-1.939,-1.9863,-2.0117,-2.0136,-2.0586,-2.0924,-2.1211,-2.1614,-2.1939,-2.2262,-2.2639,-2.3088,-2.3757,-2.4348,-2.4994,-2.5283,-2.5302,-2.5627,-2.607,-2.5995,-2.5784,-1.3612,-1.3863,-1.4024,-1.4247,-1.4513,-1.4787,-1.4945,-1.5143,-1.551,-1.5786,-1.5967,-1.6299,-1.6493,-1.6559,-1.6678,-1.684,-1.6937,-1.6979,-1.7144,-1.7399,-1.7644,-1.7744,-1.781,-1.7822,-1.7877,-1.7975,-1.8084,-1.8084,-1.8073,-1.8127,-1.8127,-1.803,-1.803,-1.803,-1.803,-1.792,-1.7877,-1.7822,-1.7767,-1.7711,-1.7711,-1.7711,-1.7656,-1.759,-1.749,-1.7379,-1.719,-1.6874,-1.6477,-1.6019,-1.5594,-1.5186,-1.4715,-1.4369,-1.4121,-1.389,-1.3657,-1.3432,-1.3327,-1.3351,-1.3208,-1.3139,-1.3211,-1.3212,-1.3209,-1.3263,-1.3408,-1.3459,-1.354,-1.3655,-1.3528,-1.3557,-1.3477,-1.3404,-1.3053,-1.29,-1.2928,-1.3209,-1.3386,-1.3729,-1.4179,-1.451,-1.4851,-1.5382,-1.5927,-1.6356,-1.6734,-1.7169,-1.7738,-1.8056,-1.8426,-1.8824,-1.9222,-1.9627,-1.9951,-2.0342,-2.0809,-2.0964,-2.1118,-2.1364,-2.1562,-2.2134,-2.2478,-2.2927,-2.3309,-2.353,-2.409,-2.4464,-2.495,-2.5137,-2.5462,-2.5604,-2.5879,-2.5837,-2.5696,-1.3689,-1.4019,-1.4053,-1.4258,-1.4634,-1.479,-1.4873,-1.5101,-1.5278,-1.5444,-1.5536,-1.5706,-1.5769,-1.5829,-1.5949,-1.603,-1.6041,-1.6243,-1.6632,-1.7119,-1.75,-1.7727,-1.7886,-1.7975,-1.8084,-1.8139,-1.8313,-1.8356,-1.841,-1.837,-1.859,-1.8506,-1.8436,-1.8536,-1.8441,-1.8302,-1.8139,-1.8084,-1.7931,-1.7822,-1.7822,-1.7822,-1.7822,-1.781,-1.7767,-1.77,-1.7534,-1.7312,-1.6941,-1.6374,-1.5768,-1.5245,-1.502,-1.4725,-1.43,-1.401,-1.383,-1.3588,-1.3415,-1.3283,-1.3169,-1.2956,-1.3129,-1.318,-1.2971,-1.3173,-1.3403,-1.3447,-1.3608,-1.3714,-1.4007,-1.4042,-1.4049,-1.4065,-1.3477,-1.3112,-1.3046,-1.336,-1.3653,-1.3756,-1.4215,-1.4757,-1.5192,-1.5723,-1.6242,-1.6723,-1.7061,-1.7493,-1.7976,-1.8348,-1.882,-1.9242,-1.9714,-2.013,-2.042,-2.0725,-2.1222,-2.1645,-2.1721,-2.1983,-2.2167,-2.267,-2.3075,-2.3519,-2.3824,-2.4043,-2.4368,-2.4751,-2.5169,-2.554,-2.5709,-2.5697,-2.5696,-2.5707,-2.5754,-1.2953,-1.3213,-1.3382,-1.357,-1.3777,-1.4032,-1.4199,-1.4386,-1.4864,-1.5103,-1.5256,-1.5582,-1.572,-1.5774,-1.5753,-1.5877,-1.5952,-1.6076,-1.6306,-1.6604,-1.6843,-1.7379,-1.7904,-1.8061,-1.8159,-1.8267,-1.8263,-1.8476,-1.8525,-1.816,-1.8225,-1.859,-1.8201,-1.8236,-1.8489,-1.8447,-1.8441,-1.8452,-1.8387,-1.8333,-1.8344,-1.8344,-1.8344,-1.8356,-1.8247,-1.8139,-1.792,-1.749,-1.6998,-1.6431,-1.5768,-1.5362,-1.5147,-1.4775,-1.435,-1.4061,-1.389,-1.3709,-1.3467,-1.3354,-1.3241,-1.318,-1.3166,-1.3067,-1.2959,-1.3267,-1.3429,-1.3507,-1.3775,-1.414,-1.4128,-1.4332,-1.4458,-1.4425,-1.4057,-1.3768,-1.3768,-1.3992,-1.4145,-1.4232,-1.46,-1.4944,-1.5348,-1.5807,-1.628,-1.6841,-1.7255,-1.7721,-1.8265,-1.8583,-1.8939,-1.957,-2.0082,-2.0516,-2.0908,-2.1118,-2.1574,-2.2103,-2.2402,-2.2692,-2.2894,-2.3287,-2.3677,-2.397,-2.4261,-2.4478,-2.4826,-2.523,-2.5587,-2.5863,-2.592,-2.5905,-2.5868,-2.5889,-2.5959,-1.2822,-1.3055,-1.3218,-1.342,-1.361,-1.381,-1.3962,-1.4146,-1.4514,-1.4751,-1.4864,-1.5083,-1.5225,-1.5225,-1.5214,-1.5274,-1.541,-1.5508,-1.5717,-1.6139,-1.6455,-1.6917,-1.7392,-1.7496,-1.7624,-1.7728,-1.7845,-1.7913,-1.7958,-1.776,-1.782,-1.7977,-1.776,-1.7835,-1.81,-1.8132,-1.8263,-1.8446,-1.8453,-1.8536,-1.8738,-1.8774,-1.8732,-1.8679,-1.8572,-1.8422,-1.8096,-1.7711,-1.7166,-1.6488,-1.5951,-1.5594,-1.5254,-1.4893,-1.4538,-1.424,-1.401,-1.3821,-1.364,-1.3467,-1.3354,-1.3302,-1.3172,-1.3111,-1.3022,-1.3256,-1.3317,-1.3516,-1.3868,-1.4047,-1.4206,-1.4421,-1.4757,-1.4895,-1.4784,-1.4561,-1.4346,-1.4497,-1.4649,-1.4784,-1.5007,-1.535,-1.5779,-1.6199,-1.6639,-1.7234,-1.7542,-1.807,-1.8653,-1.8817,-1.9131,-1.9813,-2.0297,-2.0679,-2.1084,-2.1333,-2.1897,-2.2513,-2.3187,-2.343,-2.3666,-2.3886,-2.4177,-2.4467,-2.4694,-2.4909,-2.5253,-2.5594,-2.5853,-2.6124,-2.6107,-2.6245,-2.6245,-2.6176,-2.6233,-1.2957,-1.3218,-1.3324,-1.3563,-1.3763,-1.3915,-1.4057,-1.4233,-1.4359,-1.4417,-1.4485,-1.4452,-1.4526,-1.443,-1.4559,-1.4532,-1.4636,-1.4782,-1.5101,-1.557,-1.6033,-1.6367,-1.6463,-1.685,-1.6958,-1.7058,-1.7128,-1.7274,-1.7359,-1.7338,-1.74,-1.7496,-1.7436,-1.7497,-1.769,-1.7581,-1.7811,-1.8212,-1.8172,-1.834,-1.8654,-1.8787,-1.8806,-1.8725,-1.8815,-1.8614,-1.8247,-1.7877,-1.7379,-1.6612,-1.6296,-1.5894,-1.5478,-1.5196,-1.4843,-1.4478,-1.4189,-1.395,-1.383,-1.364,-1.3528,-1.3424,-1.3424,-1.3294,-1.3241,-1.3283,-1.3384,-1.3618,-1.3672,-1.3963,-1.4272,-1.4588,-1.4957,-1.5348,-1.5545,-1.5288,-1.4991,-1.4935,-1.5078,-1.5275,-1.5488,-1.6016,-1.6599,-1.7009,-1.7232,-1.7758,-1.804,-1.8426,-1.8914,-1.9143,-1.9624,-2.0224,-2.0649,-2.086,-2.1215,-2.1479,-2.2229,-2.2868,-2.3681,-2.4163,-2.436,-2.4611,-2.4743,-2.4957,-2.5253,-2.5465,-2.5664,-2.5943,-2.622,-2.644,-2.6521,-2.6726,-2.6875,-2.6739,-2.6658,-1.2691,-1.3218,-1.3324,-1.3563,-1.3821,-1.3973,-1.4104,-1.4222,-1.4326,-1.443,-1.443,-1.443,-1.443,-1.443,-1.443,-1.443,-1.4477,-1.4569,-1.4797,-1.5051,-1.5153,-1.5325,-1.5636,-1.6273,-1.6776,-1.6924,-1.7107,-1.7205,-1.7255,-1.7026,-1.7145,-1.7448,-1.7168,-1.7333,-1.7652,-1.7615,-1.7739,-1.7934,-1.7885,-1.7959,-1.8228,-1.8521,-1.8704,-1.8714,-1.8847,-1.8827,-1.8625,-1.8247,-1.781,-1.7256,-1.6694,-1.6134,-1.573,-1.5323,-1.4961,-1.4597,-1.4378,-1.4148,-1.401,-1.389,-1.3881,-1.3838,-1.3769,-1.383,-1.383,-1.3769,-1.3804,-1.3952,-1.417,-1.4467,-1.475,-1.4963,-1.5283,-1.5698,-1.589,-1.6005,-1.6244,-1.6053,-1.5921,-1.6061,-1.6263,-1.6639,-1.7209,-1.7297,-1.7665,-1.8267,-1.8529,-1.8775,-1.9173,-1.9561,-2.0073,-2.0619,-2.0793,-2.1073,-2.1508,-2.188,-2.2502,-2.319,-2.4036,-2.474,-2.4943,-2.5253,-2.5382,-2.5594,-2.5746,-2.5955,-2.6151,-2.6427,-2.6714,-2.6794,-2.693,-2.7079,-2.7214,-2.7159,-2.7159,-1.2633,-1.303,-1.3375,-1.3621,-1.3868,-1.3973,-1.4104,-1.4269,-1.4373,-1.443,-1.443,-1.443,-1.443,-1.443,-1.443,-1.443,-1.443,-1.4523,-1.4719,-1.4857,-1.4891,-1.5017,-1.5245,-1.5777,-1.6256,-1.6327,-1.6432,-1.6632,-1.6616,-1.6575,-1.6593,-1.6886,-1.6732,-1.6774,-1.7136,-1.7223,-1.7401,-1.7718,-1.7768,-1.7856,-1.8157,-1.8407,-1.8659,-1.8821,-1.9049,-1.9198,-1.8893,-1.8572,-1.8139,-1.77,-1.7155,-1.6534,-1.5951,-1.5498,-1.5128,-1.4784,-1.4478,-1.4318,-1.4189,-1.407,-1.401,-1.401,-1.401,-1.401,-1.401,-1.407,-1.407,-1.4174,-1.4335,-1.4656,-1.5025,-1.5024,-1.5414,-1.59,-1.6075,-1.6326,-1.6812,-1.6711,-1.6551,-1.6751,-1.6899,-1.7314,-1.7666,-1.7862,-1.8277,-1.8961,-1.91,-1.9327,-1.9845,-2.0162,-2.0391,-2.0807,-2.0933,-2.1259,-2.172,-2.2213,-2.2751,-2.3466,-2.4237,-2.4927,-2.5333,-2.5684,-2.6025,-2.6164,-2.6233,-2.644,-2.6645,-2.685,-2.7053,-2.7201,-2.7335,-2.7416,-2.7549,-2.7616,-2.7616,-1.2534,-1.2832,-1.3315,-1.37,-1.3962,-1.3962,-1.4114,-1.4291,-1.4384,-1.4373,-1.4373,-1.4373,-1.443,-1.443,-1.443,-1.443,-1.443,-1.4523,-1.4673,-1.4811,-1.488,-1.5062,-1.529,-1.5484,-1.5678,-1.556,-1.5867,-1.6034,-1.6066,-1.6044,-1.6311,-1.6293,-1.6324,-1.6542,-1.6584,-1.6602,-1.6954,-1.7466,-1.7505,-1.7702,-1.8099,-1.8303,-1.8579,-1.9057,-1.9207,-1.9337,-1.915,-1.8827,-1.8452,-1.8018,-1.7601,-1.6976,-1.6343,-1.5768,-1.5352,-1.5088,-1.4775,-1.4547,-1.4437,-1.4318,-1.4189,-1.4121,-1.4189,-1.4189,-1.4249,-1.4378,-1.4437,-1.4488,-1.4621,-1.4823,-1.5059,-1.5176,-1.5495,-1.5993,-1.617,-1.6562,-1.7067,-1.714,-1.7235,-1.7501,-1.7716,-1.7998,-1.8405,-1.8664,-1.9125,-1.9553,-1.9694,-1.9933,-2.0442,-2.0839,-2.1024,-2.129,-2.1498,-2.1663,-2.2159,-2.2416,-2.3026,-2.3619,-2.4365,-2.5012,-2.5602,-2.6063,-2.6354,-2.6539,-2.6645,-2.685,-2.7053,-2.7323,-2.7536,-2.7603,-2.7749,-2.7815,-2.7947,-2.8079,-2.8079,-1.204,-1.2812,-1.2964,-1.3351,-1.3789,-1.3821,-1.3905,-1.4067,-1.4186,-1.4222,-1.428,-1.4326,-1.4384,-1.4384,-1.443,-1.443,-1.4419,-1.4523,-1.4673,-1.4822,-1.488,-1.5051,-1.53,-1.548,-1.5603,-1.5748,-1.5925,-1.6044,-1.6076,-1.6219,-1.6349,-1.6436,-1.6534,-1.6663,-1.6791,-1.6833,-1.6956,-1.7209,-1.7235,-1.7381,-1.7566,-1.7981,-1.8415,-1.9095,-1.9231,-1.9334,-1.9441,-1.9174,-1.8774,-1.8452,-1.792,-1.7412,-1.6842,-1.6218,-1.57,-1.5362,-1.5069,-1.4902,-1.4803,-1.4793,-1.4852,-1.4852,-1.4793,-1.4793,-1.4852,-1.4911,-1.497,-1.5079,-1.5128,-1.5283,-1.5332,-1.5468,-1.5811,-1.6287,-1.6628,-1.69,-1.7399,-1.7632,-1.7829,-1.8197,-1.8435,-1.8731,-1.9131,-1.9452,-1.9824,-2.0182,-2.0409,-2.0752,-2.1262,-2.1526,-2.1686,-2.1874,-2.2185,-2.2309,-2.2567,-2.2751,-2.3145,-2.3642,-2.433,-2.5,-2.5614,-2.6246,-2.6634,-2.6928,-2.7188,-2.7335,-2.7536,-2.7736,-2.7868,-2.7934,-2.8013,-2.8145,-2.821,-2.821,-2.821,-1.1664,-1.2212,-1.2472,-1.2934,-1.3355,-1.3407,-1.3657,-1.3999,-1.4057,-1.4104,-1.4104,-1.415,-1.4197,-1.4197,-1.428,-1.4326,-1.4419,-1.4534,-1.4673,-1.4776,-1.4937,-1.5142,-1.539,-1.5558,-1.5736,-1.5913,-1.6132,-1.6238,-1.6269,-1.638,-1.6565,-1.6693,-1.6791,-1.6918,-1.7044,-1.7128,-1.7212,-1.724,-1.7282,-1.7282,-1.7418,-1.7889,-1.8459,-1.8669,-1.9214,-1.9417,-1.9334,-1.9453,-1.9133,-1.8774,-1.829,-1.7843,-1.739,-1.6832,-1.6208,-1.5758,-1.542,-1.5196,-1.5098,-1.5098,-1.5098,-1.5088,-1.5137,-1.5186,-1.5254,-1.5323,-1.5498,-1.5662,-1.5768,-1.5884,-1.5904,-1.5999,-1.6294,-1.6554,-1.68,-1.7206,-1.7631,-1.7975,-1.8366,-1.868,-1.8892,-1.9243,-1.9922,-2.0248,-2.0506,-2.0828,-2.1083,-2.1514,-2.1963,-2.2161,-2.2235,-2.2482,-2.2665,-2.2848,-2.2982,-2.3175,-2.3308,-2.3758,-2.4285,-2.4957,-2.5675,-2.6345,-2.7,-2.7564,-2.7723,-2.7802,-2.7868,-2.8,-2.8131,-2.8262,-2.8327,-2.8406,-2.8341,-2.8341,-2.8341,-1.1338,-1.1653,-1.2006,-1.2475,-1.2905,-1.3041,-1.3328,-1.3746,-1.3873,-1.3962,-1.3973,-1.3973,-1.402,-1.4067,-1.414,-1.4269,-1.4466,-1.4581,-1.4719,-1.4903,-1.5028,-1.53,-1.5558,-1.5736,-1.5913,-1.6175,-1.6293,-1.6484,-1.6484,-1.6595,-1.6735,-1.6905,-1.7044,-1.7115,-1.724,-1.7391,-1.7502,-1.757,-1.7598,-1.7598,-1.7732,-1.8011,-1.8329,-1.8319,-1.916,-1.94,-1.9149,-1.9535,-1.9352,-1.9012,-1.8626,-1.8333,-1.8007,-1.7457,-1.6899,-1.6332,-1.5816,-1.5546,-1.5439,-1.5391,-1.5449,-1.5439,-1.5478,-1.5526,-1.5642,-1.5836,-1.6077,-1.6296,-1.64,-1.6513,-1.657,-1.674,-1.6874,-1.7054,-1.7199,-1.7422,-1.7842,-1.8224,-1.8587,-1.8903,-1.9155,-1.9698,-2.0369,-2.088,-2.1135,-2.1463,-2.1776,-2.2013,-2.2457,-2.2592,-2.2787,-2.2969,-2.321,-2.333,-2.3463,-2.3569,-2.37,-2.3909,-2.4372,-2.493,-2.5643,-2.6347,-2.7083,-2.7693,-2.817,-2.8249,-2.8262,-2.8327,-2.8457,-2.8587,-2.8651,-2.8651,-2.8665,-2.8716,-2.8716,-1.1042,-1.1571,-1.1674,-1.1965,-1.2411,-1.2764,-1.2927,-1.3097,-1.3564,-1.381,-1.3768,-1.3926,-1.3973,-1.402,-1.414,-1.4326,-1.4534,-1.4684,-1.4857,-1.5028,-1.521,-1.5435,-1.5703,-1.5792,-1.61,-1.6349,-1.6479,-1.6522,-1.6595,-1.6778,-1.696,-1.7128,-1.7199,-1.7282,-1.7488,-1.7638,-1.7706,-1.7828,-1.7882,-1.7908,-1.7949,-1.7977,-1.8206,-1.8564,-1.8919,-1.9134,-1.9032,-1.9515,-1.9661,-1.8995,-1.8927,-1.8804,-1.8506,-1.7975,-1.7645,-1.7245,-1.6684,-1.6009,-1.6009,-1.5904,-1.5904,-1.5951,-1.6056,-1.6114,-1.6285,-1.6524,-1.6751,-1.7022,-1.7078,-1.719,-1.7301,-1.7468,-1.7645,-1.7755,-1.7865,-1.792,-1.8178,-1.8426,-1.8788,-1.9191,-1.9529,-2.0145,-2.078,-2.1287,-2.1702,-2.2099,-2.2482,-2.2714,-2.2896,-2.309,-2.3271,-2.3497,-2.3688,-2.3806,-2.3865,-2.3982,-2.4028,-2.4131,-2.4477,-2.4917,-2.5562,-2.631,-2.6916,-2.7566,-2.8125,-2.8597,-2.8651,-2.8716,-2.8844,-2.8844,-2.8858,-2.8986,-2.9049,-2.9049,-2.8972,-1.0858,-1.1209,-1.1199,-1.1468,-1.1913,-1.2089,-1.2316,-1.2617,-1.3076,-1.3284,-1.3392,-1.3679,-1.3868,-1.401,-1.414,-1.4337,-1.4581,-1.4776,-1.4903,-1.5153,-1.539,-1.5626,-1.5836,-1.6044,-1.6349,-1.6522,-1.6723,-1.6934,-1.6934,-1.6989,-1.7157,-1.7365,-1.7488,-1.7625,-1.7747,-1.7922,-1.8003,-1.8083,-1.8109,-1.8109,-1.8109,-1.8097,-1.8166,-1.8371,-1.8701,-1.8768,-1.8927,-1.9478,-1.968,-1.9194,-1.9216,-1.9239,-1.8987,-1.856,-1.8193,-1.8127,-1.7567,-1.6965,-1.6581,-1.6467,-1.6467,-1.6524,-1.6627,-1.6797,-1.6965,-1.72,-1.7368,-1.7579,-1.7689,-1.7799,-1.7963,-1.8127,-1.8236,-1.8398,-1.8506,-1.856,-1.8614,-1.8774,-1.906,-1.948,-1.9915,-2.0516,-2.1134,-2.1777,-2.2262,-2.2653,-2.2969,-2.3138,-2.3378,-2.3569,-2.3806,-2.3956,-2.4144,-2.4274,-2.4274,-2.439,-2.439,-2.4434,-2.4549,-2.503,-2.5576,-2.6234,-2.6829,-2.7469,-2.805,-2.8483,-2.8834,-2.8972,-2.9035,-2.9049,-2.9113,-2.9176,-2.9176,-2.9099,-2.9035,-1.0669,-1.0843,-1.0881,-1.1116,-1.1426,-1.152,-1.1819,-1.2162,-1.2575,-1.2824,-1.3041,-1.345,-1.3821,-1.402,-1.4197,-1.443,-1.4673,-1.4822,-1.504,-1.53,-1.557,-1.5804,-1.6044,-1.6349,-1.6552,-1.6693,-1.6989,-1.7186,-1.7323,-1.7365,-1.7502,-1.7598,-1.7747,-1.7922,-1.8003,-1.8163,-1.8282,-1.8386,-1.8372,-1.8372,-1.8333,-1.8321,-1.8282,-1.8396,-1.8549,-1.864,-1.854,-1.9282,-1.9585,-1.9355,-1.9408,-1.9483,-1.9515,-1.9093,-1.8827,-1.8667,-1.8278,-1.7854,-1.7468,-1.7256,-1.7088,-1.7145,-1.7312,-1.759,-1.7745,-1.7899,-1.803,-1.8182,-1.829,-1.8398,-1.8548,-1.8721,-1.8869,-1.9028,-1.9146,-1.9186,-1.9186,-1.9291,-1.938,-1.9719,-2.0159,-2.0682,-2.1425,-2.2276,-2.2824,-2.3195,-2.345,-2.3628,-2.3806,-2.4041,-2.4157,-2.4305,-2.4376,-2.4505,-2.462,-2.4677,-2.4677,-2.4791,-2.4848,-2.5057,-2.5608,-2.6048,-2.6589,-2.7272,-2.7958,-2.8449,-2.8816,-2.9004,-2.9162,-2.9289,-2.9366,-2.9289,-2.9226,-2.9226,-2.9226,-1.0428,-1.0621,-1.0805,-1.0912,-1.1023,-1.1406,-1.1582,-1.1654,-1.2141,-1.2523,-1.2896,-1.3481,-1.3752,-1.3978,-1.4215,-1.4468,-1.4776,-1.4983,-1.5255,-1.5525,-1.5804,-1.6057,-1.6306,-1.6509,-1.6723,-1.7031,-1.724,-1.7406,-1.7625,-1.7706,-1.7801,-1.7882,-1.7949,-1.8043,-1.8202,-1.8361,-1.8542,-1.8644,-1.8669,-1.8669,-1.8644,-1.8581,-1.8464,-1.8551,-1.8767,-1.8728,-1.8072,-1.9098,-1.9659,-1.9364,-1.9594,-1.9885,-2.0016,-1.9656,-1.9396,-1.9251,-1.8987,-1.8721,-1.8441,-1.8007,-1.7776,-1.7843,-1.8073,-1.8271,-1.8515,-1.8619,-1.8798,-1.8881,-1.8934,-1.904,-1.9198,-1.9368,-1.9408,-1.9552,-1.9604,-1.9604,-1.9656,-1.9695,-1.9849,-2.004,-2.0397,-2.0898,-2.1504,-2.2296,-2.2975,-2.3373,-2.391,-2.4041,-2.4261,-2.4434,-2.4505,-2.4607,-2.4607,-2.4677,-2.4791,-2.4905,-2.5018,-2.5075,-2.5188,-2.5313,-2.5549,-2.5978,-2.6367,-2.6882,-2.7541,-2.8176,-2.8741,-2.896,-2.9212,-2.947,-2.954,-2.9477,-2.9415,-2.9415,-2.9477,-1.0205,-1.0312,-1.0515,-1.0631,-1.0718,-1.093,-1.1001,-1.1062,-1.1552,-1.2057,-1.2567,-1.2887,-1.3263,-1.3611,-1.3902,-1.4372,-1.4789,-1.5017,-1.539,-1.5703,-1.5969,-1.6231,-1.6479,-1.6765,-1.7031,-1.724,-1.7378,-1.7584,-1.7788,-1.7909,-1.8055,-1.8095,-1.8135,-1.8228,-1.8386,-1.8581,-1.8721,-1.8745,-1.8822,-1.8822,-1.8784,-1.8745,-1.8683,-1.8701,-1.8618,-1.8834,-1.8879,-1.9384,-1.9799,-2.0046,-2.0258,-2.0469,-2.057,-2.0207,-2.0016,-1.9875,-1.9656,-1.95,-1.9291,-1.8804,-1.8494,-1.8643,-1.8815,-1.8958,-1.9172,-1.9259,-1.9368,-1.946,-1.95,-1.9604,-1.972,-1.9784,-1.9836,-1.9978,-2.0067,-2.0067,-2.0067,-2.0118,-2.0169,-2.0348,-2.0616,-2.099,-2.1655,-2.2325,-2.2913,-2.3476,-2.4028,-2.4505,-2.4677,-2.4835,-2.4848,-2.4905,-2.4962,-2.5032,-2.5145,-2.5201,-2.53,-2.5369,-2.5481,-2.5536,-2.5647,-2.5675,-2.6078,-2.6567,-2.7143,-2.7734,-2.8313,-2.8792,-2.9172,-2.9524,-2.9651,-2.9602,-2.9602,-2.9602,-2.9665,-0.9892,-1.001,-1.0166,-1.0351,-1.0544,-1.0582,-1.0582,-1.0671,-1.1072,-1.1531,-1.2131,-1.2436,-1.2915,-1.3378,-1.3762,-1.4283,-1.4858,-1.5198,-1.5513,-1.5824,-1.6132,-1.6392,-1.6693,-1.6989,-1.724,-1.7365,-1.7584,-1.7842,-1.7895,-1.8042,-1.8214,-1.8333,-1.8397,-1.8464,-1.8556,-1.875,-1.8874,-1.8874,-1.8912,-1.8898,-1.8898,-1.9075,-1.8951,-1.8994,-1.8953,-1.9117,-1.9319,-1.9614,-2.0067,-2.0539,-2.084,-2.0987,-2.0988,-2.0871,-2.0623,-2.0459,-2.0346,-2.0245,-2.0055,-1.9592,-1.9291,-1.9448,-1.954,-1.9629,-1.977,-1.99,-2.0055,-2.0016,-2.008,-2.0105,-2.022,-2.0271,-2.0334,-2.0472,-2.0485,-2.0485,-2.0523,-2.0523,-2.0573,-2.0599,-2.0904,-2.1146,-2.1749,-2.2494,-2.3406,-2.4008,-2.4619,-2.4975,-2.5032,-2.5145,-2.5201,-2.5257,-2.5327,-2.5383,-2.5508,-2.5481,-2.5508,-2.5578,-2.5647,-2.5743,-2.5798,-2.5784,-2.5921,-2.6411,-2.6933,-2.7456,-2.7967,-2.8519,-2.9142,-2.969,-2.9761,-2.9803,-2.9803,-2.9865,-2.9865,-0.9487,-0.9783,-0.9823,-1.0049,-1.038,-1.0544,-1.0582,-1.0582,-1.0748,-1.116,-1.1724,-1.2256,-1.2872,-1.3466,-1.3695,-1.4292,-1.4957,-1.5433,-1.5792,-1.6032,-1.6349,-1.665,-1.6918,-1.717,-1.7406,-1.7666,-1.7842,-1.7949,-1.8002,-1.8201,-1.8386,-1.8503,-1.862,-1.8697,-1.8711,-1.8917,-1.9017,-1.9078,-1.9116,-1.9203,-1.9333,-1.9662,-1.9637,-1.9512,-1.9581,-1.976,-1.999,-1.9992,-2.0483,-2.1178,-2.1176,-2.134,-2.1561,-2.1361,-2.1229,-2.118,-2.1055,-2.0993,-2.0944,-2.0346,-2.0156,-2.0169,-2.0258,-2.0385,-2.0448,-2.0573,-2.072,-2.0631,-2.067,-2.0746,-2.0759,-2.0759,-2.0822,-2.0885,-2.0885,-2.0885,-2.0921,-2.097,-2.097,-2.1019,-2.1131,-2.1323,-2.1898,-2.2647,-2.3808,-2.4559,-2.5149,-2.5383,-2.5383,-2.5425,-2.5411,-2.5536,-2.5592,-2.5702,-2.5757,-2.5729,-2.5729,-2.5798,-2.5853,-2.5962,-2.6071,-2.6056,-2.6236,-2.6429,-2.6659,-2.7115,-2.7712,-2.8311,-2.904,-2.9693,-2.9903,-2.9988,-3.005,-3.005,-2.9974,-0.9088,-0.9417,-0.9536,-0.9734,-0.9941,-1.0196,-1.0283,-1.0312,-1.0554,-1.0905,-1.1253,-1.1609,-1.2055,-1.2699,-1.3466,-1.4135,-1.4888,-1.5531,-1.5913,-1.6337,-1.6534,-1.682,-1.7073,-1.7323,-1.7584,-1.7788,-1.7949,-1.8055,-1.8187,-1.8372,-1.8503,-1.862,-1.8851,-1.895,-1.9003,-1.9116,-1.9228,-1.939,-1.9654,-2.0,-2.002,-2.0425,-2.0648,-2.04,-2.0486,-2.0666,-2.0925,-2.0826,-2.1225,-2.1891,-2.1868,-2.1931,-2.2063,-2.1888,-2.1793,-2.1759,-2.1698,-2.165,-2.1636,-2.1382,-2.1153,-2.1068,-2.097,-2.1118,-2.1202,-2.1348,-2.1355,-2.1315,-2.1307,-2.1299,-2.1215,-2.1215,-2.1229,-2.1229,-2.1229,-2.1215,-2.1264,-2.1375,-2.1423,-2.1471,-2.152,-2.1909,-2.2413,-2.3109,-2.4135,-2.4858,-2.5452,-2.5522,-2.5494,-2.5578,-2.5619,-2.5784,-2.5907,-2.5962,-2.6002,-2.5948,-2.6002,-2.6071,-2.6125,-2.6179,-2.6286,-2.634,-2.6354,-2.6412,-2.6569,-2.6783,-2.7537,-2.831,-2.9146,-2.9737,-2.9978,-3.0129,-3.0172,-3.0144,-3.0054,-0.8724,-0.9047,-0.9248,-0.9417,-0.9625,-0.9932,-1.0157,-1.0312,-1.0505,-1.0784,-1.1092,-1.1254,-1.1811,-1.2589,-1.3252,-1.4178,-1.5038,-1.5644,-1.6088,-1.6522,-1.6791,-1.7002,-1.7253,-1.7488,-1.7733,-1.7935,-1.8082,-1.8201,-1.8358,-1.8503,-1.8673,-1.8827,-1.9026,-1.9139,-1.9213,-1.9302,-1.9501,-1.9729,-2.0165,-2.046,-2.0799,-2.1186,-2.1439,-2.1295,-2.1345,-2.1525,-2.183,-2.199,-2.2134,-2.255,-2.2692,-2.2646,-2.254,-2.2495,-2.2388,-2.2356,-2.231,-2.231,-2.2296,-2.2296,-2.2049,-2.1921,-2.1793,-2.1793,-2.186,-2.1969,-2.1955,-2.1941,-2.1874,-2.1793,-2.1712,-2.1664,-2.1616,-2.1616,-2.1568,-2.1554,-2.1554,-2.1664,-2.1664,-2.1712,-2.1904,-2.2401,-2.3013,-2.3708,-2.4498,-2.5078,-2.5614,-2.5631,-2.5702,-2.5798,-2.5879,-2.6002,-2.6111,-2.6179,-2.6179,-2.6233,-2.6233,-2.6286,-2.634,-2.6447,-2.6433,-2.6486,-2.6447,-2.6447,-2.663,-2.6967,-2.7625,-2.8332,-2.897,-2.9566,-2.9968,-3.0139,-3.0251,-3.0266,-3.0237,-0.8365,-0.8675,-0.8886,-0.9128,-0.9399,-0.9883,-1.0273,-1.0582,-1.0582,-1.0822,-1.1185,-1.1309,-1.1987,-1.3069,-1.3477,-1.4339,-1.5461,-1.5971,-1.6306,-1.6607,-1.6947,-1.7212,-1.7474,-1.772,-1.7895,-1.8042,-1.8187,-1.8372,-1.8503,-1.8673,-1.8841,-1.9031,-1.9191,-1.9376,-1.9494,-1.9649,-1.9893,-2.0226,-2.0729,-2.1085,-2.1514,-2.2034,-2.2093,-2.2007,-2.2069,-2.2247,-2.2408,-2.2452,-2.2658,-2.2907,-2.3098,-2.2994,-2.2949,-2.2934,-2.2934,-2.2889,-2.2904,-2.2904,-2.2889,-2.2889,-2.2889,-2.2694,-2.2572,-2.2495,-2.2449,-2.2495,-2.248,-2.2434,-2.2388,-2.231,-2.2217,-2.2137,-2.2044,-2.1949,-2.1902,-2.1902,-2.1855,-2.1855,-2.1855,-2.1944,-2.2122,-2.2656,-2.3547,-2.4305,-2.483,-2.5327,-2.5813,-2.6011,-2.6056,-2.6071,-2.6165,-2.6218,-2.6326,-2.634,-2.6394,-2.65,-2.6553,-2.6659,-2.6645,-2.6645,-2.6645,-2.6698,-2.675,-2.6765,-2.6765,-2.7065,-2.755,-2.8042,-2.8664,-2.9241,-2.9813,-3.0321,-3.0464,-3.0568,-3.0613,-0.7946,-0.8365,-0.8643,-0.8967,-0.9288,-0.9813,-1.0244,-1.0572,-1.0649,-1.0888,-1.1185,-1.1384,-1.2069,-1.2896,-1.3581,-1.4441,-1.5326,-1.604,-1.6527,-1.6863,-1.7115,-1.7419,-1.7666,-1.7882,-1.8016,-1.8214,-1.8372,-1.8503,-1.8673,-1.8841,-1.9017,-1.9228,-1.939,-1.9678,-2.0004,-2.031,-2.0519,-2.0831,-2.1456,-2.1943,-2.2304,-2.2782,-2.2812,-2.2859,-2.2816,-2.2935,-2.2935,-2.2965,-2.3128,-2.3201,-2.3275,-2.3231,-2.3216,-2.3172,-2.3216,-2.3319,-2.3319,-2.3319,-2.3377,-2.3377,-2.3377,-2.3377,-2.3334,-2.3157,-2.3083,-2.3008,-2.3053,-2.2904,-2.2814,-2.2723,-2.2586,-2.2449,-2.237,-2.2338,-2.2245,-2.2184,-2.2137,-2.2137,-2.2137,-2.2255,-2.2447,-2.298,-2.3892,-2.4755,-2.5269,-2.5654,-2.6007,-2.6289,-2.6433,-2.6447,-2.6447,-2.65,-2.6606,-2.6659,-2.6765,-2.687,-2.6922,-2.6974,-2.6907,-2.6907,-2.6959,-2.6959,-2.7063,-2.7078,-2.7026,-2.707,-2.7306,-2.7815,-2.8409,-2.9072,-2.9695,-3.0265,-3.0763,-3.0793,-3.0851,-0.7614,-0.8044,-0.8439,-0.8886,-0.9417,-0.9862,-1.0283,-1.0572,-1.0677,-1.0937,-1.1309,-1.1501,-1.2139,-1.3117,-1.3835,-1.4658,-1.5673,-1.6286,-1.6748,-1.7031,-1.7253,-1.7543,-1.7801,-1.8003,-1.8189,-1.8347,-1.8503,-1.8673,-1.8841,-1.9017,-1.9205,-1.9332,-1.9553,-2.0049,-2.0525,-2.1078,-2.153,-2.1799,-2.2203,-2.2727,-2.3116,-2.3357,-2.3463,-2.3538,-2.3451,-2.3436,-2.3436,-2.3436,-2.3436,-2.3494,-2.3494,-2.3538,-2.3538,-2.3581,-2.3581,-2.3668,-2.3683,-2.3711,-2.3739,-2.3739,-2.3739,-2.3782,-2.3824,-2.3711,-2.3566,-2.348,-2.3392,-2.3304,-2.3172,-2.3098,-2.2904,-2.2783,-2.2752,-2.2675,-2.2569,-2.2477,-2.2417,-2.2417,-2.2459,-2.2577,-2.2879,-2.3345,-2.4081,-2.5006,-2.5595,-2.5871,-2.6211,-2.6611,-2.6712,-2.6727,-2.6727,-2.6779,-2.6884,-2.6974,-2.7093,-2.7144,-2.7144,-2.7144,-2.713,-2.7115,-2.7167,-2.7218,-2.7181,-2.7181,-2.7233,-2.7314,-2.7409,-2.7705,-2.8219,-2.8907,-2.9592,-3.0253,-3.0743,-3.0982,-3.1013,-0.7363,-0.7753,-0.8316,-0.9016,-0.9674,-0.9971,-1.0302,-1.0687,-1.0753,-1.1002,-1.141,-1.1675,-1.2453,-1.3471,-1.4129,-1.5057,-1.5922,-1.6582,-1.696,-1.7253,-1.7447,-1.7706,-1.7949,-1.8109,-1.8321,-1.8517,-1.8687,-1.8841,-1.9017,-1.9205,-1.9317,-1.9383,-2.0064,-2.051,-2.0876,-2.1874,-2.2379,-2.2664,-2.2855,-2.3155,-2.34,-2.358,-2.3595,-2.3595,-2.361,-2.361,-2.3653,-2.3653,-2.3696,-2.3797,-2.3839,-2.3839,-2.3882,-2.3925,-2.3925,-2.4009,-2.3982,-2.4024,-2.4051,-2.4094,-2.4051,-2.4051,-2.4051,-2.4067,-2.4009,-2.3797,-2.3668,-2.361,-2.348,-2.3348,-2.3172,-2.3038,-2.2963,-2.2843,-2.2752,-2.2661,-2.2583,-2.2569,-2.2598,-2.2844,-2.3468,-2.3875,-2.4298,-2.5178,-2.6081,-2.6155,-2.6337,-2.6864,-2.6989,-2.6989,-2.7003,-2.7003,-2.7093,-2.7196,-2.7233,-2.7299,-2.7314,-2.7262,-2.7299,-2.7335,-2.7488,-2.7386,-2.7284,-2.7386,-2.7539,-2.7539,-2.77,-2.79,-2.8207,-2.8839,-2.9546,-3.0202,-3.0644,-3.1027,-3.1315,-0.7105,-0.7607,-0.8521,-0.9226,-0.9674,-0.9971,-1.0312,-1.0715,-1.0981,-1.1239,-1.1522,-1.1864,-1.2617,-1.3851,-1.4377,-1.5286,-1.6278,-1.682,-1.7128,-1.7419,-1.7625,-1.7868,-1.8109,-1.8321,-1.8478,-1.8687,-1.8841,-1.9031,-1.9205,-1.9302,-1.9443,-1.9605,-2.0295,-2.084,-2.1455,-2.2495,-2.3017,-2.3363,-2.3522,-2.351,-2.3578,-2.3653,-2.3653,-2.3696,-2.3754,-2.3797,-2.3839,-2.3882,-2.3882,-2.394,-2.3982,-2.3982,-2.3982,-2.3982,-2.4109,-2.4193,-2.4234,-2.4317,-2.4359,-2.4385,-2.4385,-2.4426,-2.4426,-2.4426,-2.4343,-2.4094,-2.3925,-2.3839,-2.3739,-2.361,-2.3436,-2.3319,-2.3142,-2.3008,-2.2888,-2.2812,-2.2735,-2.2735,-2.2735,-2.3241,-2.3865,-2.4274,-2.4626,-2.5371,-2.6294,-2.6695,-2.6791,-2.7003,-2.7144,-2.7181,-2.7196,-2.7248,-2.7248,-2.735,-2.7386,-2.7488,-2.7503,-2.7619,-2.767,-2.772,-2.7755,-2.7705,-2.759,-2.7755,-2.7855,-2.7855,-2.784,-2.7936,-2.8319,-2.886,-2.951,-3.0151,-3.0845,-3.1298,-3.1566,-0.6901,-0.7565,-0.8561,-0.9266,-0.9713,-1.0088,-1.0457,-1.0829,-1.1207,-1.1553,-1.1878,-1.2304,-1.3088,-1.4169,-1.4774,-1.5552,-1.6579,-1.7018,-1.7323,-1.7625,-1.7788,-1.8029,-1.8268,-1.8478,-1.8648,-1.8803,-1.9017,-1.9205,-1.9354,-1.9494,-1.9612,-2.0094,-2.0729,-2.1464,-2.2219,-2.2934,-2.3474,-2.3852,-2.3982,-2.3925,-2.3782,-2.3797,-2.3797,-2.3882,-2.3897,-2.3982,-2.3982,-2.3982,-2.404,-2.4124,-2.4166,-2.4276,-2.4276,-2.4317,-2.4343,-2.4385,-2.4426,-2.4467,-2.4589,-2.463,-2.463,-2.463,-2.463,-2.4549,-2.4549,-2.4302,-2.4219,-2.4135,-2.4024,-2.3897,-2.361,-2.3436,-2.3304,-2.3187,-2.3068,-2.2947,-2.2857,-2.2812,-2.2812,-2.3016,-2.3479,-2.3815,-2.4278,-2.5154,-2.593,-2.6097,-2.6338,-2.713,-2.7248,-2.7386,-2.7386,-2.7386,-2.7437,-2.7554,-2.7604,-2.769,-2.774,-2.7855,-2.7985,-2.797,-2.792,-2.7955,-2.7955,-2.8069,-2.8069,-2.8005,-2.8054,-2.8103,-2.8281,-2.8716,-2.9416,-3.0114,-3.0766,-3.1382,-3.1811,-0.6767,-0.7599,-0.8602,-0.9315,-0.9753,-1.0235,-1.0639,-1.1057,-1.1457,-1.1825,-1.2291,-1.2932,-1.3667,-1.4459,-1.5222,-1.6109,-1.678,-1.7256,-1.7584,-1.7814,-1.7949,-1.8228,-1.8439,-1.8595,-1.8827,-1.9055,-1.9265,-1.9376,-1.945,-1.9775,-2.0258,-2.0843,-2.1551,-2.2324,-2.3011,-2.3599,-2.4024,-2.4024,-2.4082,-2.4082,-2.4067,-2.4024,-2.3982,-2.3997,-2.404,-2.4024,-2.4067,-2.4067,-2.4166,-2.425,-2.4416,-2.4441,-2.4508,-2.4508,-2.4564,-2.4605,-2.4589,-2.463,-2.467,-2.471,-2.471,-2.471,-2.467,-2.467,-2.467,-2.463,-2.4564,-2.44,-2.4291,-2.4109,-2.3824,-2.361,-2.348,-2.3363,-2.3231,-2.3068,-2.3023,-2.2947,-2.2947,-2.2962,-2.3238,-2.3528,-2.4138,-2.4965,-2.5415,-2.5537,-2.6038,-2.6798,-2.735,-2.7423,-2.7473,-2.7524,-2.7524,-2.764,-2.774,-2.7855,-2.789,-2.7989,-2.8118,-2.8069,-2.8118,-2.8201,-2.825,-2.8201,-2.8201,-2.825,-2.8299,-2.8396,-2.8539,-2.8666,-2.9317,-3.0033,-3.0452,-3.1114,-3.1902,-0.7003,-0.8126,-0.8862,-0.9386,-0.9813,-1.0351,-1.0812,-1.1169,-1.1579,-1.1993,-1.2519,-1.3301,-1.4061,-1.4722,-1.5095,-1.5917,-1.712,-1.7543,-1.776,-1.7948,-1.8228,-1.8478,-1.8673,-1.8889,-1.9116,-1.9288,-1.9508,-1.9617,-1.9794,-2.0324,-2.0797,-2.1076,-2.2258,-2.2844,-2.3082,-2.3655,-2.4208,-2.4208,-2.4291,-2.4359,-2.4291,-2.425,-2.4097,-2.4139,-2.4166,-2.425,-2.4333,-2.4416,-2.4441,-2.4523,-2.4564,-2.4605,-2.463,-2.467,-2.4686,-2.4766,-2.4766,-2.4806,-2.4846,-2.491,-2.495,-2.4989,-2.4989,-2.5045,-2.5005,-2.4926,-2.4806,-2.4701,-2.4539,-2.4276,-2.4051,-2.3882,-2.3711,-2.3523,-2.3348,-2.3275,-2.3187,-2.3112,-2.3082,-2.3198,-2.34,-2.3676,-2.3963,-2.4785,-2.5618,-2.5894,-2.6447,-2.7137,-2.7401,-2.7488,-2.756,-2.756,-2.756,-2.7675,-2.779,-2.7905,-2.8005,-2.8103,-2.825,-2.8299,-2.8396,-2.8604,-2.8604,-2.8508,-2.8556,-2.8604,-2.8652,-2.8589,-2.87,-2.8841,-2.9386,-2.9931,-3.0323,-3.0873,-3.169]}]]